[[{"header":{"parameterUnit":"m.s-1","parameterCategory":1,"la1":31.0,"la2":29.5877,"lo1":-88.7671,"lo2":-86.6584,"dy":0.0162,"dx":0.0185,"nx":115,"ny":88,"refTime":"2023-10-04T06:00:00:Z","depth":0,"parameterNumber":2,"parameterNumberName":"U-component_of_WINDS"},"data":[0.0,0.0,0.0,0.0,0.0,0.0,0.0,0.0,0.0,0.0,0.0,0.0,0.0,0.0,0.0,0.0,0.0,0.0,0.0,0.0,0.0,0.0,0.0,0.0,0.0,0.0,0.0,0.0,0.0,0.0,0.0,0.0,0.0,0.0,0.0,0.0,0.0,0.0,0.0,0.0,0.0,0.0,0.0,0.0,0.0,0.0,0.0,0.0,0.0,0.0,0.0,0.0,0.0,0.0,0.0,0.0,0.0,0.0,0.0,0.0,0.0,0.0,0.0,0.0,0.0,0.0,0.0,0.0,0.0,0.0,0.0,0.0,0.0,0.0,0.0,0.0,0.0,0.0,0.0,0.0,0.0,0.0,0.0,0.0,0.0,0.0,0.0,0.0,0.0,0.0,0.0,0.0,0.0,0.0,0.0,0.0,0.0,0.0,0.0,0.0,0.0,0.0,0.0,0.0,0.0,0.0,0.0,0.0,0.0,0.0,0.0,0.0,0.0,0.0,0.0,0.0,0.0,0.0,0.0,0.0,0.0,0.0,0.0,0.0,0.0,0.0,0.0,0.0,0.0,0.0,0.0,0.0,0.0,0.0,0.0,0.0,0.0,0.0,0.0,0.0,0.0,0.0,0.0,0.0,0.0,0.0,0.0,0.0,0.0,0.0,0.0,0.0,0.0,0.0,0.0,0.0,0.0,0.0,0.0,0.0,0.0,0.0,0.0,0.0,0.0,0.0,0.0,0.0,0.0,0.0,0.0,0.0,0.0,0.0,0.0,0.0,0.0,0.0,0.0,0.0,0.0,0.0,0.0,0.0,0.0,0.0,0.0,0.0,0.0,0.0,0.0,0.0,0.0,0.0,0.0,0.0,0.0,0.0,0.0,0.0,0.0,0.0,0.0,0.0,0.0,0.0,0.0,0.0,0.0,0.0,0.0,0.0,0.0,0.0,0.0,0.0,0.0,0.0,0.0,0.0,0.0,0.0,0.0,0.0,0.0,0.0,0.0,0.0,0.0,0.0,0.0,0.0,0.0,0.0,0.0,0.0,0.0,0.0,0.0,0.0,0.0,0.0,0.0,0.0,0.0,0.0,0.0,0.0,0.0,0.0,0.0,0.0,0.0,0.0,0.0,0.0,0.0,0.0,0.0,0.0,0.0,0.0,0.0,0.0,0.0,0.0,0.0,0.0,0.0,0.0,0.0,0.0,0.0,0.0,0.0,0.0,0.0,0.0,0.0,0.0,0.0,0.0,0.0,0.0,0.0,0.0,0.0,0.0,0.0,0.0,0.0,0.0,0.0,0.0,0.0,0.0,0.0,0.0,0.0,0.0,0.0,0.0,0.0,0.0,0.0,0.0,0.0,0.0,0.0,0.0,0.0,0.0,0.0,0.0,0.0,0.0,0.0,0.0,0.0,0.0,0.0,0.0,0.0,0.0,0.0,0.0,0.0,0.0,0.0,0.0,0.0,0.0,0.0,0.0,0.0,0.0,0.0,0.0,0.0,0.0,0.0,0.0,0.0,0.0,0.0,0.0,0.0,0.0,0.0,0.0,0.0,0.0,0.0,0.0,0.0,0.0,0.0,0.0,0.0,0.0,0.0,0.0,0.0,0.0,0.0,0.0,0.0,0.0,0.0,0.0,0.0,0.0,0.0,0.0,0.0,0.0,0.0,0.0,0.0,0.0,0.0,0.0,0.0,0.0,0.0,0.0,0.0,0.0,0.0,0.0,0.0,0.0,0.0,0.0,0.0,0.0,0.0,0.0,0.0,0.0,0.0,0.0,0.0,0.0,0.0,0.0,0.0,0.0,0.0,0.0,0.0,0.0,0.0,0.0,0.0,0.0,0.0,0.0,0.0,0.0,0.0,0.0,0.0,0.0,0.0,0.0,0.0,0.0,0.0,0.0,0.0,0.0,0.0,0.0,0.0,0.0,0.0,0.0,0.0,0.0,0.0,0.0,0.0,0.0,0.0,0.0,0.0,0.0,0.0,0.0,0.0,0.0,0.0,0.0,0.0,0.0,0.0,0.0,0.0,0.0,0.0,0.0,0.0,0.0,0.0,0.0,0.0,0.0,0.0,0.0,0.0,0.0,0.0,0.0,0.0,0.0,0.0,0.0,0.0,0.0,0.0,0.0,0.0,0.0,0.0,0.0,0.0,0.0,0.0,0.0,0.0,0.0,0.0,0.0,0.0,0.0,0.0,0.0,0.0,0.0,0.0,0.0,0.0,0.0,0.0,0.0,0.0,0.0,0.0,0.0,0.0,0.0,0.0,0.0,0.0,0.0,0.0,0.0,0.0,0.0,0.0,0.0,0.0,0.0,0.0,0.0,0.0,0.0,0.0,0.0,0.0,0.0,0.0,0.0,0.0,0.0,0.0,0.0,0.0,0.0,0.0,0.0,0.0,0.0,0.0,0.0,0.0,0.0,0.0,0.0,0.0,0.0,0.0,0.0,0.0,0.0,0.0,0.0,0.0,0.0,0.0,0.0,0.0,0.0,0.0,0.0,0.0,0.0,0.0,0.0,0.0,0.0,0.0,0.0,0.0,0.0,0.0,0.0,0.0,0.0,0.0,0.0,0.0,0.0,0.0,0.0,0.0,0.0,0.0,0.0,0.0,0.0,0.0,0.0,0.0,0.0,0.0,0.0,0.0,0.0,0.0,0.0,0.0,0.0,0.0,0.0,0.0,0.0,0.0,0.0,0.0,0.0,0.0,0.0,0.0,0.0,0.0,0.0,0.0,0.0,0.0,0.0,0.0,0.0,0.0,0.0,0.0,0.0,0.0,0.0,0.0,0.0,0.0,0.0,0.0,0.0,0.0,0.0,0.0,0.0,0.0,0.0,0.0,0.0,0.0,0.0,0.0,0.0,0.0,0.0,0.0,0.0,0.0,0.0,0.0,0.0,0.0,0.0,0.0,0.0,0.0,0.0,0.0,0.0,0.0,0.0,0.0,0.0,0.0,0.0,0.0,0.0,0.0,0.0,0.0,0.0,0.0,0.0,0.0,0.0,0.0,0.0,0.0,0.0,0.0,0.0,0.0,0.0,0.0,0.0,0.0,0.0,0.0,0.0,0.0,0.0,0.0,0.0,0.0,0.0,0.0,0.0,0.0,0.0,0.0,0.0,0.0,0.0,0.0,0.0,0.0,0.0,0.0,0.0,0.0,0.0,0.0,0.0,0.0,0.0,0.0,0.0,0.0,0.0,0.0,0.0,0.0,0.0,0.0,0.0,0.0,0.0,0.0,0.0,0.0,0.0,0.0,0.0,0.0,0.0,0.0,0.0,0.0,0.0,0.0,0.0,0.0,0.0,0.0,0.0,0.0,0.0,0.0,0.0,0.0,0.0,0.0,0.0,0.0,0.0,0.0,0.0,0.0,0.0,0.0,0.0,0.0,0.0,0.0,0.0,0.0,0.0,0.0,0.0,0.0,0.0,0.0,0.0,0.0,0.0,0.0,0.0,0.0,0.0,0.0,0.0,0.0,0.0,0.0,0.0,0.0,0.0,0.0,0.0,0.0,0.0,0.0,0.0,0.0,0.0,0.0,0.0,0.0,0.0,0.0,0.0,0.0,0.0,0.0,0.0,0.0,0.0,0.0,0.0,0.0,0.0,0.0,0.0,0.0,0.0,0.0,0.0,0.0,0.0,0.0,0.0,0.0,0.0,0.0,0.0,0.0,0.0,0.0,0.0,0.0,0.0,0.0,0.0,0.0,0.0,0.0,0.0,0.0,0.0,0.0,0.0,0.0,0.0,0.0,0.0,0.0,0.0,0.0,0.0,0.0,0.0,0.0,0.0,0.0,0.0,0.0,0.0,0.0,0.0,0.0,0.0,0.0,0.0,0.0,0.0,0.0,0.0,0.0,0.0,0.0,0.0,0.0,0.0,0.0,0.0,0.0,0.0,0.0,0.0,0.0,0.0,0.0,0.0,0.0,0.0,0.0,0.0,0.0,0.0,0.0,0.0,0.0,0.0,0.0,0.0,0.0,0.0,0.0,0.0,0.0,0.0,0.0,0.0,0.0,0.0,0.0,0.0,0.0,0.0,0.0,0.0,0.0,0.0,0.0,0.0,0.0,0.0,0.0,0.0,0.0,0.0,0.0,0.0,0.0,0.0,0.0,0.0,0.0,0.0,0.0,0.0,0.0,0.0,0.0,0.0,0.0,0.0,0.0,0.0,0.0,0.0,0.0,0.0,0.0,0.0,0.0,0.0,0.0,0.0,0.0,0.0,0.0,0.0,0.0,0.0,0.0,0.0,0.0,0.0,0.0,0.0,4.3124,0.0,0.0,0.0,0.0,0.0,0.0,0.0,0.0,0.0,0.0,0.0,0.0,0.0,0.0,0.0,0.0,0.0,0.0,0.0,0.0,0.0,0.0,0.0,0.0,0.0,0.0,0.0,0.0,0.0,0.0,0.0,0.0,0.0,0.0,0.0,0.0,0.0,0.0,0.0,0.0,0.0,0.0,0.0,0.0,0.0,0.0,0.0,0.0,0.0,0.0,0.0,0.0,0.0,0.0,0.0,0.0,0.0,0.0,0.0,0.0,0.0,0.0,0.0,0.0,0.0,0.0,0.0,0.0,0.0,0.0,0.0,0.0,0.0,0.0,0.0,0.0,0.0,0.0,0.0,0.0,0.0,0.0,0.0,0.0,0.0,0.0,0.0,0.0,0.0,0.0,0.0,0.0,0.0,0.0,0.0,0.0,0.0,0.0,0.0,0.0,0.0,0.0,0.0,0.0,0.0,0.0,0.0,0.0,0.0,0.0,4.4969,4.4628,4.4976,4.4993,4.4577,0.0,0.0,0.0,0.0,0.0,0.0,0.0,0.0,0.0,0.0,0.0,0.0,0.0,0.0,0.0,0.0,0.0,0.0,0.0,0.0,0.0,0.0,0.0,0.0,0.0,0.0,0.0,0.0,0.0,0.0,0.0,0.0,0.0,0.0,0.0,0.0,0.0,0.0,0.0,0.0,0.0,0.0,0.0,0.0,0.0,0.0,0.0,0.0,0.0,0.0,0.0,0.0,0.0,0.0,0.0,0.0,0.0,0.0,0.0,0.0,0.0,0.0,0.0,0.0,0.0,0.0,0.0,0.0,0.0,0.0,0.0,0.0,0.0,0.0,0.0,0.0,0.0,0.0,0.0,0.0,0.0,0.0,0.0,0.0,0.0,0.0,0.0,0.0,0.0,0.0,0.0,0.0,0.0,0.0,0.0,0.0,0.0,0.0,0.0,0.0,0.0,0.0,0.0,0.0,0.0,0.0,0.0,0.0,0.0,0.0,0.0,0.0,4.5899,4.5863,4.5794,0.0,0.0,0.0,0.0,0.0,0.0,0.0,0.0,0.0,0.0,0.0,0.0,0.0,0.0,0.0,0.0,0.0,0.0,0.0,0.0,0.0,0.0,0.0,0.0,0.0,0.0,0.0,0.0,0.0,0.0,0.0,0.0,0.0,0.0,0.0,0.0,0.0,0.0,0.0,0.0,0.0,0.0,0.0,0.0,0.0,0.0,0.0,0.0,0.0,0.0,0.0,0.0,0.0,0.0,0.0,0.0,0.0,0.0,0.0,0.0,0.0,0.0,0.0,0.0,0.0,0.0,0.0,0.0,0.0,0.0,0.0,0.0,0.0,0.0,0.0,0.0,0.0,0.0,0.0,0.0,0.0,0.0,0.0,0.0,0.0,0.0,0.0,0.0,0.0,0.0,0.0,0.0,0.0,0.0,0.0,0.0,0.0,0.0,0.0,0.0,0.0,0.0,0.0,0.0,0.0,0.0,0.0,0.0,0.0,0.0,4.5889,4.5899,4.5899,0.0,4.5814,0.0,0.0,0.0,0.0,0.0,0.0,0.0,0.0,0.0,0.0,0.0,0.0,0.0,0.0,0.0,0.0,0.0,0.0,0.0,0.0,0.0,0.0,0.0,0.0,0.0,0.0,0.0,0.0,0.0,0.0,0.0,0.0,0.0,0.0,0.0,0.0,0.0,0.0,0.0,0.0,0.0,0.0,0.0,0.0,0.0,0.0,0.0,0.0,0.0,0.0,0.0,0.0,0.0,0.0,0.0,0.0,0.0,0.0,0.0,0.0,0.0,0.0,0.0,0.0,0.0,0.0,0.0,0.0,0.0,0.0,0.0,0.0,0.0,0.0,0.0,0.0,0.0,0.0,0.0,0.0,0.0,0.0,0.0,0.0,0.0,0.0,0.0,0.0,0.0,0.0,0.0,0.0,0.0,0.0,0.0,0.0,0.0,0.0,0.0,0.0,0.0,0.0,0.0,0.0,0.0,0.0,0.0,0.0,0.0,0.0,4.6057,4.6138,4.6057,4.5969,0.0,0.0,0.0,0.0,0.0,0.0,0.0,0.0,0.0,0.0,0.0,0.0,0.0,0.0,0.0,0.0,0.0,0.0,0.0,0.0,0.0,0.0,0.0,0.0,0.0,0.0,0.0,0.0,0.0,0.0,0.0,0.0,0.0,0.0,0.0,0.0,0.0,0.0,0.0,0.0,0.0,0.0,0.0,0.0,0.0,0.0,0.0,0.0,0.0,0.0,0.0,0.0,0.0,0.0,0.0,0.0,0.0,0.0,0.0,0.0,0.0,0.0,0.0,0.0,0.0,0.0,0.0,0.0,0.0,0.0,0.0,0.0,0.0,0.0,0.0,0.0,0.0,0.0,0.0,0.0,0.0,0.0,0.0,0.0,0.0,0.0,0.0,0.0,0.0,0.0,0.0,0.0,0.0,0.0,0.0,0.0,0.0,0.0,0.0,0.0,0.0,0.0,0.0,0.0,0.0,0.0,0.0,0.0,0.0,0.0,4.615,4.6206,4.6296,4.6192,4.6098,4.5969,0.0,0.0,0.0,0.0,0.0,0.0,0.0,0.0,0.0,0.0,0.0,0.0,0.0,0.0,0.0,0.0,0.0,0.0,0.0,0.0,0.0,0.0,0.0,0.0,0.0,0.0,0.0,0.0,0.0,0.0,0.0,0.0,0.0,0.0,0.0,0.0,0.0,0.0,0.0,0.0,0.0,0.0,0.0,0.0,0.0,0.0,0.0,0.0,0.0,0.0,0.0,0.0,0.0,0.0,0.0,0.0,0.0,0.0,0.0,0.0,0.0,0.0,0.0,0.0,0.0,0.0,0.0,0.0,0.0,0.0,0.0,0.0,0.0,0.0,0.0,0.0,0.0,0.0,0.0,0.0,0.0,0.0,0.0,0.0,0.0,0.0,0.0,0.0,0.0,0.0,0.0,0.0,0.0,0.0,0.0,0.0,0.0,0.0,0.0,0.0,0.0,0.0,0.0,0.0,0.0,0.0,0.0,0.0,4.6277,4.6277,4.628,4.63,4.63,4.6221,0.0,0.0,0.0,0.0,0.0,0.0,0.0,0.0,0.0,0.0,0.0,0.0,0.0,0.0,0.0,0.0,0.0,0.0,0.0,0.0,0.0,0.0,0.0,0.0,0.0,0.0,0.0,0.0,0.0,0.0,0.0,0.0,0.0,0.0,0.0,0.0,0.0,0.0,0.0,0.0,0.0,0.0,0.0,0.0,0.0,0.0,0.0,0.0,0.0,0.0,0.0,0.0,0.0,0.0,0.0,0.0,0.0,0.0,0.0,0.0,0.0,0.0,0.0,0.0,0.0,0.0,0.0,0.0,0.0,0.0,0.0,0.0,0.0,0.0,0.0,0.0,0.0,0.0,0.0,0.0,0.0,0.0,0.0,0.0,0.0,0.0,0.0,0.0,0.0,0.0,0.0,0.0,0.0,0.0,0.0,0.0,0.0,0.0,0.0,0.0,0.0,0.0,0.0,0.0,0.0,0.0,0.0,0.0,0.0,4.63,4.63,4.63,4.63,4.63,4.624,0.0,0.0,0.0,0.0,0.0,0.0,0.0,0.0,0.0,0.0,0.0,0.0,0.0,0.0,0.0,0.0,0.0,0.0,0.0,0.0,0.0,0.0,0.0,0.0,0.0,0.0,0.0,0.0,0.0,0.0,0.0,0.0,0.0,0.0,0.0,0.0,0.0,0.0,0.0,0.0,0.0,0.0,0.0,0.0,0.0,0.0,0.0,0.0,0.0,0.0,0.0,0.0,0.0,0.0,0.0,0.0,0.0,0.0,0.0,0.0,0.0,0.0,0.0,0.0,0.0,0.0,0.0,0.0,0.0,0.0,0.0,0.0,0.0,0.0,0.0,0.0,0.0,0.0,0.0,0.0,0.0,0.0,0.0,0.0,0.0,0.0,0.0,0.0,0.0,0.0,0.0,0.0,0.0,0.0,0.0,0.0,0.0,0.0,0.0,0.0,0.0,0.0,0.0,0.0,0.0,0.0,0.0,0.0,0.0,4.63,0.0,4.6249,4.63,4.63,4.6269,0.0,0.0,0.0,0.0,0.0,0.0,0.0,0.0,0.0,0.0,0.0,0.0,0.0,0.0,0.0,0.0,0.0,0.0,0.0,0.0,0.0,0.0,0.0,0.0,0.0,0.0,0.0,0.0,0.0,0.0,0.0,0.0,0.0,0.0,0.0,0.0,0.0,0.0,0.0,0.0,0.0,0.0,0.0,0.0,0.0,0.0,0.0,0.0,0.0,0.0,0.0,0.0,0.0,0.0,0.0,0.0,0.0,0.0,0.0,0.0,0.0,0.0,0.0,0.0,0.0,0.0,0.0,0.0,0.0,0.0,0.0,0.0,0.0,0.0,0.0,0.0,0.0,0.0,0.0,0.0,0.0,0.0,0.0,0.0,0.0,0.0,0.0,0.0,0.0,0.0,0.0,0.0,0.0,0.0,0.0,0.0,0.0,0.0,0.0,0.0,0.0,0.0,0.0,0.0,0.0,0.0,0.0,0.0,4.615,4.6277,4.6176,4.6176,4.628,4.63,4.63,0.0,0.0,0.0,0.0,0.0,0.0,0.0,0.0,0.0,0.0,0.0,0.0,0.0,0.0,0.0,0.0,0.0,0.0,0.0,0.0,0.0,0.0,0.0,0.0,0.0,0.0,0.0,0.0,0.0,0.0,0.0,0.0,0.0,0.0,0.0,0.0,0.0,0.0,0.0,0.0,0.0,0.0,0.0,0.0,0.0,0.0,0.0,0.0,0.0,0.0,0.0,0.0,0.0,0.0,0.0,0.0,0.0,0.0,0.0,0.0,0.0,0.0,0.0,0.0,0.0,0.0,0.0,0.0,0.0,0.0,0.0,0.0,0.0,0.0,0.0,0.0,0.0,0.0,0.0,0.0,0.0,0.0,0.0,0.0,0.0,0.0,0.0,0.0,0.0,0.0,0.0,0.0,0.0,0.0,0.0,0.0,0.0,0.0,0.0,0.0,0.0,0.0,0.0,0.0,0.0,0.0,0.0,0.0,0.0,4.6296,4.6156,4.617,4.63,4.63,4.63,0.0,0.0,0.0,0.0,0.0,0.0,0.0,0.0,0.0,0.0,0.0,0.0,0.0,0.0,0.0,0.0,0.0,0.0,0.0,0.0,0.0,0.0,0.0,0.0,0.0,0.0,0.0,0.0,0.0,0.0,0.0,0.0,0.0,0.0,0.0,0.0,0.0,0.0,0.0,0.0,0.0,0.0,0.0,0.0,0.0,0.0,0.0,0.0,0.0,0.0,0.0,0.0,0.0,0.0,0.0,0.0,0.0,0.0,0.0,0.0,0.0,0.0,0.0,0.0,0.0,0.0,0.0,0.0,0.0,0.0,0.0,0.0,0.0,0.0,0.0,0.0,0.0,0.0,0.0,0.0,0.0,0.0,0.0,0.0,0.0,0.0,0.0,0.0,0.0,0.0,0.0,0.0,0.0,0.0,0.0,0.0,0.0,0.0,0.0,0.0,0.0,0.0,0.0,0.0,0.0,0.0,0.0,0.0,0.0,4.6211,4.6098,4.6125,4.63,4.63,4.63,4.63,0.0,0.0,0.0,0.0,0.0,0.0,0.0,0.0,0.0,0.0,0.0,0.0,0.0,0.0,0.0,0.0,0.0,0.0,0.0,0.0,0.0,0.0,0.0,0.0,0.0,0.0,0.0,0.0,0.0,0.0,0.0,0.0,0.0,0.0,0.0,0.0,0.0,0.0,0.0,0.0,0.0,0.0,0.0,0.0,0.0,0.0,0.0,0.0,0.0,0.0,0.0,0.0,0.0,0.0,0.0,0.0,0.0,0.0,0.0,0.0,0.0,0.0,0.0,0.0,0.0,0.0,0.0,0.0,0.0,0.0,0.0,0.0,0.0,0.0,0.0,0.0,0.0,0.0,0.0,0.0,0.0,0.0,0.0,0.0,0.0,0.0,0.0,0.0,0.0,0.0,0.0,0.0,0.0,0.0,0.0,0.0,0.0,0.0,0.0,0.0,0.0,0.0,0.0,0.0,0.0,0.0,0.0,0.0,4.6098,4.5978,4.6013,4.6292,4.63,4.63,0.0,0.0,0.0,0.0,0.0,0.0,0.0,0.0,0.0,0.0,0.0,0.0,0.0,0.0,0.0,0.0,0.0,0.0,0.0,0.0,0.0,0.0,0.0,0.0,0.0,0.0,0.0,0.0,0.0,0.0,0.0,0.0,0.0,0.0,0.0,0.0,0.0,0.0,0.0,0.0,0.0,0.0,0.0,0.0,0.0,0.0,0.0,0.0,0.0,0.0,0.0,0.0,0.0,0.0,0.0,0.0,0.0,0.0,0.0,0.0,0.0,0.0,0.0,0.0,0.0,0.0,0.0,0.0,0.0,0.0,0.0,0.0,0.0,0.0,0.0,0.0,0.0,0.0,0.0,0.0,0.0,0.0,0.0,0.0,0.0,0.0,0.0,0.0,0.0,0.0,0.0,0.0,0.0,0.0,0.0,0.0,0.0,0.0,0.0,0.0,0.0,0.0,0.0,0.0,0.0,0.0,0.0,0.0,0.0,4.6091,4.5978,4.5987,4.6144,4.6245,4.6245,0.0,0.0,0.0,0.0,0.0,0.0,0.0,0.0,0.0,0.0,0.0,0.0,0.0,0.0,0.0,0.0,0.0,0.0,0.0,0.0,0.0,0.0,0.0,0.0,0.0,0.0,0.0,0.0,0.0,0.0,0.0,0.0,0.0,0.0,0.0,0.0,0.0,0.0,0.0,0.0,0.0,0.0,0.0,0.0,0.0,0.0,0.0,0.0,0.0,0.0,0.0,0.0,0.0,0.0,0.0,0.0,0.0,0.0,0.0,0.0,0.0,0.0,0.0,0.0,0.0,0.0,0.0,0.0,0.0,0.0,0.0,0.0,0.0,0.0,0.0,0.0,0.0,0.0,0.0,0.0,0.0,0.0,0.0,0.0,0.0,0.0,0.0,0.0,0.0,0.0,0.0,0.0,0.0,0.0,0.0,0.0,0.0,0.0,0.0,0.0,0.0,0.0,0.0,0.0,0.0,0.0,0.0,0.0,4.5908,4.6005,4.593,4.593,4.6005,4.6144,4.6181,0.0,0.0,0.0,0.0,0.0,0.0,0.0,0.0,0.0,0.0,0.0,0.0,0.0,0.0,0.0,0.0,0.0,0.0,0.0,0.0,0.0,0.0,0.0,0.0,0.0,0.0,0.0,0.0,0.0,0.0,0.0,0.0,0.0,0.0,0.0,0.0,0.0,0.0,0.0,0.0,0.0,0.0,0.0,0.0,0.0,0.0,0.0,0.0,0.0,0.0,0.0,0.0,0.0,0.0,0.0,0.0,0.0,0.0,0.0,0.0,0.0,0.0,0.0,0.0,0.0,0.0,0.0,0.0,0.0,0.0,0.0,0.0,0.0,0.0,0.0,0.0,0.0,0.0,0.0,0.0,0.0,0.0,0.0,0.0,0.0,0.0,0.0,0.0,0.0,0.0,0.0,0.0,0.0,0.0,0.0,0.0,0.0,0.0,0.0,0.0,0.0,0.0,0.0,0.0,0.0,0.0,0.0,0.0,4.5841,4.5899,4.5899,4.591,4.592,4.6041,4.6098,0.0,0.0,0.0,0.0,0.0,0.0,0.0,0.0,0.0,0.0,0.0,0.0,0.0,0.0,0.0,0.0,0.0,0.0,0.0,0.0,0.0,0.0,0.0,0.0,0.0,0.0,0.0,0.0,0.0,0.0,0.0,0.0,0.0,0.0,0.0,0.0,0.0,0.0,0.0,0.0,0.0,0.0,0.0,0.0,0.0,0.0,0.0,0.0,0.0,0.0,0.0,0.0,0.0,0.0,0.0,0.0,0.0,0.0,0.0,0.0,0.0,0.0,0.0,0.0,0.0,0.0,0.0,0.0,0.0,0.0,0.0,0.0,0.0,0.0,0.0,0.0,0.0,0.0,0.0,0.0,0.0,0.0,0.0,0.0,0.0,0.0,0.0,0.0,0.0,0.0,0.0,0.0,0.0,0.0,0.0,0.0,0.0,0.0,0.0,0.0,0.0,0.0,0.0,0.0,0.0,0.0,0.0,0.0,4.5841,4.5899,4.5899,4.5959,4.6037,4.6091,4.6049,0.0,0.0,0.0,0.0,0.0,0.0,0.0,0.0,0.0,0.0,0.0,0.0,0.0,0.0,0.0,0.0,0.0,0.0,0.0,0.0,0.0,0.0,0.0,0.0,0.0,0.0,0.0,0.0,0.0,0.0,0.0,0.0,0.0,0.0,0.0,0.0,0.0,0.0,0.0,0.0,0.0,0.0,0.0,0.0,0.0,0.0,0.0,0.0,3.9327,0.0,0.0,0.0,0.0,0.0,0.0,0.0,0.0,0.0,0.0,0.0,0.0,0.0,0.0,0.0,0.0,0.0,0.0,0.0,0.0,0.0,0.0,0.0,0.0,0.0,0.0,0.0,0.0,0.0,0.0,0.0,0.0,0.0,0.0,0.0,0.0,0.0,0.0,0.0,0.0,0.0,0.0,0.0,0.0,0.0,0.0,0.0,0.0,0.0,0.0,0.0,0.0,0.0,0.0,0.0,0.0,0.0,0.0,0.0,4.5802,4.5859,4.584,4.5894,4.5949,4.5949,4.5969,0.0,0.0,0.0,0.0,0.0,0.0,0.0,0.0,0.0,0.0,0.0,0.0,0.0,0.0,0.0,0.0,0.0,0.0,0.0,0.0,0.0,0.0,0.0,0.0,0.0,0.0,0.0,0.0,0.0,0.0,0.0,0.0,0.0,0.0,0.0,0.0,0.0,0.0,0.0,0.0,0.0,0.0,0.0,0.0,0.0,0.0,0.0,0.0,0.0,0.0,0.0,0.0,0.0,0.0,0.0,0.0,0.0,0.0,0.0,0.0,0.0,0.0,0.0,0.0,0.0,0.0,0.0,0.0,0.0,0.0,0.0,0.0,0.0,0.0,0.0,0.0,0.0,0.0,0.0,0.0,0.0,0.0,0.0,0.0,0.0,0.0,0.0,0.0,0.0,0.0,0.0,0.0,0.0,0.0,0.0,0.0,0.0,0.0,0.0,0.0,0.0,0.0,0.0,0.0,0.0,0.0,0.0,4.5727,4.58,4.58,4.5808,4.5802,4.5822,4.5814,4.5891,4.6091,0.0,0.0,0.0,0.0,0.0,0.0,0.0,0.0,0.0,0.0,0.0,0.0,0.0,0.0,0.0,0.0,0.0,0.0,0.0,0.0,0.0,0.0,0.0,0.0,0.0,0.0,0.0,0.0,0.0,0.0,0.0,0.0,0.0,0.0,0.0,0.0,0.0,0.0,4.3974,4.4005,0.0,0.0,0.0,0.0,0.0,0.0,0.0,0.0,3.9575,0.0,0.0,0.0,0.0,0.0,0.0,0.0,0.0,0.0,0.0,0.0,0.0,0.0,0.0,0.0,0.0,0.0,0.0,0.0,0.0,0.0,0.0,0.0,0.0,0.0,0.0,0.0,0.0,0.0,0.0,0.0,0.0,0.0,0.0,0.0,0.0,0.0,0.0,0.0,0.0,0.0,0.0,0.0,0.0,0.0,0.0,0.0,0.0,0.0,0.0,0.0,0.0,0.0,0.0,0.0,0.0,4.5586,4.5746,4.58,4.58,4.5859,4.5878,4.5886,4.5829,4.5891,4.6084,0.0,0.0,0.0,0.0,0.0,0.0,0.0,0.0,0.0,0.0,0.0,0.0,0.0,0.0,0.0,0.0,0.0,0.0,0.0,0.0,0.0,0.0,0.0,0.0,0.0,0.0,0.0,0.0,0.0,0.0,0.0,0.0,0.0,0.0,0.0,0.0,0.0,0.0,0.0,4.3974,4.3767,0.0,0.0,0.0,0.0,0.0,0.0,0.0,0.0,3.9807,0.0,0.0,0.0,0.0,0.0,0.0,0.0,0.0,0.0,0.0,0.0,0.0,0.0,0.0,0.0,0.0,0.0,0.0,0.0,0.0,0.0,0.0,0.0,0.0,0.0,0.0,0.0,0.0,0.0,0.0,0.0,0.0,0.0,0.0,0.0,0.0,0.0,0.0,0.0,0.0,0.0,0.0,0.0,0.0,0.0,0.0,0.0,0.0,0.0,0.0,0.0,0.0,0.0,0.0,0.0,4.5603,4.5651,4.5728,4.5809,4.577,4.5769,4.5847,4.5752,4.5789,0.0,0.0,0.0,0.0,0.0,0.0,0.0,0.0,0.0,0.0,0.0,0.0,0.0,0.0,0.0,0.0,0.0,0.0,0.0,0.0,0.0,0.0,0.0,0.0,0.0,0.0,0.0,0.0,0.0,0.0,0.0,0.0,0.0,0.0,0.0,0.0,0.0,0.0,0.0,0.0,4.3942,4.3762,4.3175,0.0,0.0,0.0,0.0,0.0,0.0,4.0846,4.0796,0.0,0.0,0.0,0.0,0.0,0.0,0.0,0.0,0.0,0.0,0.0,0.0,0.0,0.0,0.0,0.0,0.0,0.0,0.0,0.0,0.0,0.0,0.0,0.0,0.0,0.0,0.0,0.0,0.0,0.0,0.0,0.0,0.0,0.0,0.0,0.0,0.0,0.0,0.0,0.0,0.0,0.0,0.0,0.0,0.0,0.0,0.0,0.0,0.0,0.0,0.0,0.0,0.0,0.0,0.0,4.5586,4.5637,4.5679,4.5763,4.5694,4.5684,4.5776,4.5651,4.5692,0.0,0.0,0.0,0.0,0.0,0.0,0.0,0.0,0.0,0.0,0.0,0.0,0.0,0.0,0.0,0.0,0.0,0.0,0.0,0.0,0.0,0.0,0.0,0.0,0.0,0.0,0.0,0.0,0.0,0.0,0.0,0.0,0.0,0.0,0.0,0.0,0.0,0.0,0.0,0.0,0.0,4.3806,4.3295,4.3371,0.0,0.0,0.0,0.0,4.2261,4.1939,0.0,0.0,0.0,0.0,0.0,0.0,0.0,0.0,0.0,0.0,0.0,0.0,0.0,0.0,0.0,0.0,0.0,0.0,0.0,0.0,0.0,0.0,0.0,0.0,0.0,0.0,0.0,0.0,0.0,0.0,0.0,0.0,0.0,0.0,0.0,0.0,0.0,0.0,0.0,0.0,0.0,0.0,0.0,0.0,0.0,0.0,0.0,0.0,0.0,0.0,0.0,0.0,0.0,0.0,0.0,0.0,4.5603,4.5712,4.5708,4.5629,4.5708,4.5727,4.5618,4.5603,4.5692,0.0,0.0,0.0,0.0,0.0,0.0,0.0,0.0,0.0,0.0,0.0,0.0,0.0,0.0,0.0,0.0,0.0,0.0,0.0,0.0,0.0,0.0,0.0,0.0,0.0,0.0,0.0,0.0,0.0,0.0,0.0,0.0,0.0,0.0,0.0,0.0,0.0,0.0,0.0,0.0,0.0,4.4053,4.4215,4.3811,4.341,0.0,0.0,4.2231,4.1989,4.2143,0.0,0.0,0.0,0.0,0.0,0.0,0.0,0.0,0.0,0.0,0.0,0.0,0.0,0.0,0.0,0.0,0.0,0.0,0.0,0.0,0.0,0.0,0.0,0.0,0.0,0.0,0.0,0.0,0.0,0.0,0.0,0.0,0.0,0.0,0.0,0.0,0.0,0.0,0.0,0.0,0.0,0.0,0.0,0.0,0.0,0.0,0.0,0.0,0.0,0.0,0.0,0.0,0.0,0.0,0.0,4.5586,4.5603,4.5651,4.569,4.5699,4.569,4.57,4.5715,4.5654,4.568,0.0,0.0,0.0,0.0,0.0,0.0,0.0,0.0,0.0,0.0,0.0,0.0,0.0,0.0,0.0,0.0,0.0,0.0,0.0,0.0,0.0,0.0,0.0,0.0,0.0,0.0,0.0,0.0,0.0,0.0,0.0,0.0,0.0,0.0,0.0,0.0,0.0,0.0,0.0,0.0,0.0,0.0,4.4308,4.4237,0.0,0.0,0.0,4.3412,4.3523,0.0,0.0,0.0,0.0,0.0,0.0,0.0,0.0,0.0,0.0,0.0,0.0,0.0,0.0,0.0,0.0,0.0,0.0,0.0,0.0,0.0,0.0,0.0,0.0,0.0,0.0,0.0,0.0,0.0,0.0,0.0,0.0,0.0,0.0,0.0,0.0,0.0,0.0,0.0,0.0,0.0,0.0,0.0,0.0,0.0,0.0,0.0,0.0,0.0,0.0,0.0,0.0,0.0,0.0,0.0,0.0,0.0,4.5586,4.5586,4.5661,4.5757,4.5661,4.5654,4.5742,4.5671,0.0,0.0,0.0,0.0,0.0,0.0,0.0,0.0,0.0,0.0,0.0,0.0,0.0,0.0,0.0,0.0,0.0,0.0,0.0,0.0,0.0,0.0,0.0,0.0,0.0,0.0,0.0,4.2897,0.0,0.0,0.0,0.0,0.0,0.0,0.0,0.0,0.0,0.0,0.0,0.0,0.0,0.0,4.4346,4.4151,4.4374,4.443,0.0,0.0,4.4386,4.4656,4.4471,4.4532,0.0,0.0,0.0,0.0,0.0,0.0,0.0,0.0,0.0,0.0,0.0,0.0,0.0,0.0,0.0,0.0,0.0,0.0,0.0,0.0,0.0,0.0,0.0,0.0,0.0,0.0,0.0,0.0,0.0,0.0,0.0,0.0,0.0,0.0,0.0,0.0,0.0,0.0,0.0,0.0,0.0,0.0,0.0,0.0,0.0,0.0,0.0,0.0,0.0,0.0,0.0,0.0,0.0,0.0,0.0,4.5586,4.5586,4.5605,4.5605,4.5586,4.5603,4.5603,4.5603,4.6037,0.0,0.0,0.0,0.0,0.0,0.0,0.0,0.0,0.0,0.0,0.0,0.0,0.0,0.0,0.0,0.0,0.0,0.0,0.0,0.0,0.0,0.0,0.0,0.0,0.0,0.0,0.0,0.0,0.0,0.0,0.0,0.0,0.0,0.0,0.0,0.0,0.0,0.0,0.0,0.0,0.0,4.4289,4.3974,4.4109,4.4102,0.0,0.0,4.4669,4.4447,4.4872,4.522,4.5277,0.0,0.0,0.0,0.0,0.0,0.0,0.0,0.0,0.0,0.0,0.0,0.0,0.0,0.0,0.0,0.0,0.0,0.0,0.0,0.0,0.0,0.0,0.0,0.0,0.0,0.0,0.0,0.0,0.0,0.0,0.0,0.0,0.0,0.0,0.0,0.0,0.0,0.0,0.0,0.0,0.0,0.0,0.0,0.0,0.0,0.0,0.0,0.0,0.0,0.0,0.0,0.0,0.0,4.5586,4.5586,4.5586,4.5855,4.6374,4.6394,4.6624,4.7144,4.7124,4.7314,0.0,0.0,0.0,0.0,0.0,0.0,0.0,0.0,0.0,0.0,0.0,0.0,0.0,0.0,0.0,0.0,0.0,0.0,0.0,0.0,0.0,0.0,0.0,0.0,0.0,0.0,0.0,0.0,4.3795,4.3828,4.3936,0.0,0.0,0.0,0.0,0.0,0.0,0.0,0.0,0.0,0.0,4.4346,4.4162,4.4355,0.0,0.0,4.4591,4.5,4.4676,4.5422,4.5872,4.5373,4.5719,0.0,0.0,0.0,0.0,0.0,0.0,0.0,0.0,0.0,0.0,0.0,0.0,0.0,0.0,0.0,0.0,0.0,0.0,0.0,0.0,0.0,0.0,0.0,0.0,0.0,0.0,0.0,0.0,0.0,0.0,0.0,0.0,0.0,0.0,0.0,0.0,0.0,0.0,0.0,0.0,0.0,0.0,0.0,0.0,0.0,0.0,0.0,0.0,0.0,0.0,0.0,0.0,4.572,4.597,4.599,4.6394,4.7222,4.7278,4.7528,4.8067,4.8105,4.8221,0.0,0.0,0.0,0.0,0.0,0.0,0.0,0.0,0.0,0.0,0.0,0.0,0.0,0.0,0.0,0.0,0.0,0.0,0.0,0.0,0.0,0.0,0.0,0.0,0.0,0.0,0.0,0.0,4.4005,4.4048,4.421,0.0,0.0,0.0,0.0,0.0,0.0,0.0,0.0,0.0,0.0,4.4346,4.421,4.4618,4.4843,4.4524,4.5281,4.5833,4.5602,4.6313,4.6602,4.5774,0.0,0.0,0.0,0.0,0.0,0.0,0.0,0.0,0.0,0.0,0.0,0.0,0.0,0.0,0.0,0.0,0.0,0.0,0.0,0.0,0.0,0.0,0.0,0.0,0.0,0.0,0.0,0.0,0.0,0.0,0.0,0.0,0.0,0.0,0.0,0.0,0.0,0.0,0.0,0.0,0.0,0.0,0.0,0.0,0.0,0.0,0.0,0.0,0.0,0.0,0.0,0.0,0.0,0.0,4.6818,4.6837,4.726,4.803,4.8068,4.8086,4.8163,4.8125,4.8529,4.9336,0.0,0.0,0.0,0.0,0.0,0.0,0.0,0.0,0.0,0.0,0.0,0.0,0.0,0.0,0.0,0.0,0.0,0.0,0.0,0.0,0.0,0.0,0.0,0.0,0.0,0.0,4.4048,4.4005,4.4048,0.0,0.0,0.0,0.0,0.0,0.0,0.0,0.0,0.0,0.0,4.424,4.4298,4.3998,4.489,4.5506,4.5326,4.6439,4.7327,4.729,4.7556,4.7484,0.0,0.0,0.0,0.0,0.0,0.0,0.0,0.0,0.0,0.0,0.0,0.0,0.0,0.0,0.0,0.0,0.0,0.0,0.0,0.0,0.0,0.0,0.0,0.0,0.0,0.0,0.0,3.891,3.891,0.0,0.0,0.0,0.0,0.0,0.0,0.0,0.0,0.0,0.0,0.0,3.9571,3.954,0.0,0.0,0.0,0.0,0.0,0.0,0.0,0.0,0.0,0.0,0.0,0.0,4.6259,4.6585,4.695,4.7543,4.8348,4.8605,4.896,4.9477,4.97,4.9933,5.0181,0.0,0.0,0.0,0.0,0.0,0.0,0.0,0.0,0.0,0.0,0.0,0.0,0.0,0.0,0.0,0.0,0.0,0.0,0.0,0.0,0.0,0.0,0.0,0.0,0.0,4.4546,0.0,0.0,0.0,0.0,0.0,0.0,0.0,0.0,0.0,0.0,0.0,4.5175,4.5602,4.5736,4.5767,4.5626,4.6004,4.6228,0.0,0.0,0.0,0.0,0.0,0.0,0.0,0.0,0.0,0.0,0.0,0.0,0.0,0.0,4.6615,4.5507,4.5067,4.4857,4.4857,0.0,0.0,0.0,0.0,0.0,0.0,0.0,0.0,0.0,0.0,0.0,0.0,0.0,0.0,0.0,0.0,3.8851,0.0,0.0,0.0,0.0,0.0,0.0,0.0,0.0,3.9185,3.9595,4.0304,4.0304,4.0744,0.0,4.1534,4.1756,0.0,0.0,0.0,0.0,0.0,0.0,0.0,0.0,4.6553,4.7124,4.7505,4.8128,4.8932,4.9163,4.951,5.0024,5.0355,5.0502,5.0521,5.0478,5.0435,0.0,0.0,0.0,0.0,0.0,0.0,0.0,0.0,0.0,0.0,0.0,0.0,0.0,0.0,0.0,0.0,0.0,0.0,0.0,0.0,0.0,0.0,0.0,4.5466,0.0,0.0,0.0,0.0,0.0,0.0,0.0,0.0,0.0,4.6119,4.5867,4.5904,4.642,4.6513,4.6527,4.6619,0.0,0.0,0.0,0.0,0.0,0.0,0.0,4.8987,4.8353,4.8716,4.8812,4.7952,4.7799,4.7799,4.7799,0.0,0.0,4.6366,4.6156,4.6156,4.6175,4.5633,4.5293,4.5621,4.5323,4.5119,0.0,0.0,0.0,0.0,0.0,0.0,0.0,0.0,3.8689,3.8707,0.0,3.8762,0.0,0.0,0.0,0.0,0.0,0.0,0.0,0.0,3.9918,4.0359,4.1097,4.1115,4.1537,4.2304,4.2341,4.2708,4.3403,4.2791,0.0,0.0,0.0,0.0,0.0,0.0,4.6871,4.8412,4.8499,4.8897,4.9719,4.9757,4.9803,4.9784,4.9993,5.0178,5.0348,5.0348,5.0325,5.0259,5.024,0.0,0.0,0.0,0.0,0.0,0.0,0.0,0.0,0.0,0.0,0.0,0.0,0.0,0.0,0.0,0.0,0.0,0.0,0.0,0.0,4.7052,0.0,0.0,0.0,0.0,0.0,0.0,0.0,0.0,0.0,0.0,4.6934,4.6712,4.6557,4.6605,0.0,0.0,0.0,0.0,4.8575,4.872,4.9659,5.0264,5.024,5.0259,5.0011,4.9251,0.0,0.0,4.8044,4.7895,4.7933,4.7895,4.7971,4.7876,4.7895,4.778,4.7723,4.7723,4.7467,4.7391,4.7365,4.6981,4.6817,3.7738,0.0,0.0,0.0,0.0,3.8285,3.8451,3.8707,3.8707,3.8707,3.8707,3.8738,0.0,0.0,0.0,0.0,0.0,0.0,4.0474,4.061,4.0628,4.1016,4.1752,4.1734,4.2207,4.3063,4.3063,4.3226,4.3479,4.3275,4.341,4.3809,0.0,0.0,0.0,0.0,4.772,4.8209,4.8578,4.8912,4.9155,4.9377,4.955,4.9645,4.9728,4.9728,4.9683,4.9683,4.9655,4.9599,4.9797,0.0,0.0,0.0,0.0,0.0,0.0,0.0,0.0,0.0,0.0,0.0,0.0,0.0,0.0,0.0,0.0,0.0,0.0,0.0,4.7384,4.7099,4.6899,0.0,0.0,0.0,0.0,0.0,0.0,0.0,0.0,0.0,4.8503,4.7849,4.7556,0.0,0.0,4.8203,4.8252,4.842,4.8584,4.8665,0.0,0.0,0.0,4.9788,4.9947,4.9968,4.9958,4.9858,4.9633,4.9595,4.9595,4.9576,4.9576,4.9595,4.9538,4.8602,4.7876,4.7777,4.7732,4.7619,4.7454,4.746,4.7485,3.6999,3.7017,3.756,3.7843,3.8016,3.7913,3.8101,3.8501,3.8812,3.894,3.8976,3.9452,3.9662,3.968,4.0107,0.0,0.0,0.0,4.1107,4.1332,4.1332,4.1736,4.2467,4.2485,4.2812,4.3376,4.3394,4.3446,4.3479,4.3809,4.4009,4.4062,0.0,0.0,4.6352,4.7404,4.8109,4.8426,4.8751,4.889,4.889,4.9061,4.9252,4.9405,4.9356,4.9375,4.9375,4.9375,4.9345,4.9314,4.9485,4.9595,0.0,0.0,0.0,0.0,0.0,0.0,0.0,0.0,0.0,0.0,0.0,4.8358,0.0,0.0,0.0,0.0,4.8485,4.846,4.8172,4.8089,0.0,0.0,0.0,0.0,0.0,0.0,0.0,4.7845,4.8469,4.8971,4.9005,4.8513,4.8298,4.8767,4.8839,4.8943,4.8959,0.0,4.8834,4.8971,4.9001,4.908,4.9252,4.9569,4.9914,5.0255,5.0302,5.0302,5.0302,5.0302,5.0302,5.0302,5.0302,5.0302,5.0302,4.9461,4.8793,4.8793,4.8793,4.8747,4.8585,4.87,4.8747,3.6582,3.6397,3.7058,3.7576,3.7845,3.7613,3.7829,3.8303,3.9061,3.9422,3.9527,4.0613,4.1115,4.117,4.1049,0.0,4.1055,4.1024,4.1409,4.2102,4.2085,4.2468,4.316,4.316,4.3251,4.3394,4.3449,4.3503,4.3626,4.4415,4.4801,4.4856,4.5033,4.5946,4.7509,4.7707,4.8166,4.889,4.889,4.889,4.889,4.8822,4.889,4.9071,4.8971,4.9038,4.9209,4.9221,4.9221,4.9221,4.924,4.9259,4.9271,0.0,0.0,0.0,0.0,0.0,0.0,0.0,0.0,0.0,0.0,0.0,0.0,0.0,0.0,0.0,4.9776,0.0,4.9424,4.9646,0.0,0.0,0.0,4.9646,4.9252,4.8949,4.8869,4.8956,0.0,0.0,4.8751,0.0,4.8765,4.8787,4.8857,4.8959,4.9118,4.9071,4.9169,4.9389,4.9352,4.9271,4.9221,4.9513,4.9828,5.0106,5.0236,5.0236,5.0236,5.0302,5.0302,5.0255,5.0278,5.0236,5.0236,5.0159,5.0259,5.0206,5.0225,5.0245,5.0164,5.0264,5.0321,3.7621,3.7575,3.7751,3.7802,3.776,3.7777,3.8528,3.9716,3.9986,4.0324,4.0687,4.0987,4.1427,4.1946,4.1789,4.2064,4.2667,4.2631,4.2704,4.2832,4.285,4.2905,4.2957,4.2975,4.305,4.3269,4.3871,4.4272,4.4452,4.5223,4.5772,4.5994,4.6072,4.658,4.7441,4.8175,4.8653,4.889,4.889,4.889,4.889,4.8839,4.8768,4.8731,4.8642,4.8605,4.855,4.8513,4.855,4.8532,4.8772,4.8916,4.8919,4.9104,0.0,0.0,0.0,0.0,0.0,0.0,0.0,0.0,0.0,4.9822,5.0095,0.0,4.9693,0.0,4.957,4.9599,5.0006,4.9903,0.0,0.0,4.9618,4.9453,4.864,4.8676,4.8711,4.8476,4.8458,4.8532,4.8587,4.8605,4.8623,4.8569,4.8715,4.8804,4.8767,4.866,4.8678,4.88,4.8885,4.8934,4.8967,4.9215,4.9447,4.9522,4.9749,4.9929,4.9929,5.0144,5.0212,4.9981,4.991,4.991,4.991,4.991,5.0025,5.0236,5.0302,5.0302,5.0302,5.0818,5.1276,3.795,3.801,3.798,3.8069,3.8287,3.8104,3.8796,3.9978,4.0374,4.0835,4.1355,4.1841,4.2297,4.2717,4.2558,4.2741,4.3142,4.3105,4.305,4.3012,4.2994,4.2956,4.29,4.29,4.3194,4.3743,4.3975,4.4375,4.4909,4.5539,4.6019,4.6372,4.6573,4.6962,4.7589,4.8181,4.8605,4.8839,4.8874,4.889,4.8909,4.8768,4.8678,4.8587,4.8476,4.8381,4.8324,4.8324,4.8324,4.8324,4.884,4.8973,4.8605,4.8987,4.9193,0.0,0.0,0.0,0.0,0.0,0.0,0.0,0.0,0.0,0.0,0.0,4.9711,0.0,4.9768,4.9822,5.0212,4.9948,4.9618,4.9314,4.9333,4.908,4.8364,4.8476,4.8495,4.8344,4.8344,4.8438,4.8494,4.8513,4.855,4.8513,4.8587,4.866,4.8605,4.855,4.8532,4.8587,4.8569,4.866,4.8771,4.8959,4.916,4.9284,4.944,4.957,4.957,4.9749,4.983,4.9803,4.9803,4.9857,4.9981,5.0368,5.0666,5.0866,5.1181,5.1257,5.0971,5.1257,5.1677,3.8207,3.8252,3.8207,3.8565,3.9089,3.8635,3.8997,3.9921,4.0495,4.1123,4.1775,4.2741,4.3269,4.3359,4.3178,4.3067,4.3049,4.2956,4.29,4.29,4.29,4.29,4.29,4.2918,4.3449,4.4307,4.4086,4.4475,4.5377,4.576,4.6137,4.647,4.6704,4.7089,4.7567,4.7797,4.8192,4.866,4.8785,4.8876,4.8987,4.8769,4.8679,4.8735,4.8475,4.8306,4.8324,4.8324,4.8324,4.8343,4.9044,4.9081,4.8361,4.8776,4.8912,0.0,4.8428,0.0,0.0,0.0,0.0,0.0,0.0,0.0,0.0,4.9446,4.9805,5.0076,5.0038,5.0082,5.0095,4.9822,4.9502,4.924,4.8949,4.8658,4.8344,4.8324,4.8324,4.8324,4.8324,4.8344,4.8457,4.8493,4.8473,4.8475,4.8457,4.8513,4.8569,4.855,4.8532,4.8587,4.8439,4.8418,4.8621,4.8698,4.8825,4.9067,4.9201,4.924,4.9221,4.9283,4.9394,4.9599,4.9674,4.9841,5.019,5.0875,5.144,5.1541,5.2075,5.2392,5.1921,5.1945,5.2155,3.9714,3.9697,3.9648,3.9749,3.9851,3.9765,4.0086,4.0669,4.0934,4.1513,4.2382,4.2884,4.3141,4.3141,4.2994,4.2938,4.2938,4.29,4.29,4.29,4.29,4.29,4.29,4.3119,4.3441,4.3899,4.5025,4.5794,4.6155,4.6892,4.7119,4.6829,4.6466,4.6411,4.6507,0.0,0.0,0.0,4.8345,4.8827,4.9472,4.9048,4.9029,4.9621,4.8882,0.0,4.8306,4.8324,4.8324,4.8324,4.8453,0.0,0.0,0.0,0.0,0.0,0.0,0.0,0.0,0.0,0.0,0.0,4.8704,4.8996,4.8963,4.9358,4.9731,5.0001,4.9824,4.9703,4.9712,4.9363,4.9029,4.8832,4.8765,4.8605,4.8344,4.8324,4.8324,4.8324,4.8324,4.8306,4.8324,4.8324,4.8324,4.8363,4.8344,4.842,4.8587,4.855,4.8532,4.8569,4.842,4.8324,4.8379,4.8419,4.8438,4.8493,4.8715,4.8866,4.89,4.9113,4.9177,4.9099,4.9209,4.9546,4.9987,5.0416,5.1051,5.1575,5.2106,5.2425,5.2564,5.3129,5.3683,4.0087,0.0,4.0087,4.0087,0.0,4.0087,4.0254,4.0546,4.0814,4.1525,4.248,4.2862,4.3049,4.3104,4.2938,4.29,4.29,4.29,4.29,4.2918,4.303,4.3113,4.3131,4.3489,4.3935,4.451,4.5078,4.5748,4.6302,4.6465,4.6519,4.6537,4.6055,4.5955,4.6186,4.6266,4.6918,4.8172,4.8345,4.8716,4.927,4.8955,4.9176,4.988,0.0,0.0,0.0,0.0,0.0,0.0,0.0,0.0,0.0,0.0,0.0,4.9489,4.9318,4.9259,4.9404,4.9095,4.8757,4.8593,4.8394,4.855,4.9168,4.9402,4.9625,4.9917,4.9843,4.9674,4.9539,4.9227,4.89,4.873,4.855,4.8402,4.8306,4.8324,4.8324,4.8324,4.8324,4.8324,4.8324,4.7922,4.7903,4.8196,4.7957,4.7959,4.8477,4.8569,4.8494,4.855,4.8438,4.8324,4.8324,4.8324,4.8324,4.8344,4.8421,4.8532,4.855,4.8676,4.8816,4.88,4.9266,4.978,5.0225,5.1031,5.1907,5.2534,5.3108,5.3642,5.397,5.4104,5.4256,4.0121,4.0087,4.0138,4.0138,4.0087,4.0087,4.0087,4.0121,0.0,0.0,0.0,4.2768,4.2956,4.3067,4.2844,4.275,4.2768,4.2817,4.285,4.2868,4.3197,4.3383,4.3419,4.387,4.4483,4.5176,4.508,4.5404,4.6168,4.5752,4.5752,4.6087,4.5649,4.5597,4.5895,4.5745,4.6358,4.7693,4.8027,4.8401,4.8827,4.8918,4.9307,5.0121,4.9989,5.0225,5.083,5.0824,5.082,5.082,5.1424,5.1505,5.0874,5.1161,5.1103,5.0478,5.0198,5.009,5.0071,4.9474,4.913,4.9112,4.8514,4.8473,4.9278,4.9309,4.9427,4.9776,4.9749,4.9627,4.9389,4.9005,4.873,4.8605,4.8344,4.8226,4.8267,4.8324,4.8324,4.8306,4.8139,4.8086,4.8031,4.7555,4.7334,4.7847,4.7719,4.7684,4.855,4.8661,4.8513,4.8532,4.8401,4.8324,4.8324,4.8324,4.8324,4.8324,4.8453,4.8526,4.8526,4.8636,4.8825,4.9251,4.9766,5.0335,5.0785,5.1862,5.3009,5.3438,5.4094,5.4678,5.4952,5.4577,5.4432,4.0188,4.0121,4.0238,4.0188,4.0087,4.0087,4.0087,4.0171,4.1001,4.17,4.2257,4.2711,4.29,4.29,4.2516,4.2297,4.2292,4.2536,4.2634,0.0,4.3346,4.3733,4.3895,4.4195,4.4537,4.4883,4.5431,4.5884,4.6151,4.6087,4.6137,4.6119,4.5667,4.5234,4.4931,4.5058,4.5145,4.5312,4.6625,4.7738,4.8702,4.9273,4.9855,5.0508,5.078,5.0853,5.0824,5.082,5.082,5.082,5.093,5.093,5.0824,5.0678,5.0522,5.0434,5.0218,5.009,5.0108,4.9981,4.9927,4.9908,4.98,4.9397,4.8553,4.8733,4.9027,4.9428,4.916,4.8926,4.8847,4.8327,4.7992,4.8111,4.8053,4.8111,4.8267,4.8269,4.8269,4.8251,4.7679,4.7296,4.7243,4.7131,4.7074,4.7314,4.7829,4.8511,4.9252,4.9049,4.8642,4.8569,4.842,4.8306,4.8489,4.8343,4.8471,4.8324,4.8985,4.937,4.9352,4.9829,5.0254,5.0459,5.0786,5.1194,5.1653,5.2195,5.279,5.325,5.3683,5.3959,5.41,5.418,5.4503,4.037,4.032,4.0387,4.0387,4.0337,4.0238,4.0483,4.0972,4.1428,4.1674,4.1888,4.2693,4.3068,4.303,4.3278,4.3264,4.3018,4.3618,4.3713,4.3497,4.3938,4.4209,4.4345,4.4644,4.4923,4.5027,4.5439,4.5664,4.5717,4.5386,4.5177,4.5109,4.4491,4.4111,4.39,4.4094,4.422,4.4343,4.5441,4.6837,4.8565,4.8877,4.9896,5.1595,5.1745,5.1946,5.2272,5.2169,5.2123,5.2105,5.21,5.21,5.2064,5.1846,5.171,5.17,5.1511,5.1411,5.1393,5.0977,5.0542,5.0144,5.009,4.9854,4.9336,4.9179,4.912,4.9083,4.8902,4.8744,4.8568,4.821,4.801,4.7947,4.7988,4.8072,4.8135,4.7864,4.7662,4.7587,4.6962,4.645,4.645,4.647,4.6635,4.7095,4.8235,4.9362,4.9861,4.9954,4.9935,4.9954,4.9763,4.9664,4.9627,4.9664,4.9664,4.9664,4.9976,5.0215,5.0215,5.0618,5.0784,5.0857,5.1256,5.1719,5.2036,5.2467,5.2987,5.3392,5.3595,5.3757,5.3981,5.4185,5.4463,4.0534,4.0485,4.0534,4.0534,4.0517,4.0597,4.1007,4.1561,4.1821,4.1927,4.199,4.2886,4.321,4.3168,4.3851,4.3976,4.3786,4.4377,4.4483,4.4202,4.4533,4.4697,4.4749,4.5078,4.5247,4.5213,4.5198,4.5165,4.5096,4.4406,4.4078,4.4059,4.3541,4.321,4.3103,4.331,4.3413,4.3532,4.436,4.5954,4.8157,4.8529,4.9878,5.2232,5.2562,5.2871,5.3422,5.3272,5.3206,5.3206,5.3206,5.3206,5.3164,5.2923,5.2817,5.2762,5.2589,5.2498,5.2462,5.1919,5.1285,5.0687,5.0633,5.0578,5.0361,5.0034,4.9575,4.9067,4.8952,4.8788,4.8401,4.8208,4.8017,4.7725,4.7692,4.763,4.7602,4.7148,4.6837,4.6762,4.6119,4.57,4.5844,4.5918,4.6416,4.772,4.914,5.0138,5.0434,5.1006,5.1376,5.1484,5.1219,5.0729,5.082,5.0747,5.071,5.082,5.0949,5.1041,5.1096,5.1187,5.1371,5.1536,5.1867,5.2275,5.2325,5.2729,5.3188,5.3469,5.3529,5.365,5.3875,5.4054,5.4281,4.0583,4.0534,4.0648,4.06,4.0614,4.1356,4.1516,4.1348,4.218,4.2708,4.2924,4.3429,4.3411,4.3058,4.3441,4.3623,4.3598,4.387,4.401,4.4044,4.4641,4.502,4.5094,4.5178,4.5247,4.5233,4.4699,4.4389,4.4354,4.368,4.3417,4.3579,4.3492,4.3171,4.2829,4.2986,4.2803,4.2121,4.3427,4.5228,4.7482,4.8607,5.0057,5.1985,5.292,5.3348,5.3359,5.323,5.3206,5.3206,5.3206,5.3206,5.3164,5.2974,5.2826,5.278,5.2607,5.2498,5.2498,5.2426,5.2299,5.2281,5.219,5.1909,5.1256,5.114,5.0605,4.97,4.9367,4.8999,4.8357,4.7974,4.7461,4.6884,4.6855,4.6681,4.623,4.603,4.6012,4.6012,4.5389,4.5077,4.5754,4.6011,4.6911,4.8877,5.0172,5.1172,5.1747,5.204,5.2391,5.2684,5.1974,5.1004,5.0967,5.0839,5.1022,5.1004,5.1463,5.1793,5.1977,5.2399,5.2949,5.2546,5.2858,5.2949,5.3004,5.3188,5.3188,5.328,5.3285,5.3267,5.334,5.3558,5.387,4.0793,4.0745,4.0793,4.0745,4.071,4.1293,4.1587,4.1725,4.24,4.3026,4.366,4.402,4.4046,4.3802,4.4491,4.4613,4.4397,4.4968,4.5079,4.4835,4.5127,4.5024,4.4716,4.4682,4.4475,4.4113,4.3768,4.363,4.3542,4.3019,4.2541,4.2183,4.2306,4.2286,4.2078,4.2282,4.221,4.1952,4.3114,4.4928,4.7307,4.8802,5.063,5.28,5.3373,5.3481,5.3418,5.3272,5.3206,5.3206,5.3206,5.3206,5.3206,5.2974,5.2808,5.278,5.2589,5.2498,5.2498,5.2498,5.2498,5.2498,5.2498,5.2353,5.2072,5.2036,5.1583,5.0633,4.9644,4.8792,4.8075,4.7466,4.6807,4.6157,4.6114,4.6119,4.5846,4.5444,4.5351,4.5736,4.5222,4.5018,4.5826,4.6746,4.7922,4.9522,5.0855,5.1948,5.234,5.2765,5.3209,5.3333,5.2751,5.2353,5.2179,5.2215,5.2197,5.227,5.2491,5.2711,5.2747,5.2913,5.3206,5.3206,5.3206,5.3206,5.317,5.3206,5.3206,5.3206,5.3206,5.3206,5.3206,5.3295,5.3481,4.0918,4.0965,4.0948,4.0871,4.0823,4.1338,4.1743,4.2038,4.24,4.3192,4.4183,4.4321,4.4556,4.4862,4.5393,4.5387,4.5152,4.5676,4.563,4.513,4.5113,4.4699,4.4044,4.3975,4.3749,4.3249,4.2957,4.2783,4.2656,4.228,4.183,4.1461,4.1587,4.1736,4.1823,4.1934,4.2002,4.2072,4.3072,4.4899,4.7331,4.8937,5.0969,5.3362,5.3579,5.3499,5.3499,5.3314,5.3206,5.3206,5.3206,5.3206,5.3164,5.2955,5.2834,5.2735,5.2599,5.2526,5.2498,5.2498,5.2498,5.2498,5.2498,5.2498,5.2498,5.2498,5.2235,5.1628,5.0361,4.93,4.8466,4.7728,4.703,4.6285,4.6189,4.6065,4.5791,4.5279,4.5314,4.5735,4.5423,4.544,4.6507,4.7978,4.943,5.0409,5.1685,5.2671,5.2767,5.3288,5.3637,5.3539,5.34,5.33,5.3206,5.3078,5.3206,5.3206,5.3151,5.3133,5.3206,5.3206,5.3206,5.3206,5.3206,5.3206,5.3206,5.3206,5.3206,5.3206,5.3206,5.3206,5.3206,5.3206,5.3206,4.1012,4.1163,4.1209,4.1088,4.0965,4.1796,4.2157,4.2198,4.2239,4.3096,4.44,4.4137,4.4771,4.5989,4.5645,4.5442,4.5407,4.5441,4.5079,4.444,4.4389,4.394,4.3251,4.3283,4.3232,4.2923,4.2337,4.186,4.1406,4.1331,4.1471,4.1831,4.1874,4.2019,4.2205,4.2246,4.2287,4.2358,4.3414,4.5114,4.7339,4.8948,5.089,5.3083,5.344,5.3499,5.3499,5.3314,5.3206,5.3206,5.3206,5.3206,5.3164,5.306,5.2893,5.2672,5.2608,5.2581,5.2526,5.248,5.2498,5.2498,5.2498,5.2498,5.2498,5.2498,5.2444,5.2408,5.1601,5.0805,5.0079,4.9077,4.8379,4.7634,4.7174,4.6559,4.5864,4.5792,4.5827,4.5952,4.5936,4.647,4.7926,4.9661,5.0674,5.1639,5.2736,5.341,5.3431,5.36,5.3637,5.3539,5.3499,5.3418,5.3248,5.3206,5.3206,5.3206,5.3206,5.3206,5.3206,5.3206,5.3206,5.3206,5.3206,5.3206,5.3206,5.3206,5.3206,5.3206,5.3206,5.3206,5.3206,5.3206,5.3206,4.1363,4.1453,4.1453,4.1318,4.1209,4.2032,4.232,4.2257,4.2808,4.3904,4.5134,4.4952,4.5602,4.7035,4.5703,4.5416,4.587,4.5563,4.501,4.4337,4.4337,4.363,4.2492,4.2406,4.213,4.1698,4.1471,4.1289,4.1244,4.1507,4.1744,4.1892,4.2079,4.2205,4.2287,4.2287,4.2287,4.2453,4.3644,4.5298,4.7178,4.9107,5.1064,5.2877,5.3418,5.3598,5.3499,5.3318,5.3254,5.3206,5.3206,5.3206,5.3206,5.3091,5.2944,5.2743,5.2698,5.2672,5.2581,5.2563,5.2554,5.248,5.2498,5.2498,5.2498,5.248,5.249,5.2518,5.2354,5.1991,5.1471,4.9804,4.8115,4.7393,4.6724,4.6286,4.5957,4.5902,4.6103,4.6561,4.6838,4.7414,4.8375,4.9474,5.0413,5.1308,5.2456,5.3166,5.344,5.3619,5.3716,5.3637,5.3616,5.3558,5.3437,5.3295,5.3254,5.3206,5.3206,5.3206,5.3206,5.3206,5.3206,5.3206,5.3206,5.3206,5.3206,5.3206,5.3206,5.3206,5.3206,5.3206,5.3206,5.3206,5.3206,4.1692,4.1604,4.1675,4.1542,4.1436,4.2074,4.24,4.2418,4.2976,4.4053,4.5076,4.5012,4.5639,4.6535,4.564,4.5409,4.5833,4.5187,4.437,4.3746,4.3694,4.3068,4.1994,4.1708,4.1419,4.1081,4.0995,4.1134,4.1436,4.1744,4.1934,4.2061,4.2246,4.2287,4.2287,4.2287,4.2287,4.2537,4.3607,4.5088,4.6972,4.8955,5.0933,5.2583,5.3418,5.3637,5.3499,5.3359,5.3295,5.3206,5.3206,5.3206,5.3206,5.3091,5.303,5.2893,5.2868,5.2806,5.2698,5.2654,5.2627,5.2599,5.2618,5.2572,5.2599,5.257,5.2636,5.2644,5.2667,5.2729,5.2375,5.066,4.8967,4.8224,4.7534,4.6966,4.6728,4.6691,4.6873,4.7145,4.7238,4.7756,4.8721,4.9335,5.0211,5.1207,5.2353,5.295,5.3258,5.3462,5.3697,5.3695,5.3695,5.3637,5.3558,5.3459,5.3378,5.3314,5.3206,5.3206,5.3206,5.3206,5.3206,5.3206,5.3206,5.3206,5.3206,5.3206,5.3206,5.3206,5.3206,5.3206,5.3206,5.3206,5.3206,4.1805,4.1692,4.1805,4.1805,4.1675,4.211,4.2418,4.2673,4.2732,4.3411,4.4381,4.4305,4.4851,4.5319,4.5294,4.5298,4.521,4.419,4.3271,4.2683,4.2631,4.2288,4.1638,4.1273,4.1163,4.1209,4.1209,4.1436,4.1831,4.1917,4.2061,4.2246,4.2287,4.2287,4.2287,4.2287,4.2305,4.2614,4.3304,4.4804,4.6873,4.8634,5.0514,5.2601,5.3462,5.3697,5.3539,5.34,5.3295,5.3188,5.3206,5.3206,5.3206,5.3206,5.3146,5.3042,5.298,5.2955,5.2824,5.2824,5.2806,5.2761,5.2779,5.2789,5.2763,5.2771,5.2808,5.2806,5.2816,5.2865,5.2852,5.2139,5.1188,5.0602,4.9588,4.8857,4.8324,4.8196,4.8093,4.7614,4.722,4.756,4.872,4.9361,5.0079,5.1395,5.2281,5.2769,5.3133,5.33,5.3459,5.3656,5.3773,5.3697,5.3658,5.3579,5.3499,5.3378,5.3272,5.3206,5.3188,5.3188,5.3206,5.3206,5.3206,5.3206,5.3206,5.3206,5.3206,5.3206,5.3206,5.3206,5.3206,5.3206,5.3206,4.2145,4.2061,4.2145,4.2019,4.1892,4.2292,4.2573,4.275,4.2976,4.3724,4.4597,4.4743,4.5185,4.5535,4.504,4.4636,4.458,4.3566,4.2988,4.2953,4.2935,4.2441,4.1727,4.1471,4.1426,4.1515,4.1613,4.1744,4.1917,4.2061,4.2246,4.2287,4.2287,4.2287,4.2287,4.2305,4.2507,4.3161,4.3864,4.5523,4.7983,4.9374,5.1018,5.2936,5.3542,5.3736,5.3637,5.3499,5.34,5.3295,5.3248,5.3206,5.3206,5.3206,5.3182,5.3146,5.3146,5.3103,5.2955,5.2937,5.2912,5.2824,5.2806,5.2806,5.2779,5.2808,5.286,5.2926,5.2938,5.3017,5.3054,5.2944,5.2132,5.0872,5.0068,4.9279,4.8453,4.7991,4.7776,4.7542,4.6898,4.7029,4.7943,4.8588,4.9482,5.0649,5.1652,5.2445,5.2875,5.3133,5.344,5.3716,5.3774,5.3756,5.3736,5.3676,5.3637,5.3499,5.3378,5.3254,5.3254,5.323,5.3206,5.3206,5.3206,5.3206,5.3206,5.3206,5.3206,5.3206,5.3206,5.3206,5.3206,5.3206,5.3206,4.2287,4.2287,4.2287,4.2187,4.2061,4.2351,4.2591,4.275,4.3105,4.3738,4.4334,4.4543,4.4853,4.5134,4.4485,4.4195,4.4085,4.3503,4.3269,4.3282,4.3007,4.2488,4.1927,4.1874,4.1805,4.1762,4.1959,4.2086,4.2061,4.2205,4.2287,4.2287,4.2287,4.2287,4.2382,4.2754,4.3212,4.3601,4.4659,4.6218,4.8097,4.9669,5.1193,5.2692,5.3473,5.3774,5.3716,5.3656,5.3499,5.3336,5.323,5.3206,5.3206,5.3206,5.3206,5.3206,5.3206,5.3164,5.3103,5.306,5.306,5.2955,5.2955,5.2955,5.2962,5.2955,5.298,5.3072,5.3054,5.3091,5.3206,5.3206,5.2472,5.0967,5.038,4.9536,4.8543,4.7725,4.7389,4.715,4.6595,4.663,4.7259,4.7925,4.8809,4.9915,5.0937,5.2033,5.2481,5.2831,5.3198,5.3502,5.36,5.3678,5.3774,5.3793,5.3716,5.3637,5.3459,5.3359,5.3258,5.323,5.3206,5.3206,5.3206,5.3206,5.3206,5.3206,5.3206,5.3206,5.3206,5.3206,5.3206,5.3206,5.3206,4.2328,4.2287,4.231,4.2328,4.2287,4.2328,4.2454,4.2711,4.2995,4.334,4.3569,4.3878,4.3957,4.3971,4.4013,4.3976,4.3974,4.3947,4.3749,4.3446,4.2992,4.249,4.2287,4.2274,4.2234,4.2068,4.2274,4.2374,4.231,4.2351,4.2328,4.2351,4.2351,4.2382,4.266,4.3458,4.3862,4.4147,4.5431,4.6685,4.7809,4.9432,5.0973,5.2217,5.3232,5.3813,5.3774,5.3676,5.3558,5.3318,5.323,5.3206,5.3206,5.3206,5.3206,5.3206,5.3206,5.3206,5.3206,5.3164,5.3164,5.3164,5.3164,5.3206,5.3164,5.3164,5.3164,5.3146,5.3188,5.3206,5.3206,5.3078,5.2289,5.1022,5.0343,4.9627,4.8488,4.7479,4.7083,4.6892,4.6336,4.609,4.6932,4.7519,4.8462,4.9483,5.0182,5.1113,5.2127,5.2514,5.2773,5.3143,5.3542,5.3639,5.3774,5.3813,5.3793,5.3697,5.3579,5.344,5.33,5.3254,5.3206,5.3206,5.3206,5.3206,5.3206,5.3206,5.3206,5.3206,5.3206,5.3206,5.3206,5.3206,5.3206,4.2729,4.2486,4.2729,4.2595,4.2328,4.2287,4.2454,4.2711,4.2788,4.316,4.3495,4.3649,4.3814,4.3955,4.3974,4.3974,4.4005,4.4005,4.386,4.3631,4.3442,4.2884,4.2454,4.2516,4.2577,4.2498,4.2595,4.2634,4.2595,4.2573,4.2631,4.2613,4.2645,4.2954,4.348,4.3884,4.4608,4.5435,4.5961,4.7296,4.888,4.9819,5.1077,5.2417,5.331,5.3757,5.3774,5.3658,5.3499,5.3318,5.323,5.3206,5.3206,5.3206,5.3206,5.3206,5.3206,5.3206,5.3206,5.3206,5.3206,5.3206,5.3206,5.3206,5.3206,5.3206,5.3206,5.3206,5.3206,5.3206,5.3133,5.2674,5.1591,5.0178,4.9499,4.8912,4.8339,4.7516,4.696,4.7053,4.6385,4.6265,4.6671,4.7351,4.8022,4.8722,4.9353,5.0145,5.1312,5.2014,5.2174,5.3216,5.3717,5.3756,5.3774,5.3813,5.3813,5.3774,5.3697,5.3598,5.3418,5.3295,5.323,5.3206,5.3206,5.3206,5.3206,5.3206,5.3206,5.3206,5.3206,5.3206,5.3206,5.3206,5.3206,4.2976,4.2768,4.3105,4.3069,4.277,4.277,4.2808,4.2902,4.3032,4.3249,4.3579,4.373,4.3878,4.3986,4.4005,4.4005,4.4005,4.4005,4.391,4.3795,4.3664,4.3232,4.2882,4.2939,4.3014,4.2939,4.305,4.3014,4.2902,4.2788,4.2969,4.3353,4.3294,4.3689,4.4411,4.5142,4.5624,4.6323,4.6809,4.7937,4.9102,4.9781,5.078,5.1992,5.2884,5.3404,5.3682,5.3658,5.3499,5.3318,5.3212,5.3206,5.3206,5.3206,5.3206,5.3206,5.3206,5.3206,5.3206,5.3206,5.3206,5.3206,5.3206,5.3206,5.3206,5.3206,5.3206,5.3206,5.3206,5.3206,5.3023,5.2238,5.1048,4.9871,4.882,4.8323,4.8363,4.738,4.6998,4.7008,4.6673,4.6213,4.659,4.7157,4.7672,4.8157,4.8603,4.9539,5.056,5.1038,5.1779,5.2795,5.353,5.3565,5.3699,5.3813,5.3813,5.3813,5.3736,5.3637,5.3518,5.3336,5.3272,5.3188,5.3206,5.3206,5.3206,5.3206,5.3206,5.3206,5.3206,5.3206,5.3206,5.3206,5.3206,4.3212,4.3231,4.352,4.3586,4.3422,4.3406,4.3301,4.3321,4.3408,4.3526,4.3646,4.3878,4.3942,4.4005,4.4005,4.4005,4.4005,4.4005,4.4005,4.3892,4.3744,4.3495,4.3321,4.3408,4.3391,4.3304,4.3495,4.3536,4.3451,4.3176,4.3576,4.4253,4.434,4.4621,4.5449,4.6543,4.6893,4.6912,4.7665,4.8255,4.8768,4.9418,5.0397,5.1473,5.2568,5.3237,5.3626,5.3716,5.3616,5.3341,5.323,5.3206,5.3206,5.3206,5.3206,5.3206,5.3206,5.3206,5.3206,5.3206,5.3206,5.3206,5.3206,5.3206,5.3206,5.3206,5.3206,5.3206,5.3188,5.3083,5.2569,5.1603,5.0501,4.9505,4.8655,4.832,4.8208,4.7335,4.6781,4.7273,4.6908,4.6637,4.6684,4.6877,4.7247,4.764,4.8107,4.883,4.9673,5.0282,5.1188,5.2315,5.2913,5.3315,5.3565,5.3813,5.3813,5.3813,5.3736,5.3676,5.3558,5.3378,5.3295,5.3254,5.3254,5.323,5.3206,5.3206,5.3206,5.3206,5.3206,5.3206,5.3206,5.3206,5.3206,4.3924,4.3689,4.4035,4.3924,4.3586,4.3535,4.3553,4.3539,4.3474,4.3609,4.3726,4.3744,4.3828,4.4005,4.4036,4.4005,4.4005,4.4005,4.4005,4.4005,4.3955,4.391,4.38,4.3771,4.36,4.3584,4.3582,4.3913,4.4248,4.4452,4.4782,4.5497,4.5626,4.5957,4.6709,4.7114,4.7592,4.7886,4.8273,4.8513,4.8822,4.9344,5.0194,5.1361,5.2717,5.3515,5.37,5.3734,5.3674,5.3595,5.341,5.3267,5.3206,5.3206,5.3206,5.3206,5.3206,5.3206,5.3206,5.3206,5.3206,5.3206,5.3206,5.3206,5.3206,5.3206,5.3206,5.3188,5.3222,5.2825,5.1814,5.0689,4.9824,4.9067,4.8434,4.8114,4.8114,4.7439,4.7026,4.7107,4.6934,4.6643,4.6906,4.6934,4.7122,4.7311,4.7698,4.8204,4.8829,4.9501,5.0538,5.1653,5.2229,5.2671,5.3363,5.3645,5.3813,5.3813,5.3774,5.3754,5.3579,5.3499,5.3459,5.3359,5.3258,5.3254,5.323,5.3248,5.3248,5.3206,5.3206,5.3248,5.323,5.3248,5.3248,4.427,4.4106,4.443,4.4402,4.4154,4.4125,4.4095,4.4023,4.3949,4.398,4.4091,4.4048,4.4128,4.4237,4.4177,4.4147,4.4097,4.4036,4.4005,4.4005,4.4023,4.4228,4.4599,4.4471,4.4406,4.4387,4.4406,4.4831,4.5352,4.5542,4.5821,4.6683,4.6687,4.7021,4.7703,4.7922,4.8162,4.8329,4.8569,4.8731,4.895,4.9176,5.0047,5.1268,5.2587,5.3385,5.3775,5.3793,5.3716,5.3656,5.3576,5.3396,5.329,5.3248,5.3243,5.3225,5.3206,5.3206,5.3206,5.3206,5.3206,5.3206,5.3206,5.3206,5.3225,5.3243,5.3267,5.3254,5.3193,5.2779,5.1283,5.0398,4.9547,4.8864,4.8383,4.8231,4.8153,4.7548,4.7107,4.7232,4.7043,4.6906,4.6952,4.6998,4.7015,4.7186,4.7437,4.794,4.8249,4.8967,4.9786,5.0765,5.1415,5.2102,5.2938,5.3441,5.3775,5.3813,5.3813,5.3774,5.3717,5.3658,5.3619,5.3499,5.34,5.3318,5.3295,5.3314,5.3314,5.3314,5.3295,5.3295,5.3355,5.3355,5.3378,4.4484,4.4503,4.4777,4.484,4.4738,4.4719,4.464,4.4551,4.4524,4.4468,4.4515,4.4496,4.4411,4.4458,4.4373,4.4344,4.4266,4.4207,4.4128,4.4128,4.4128,4.4426,4.4892,4.5103,4.5382,4.5518,4.5472,4.5918,4.6424,4.6546,4.6965,4.7754,4.7747,4.7955,4.8493,4.8767,4.8765,4.8587,4.875,4.8855,4.8909,4.8967,4.9709,5.0952,5.2197,5.294,5.3441,5.3644,5.3774,5.3734,5.3699,5.3602,5.344,5.335,5.3304,5.3248,5.3272,5.3272,5.3272,5.3272,5.329,5.3248,5.3248,5.3248,5.3267,5.3285,5.3327,5.3189,5.3053,5.2357,5.1081,5.0158,4.9491,4.8972,4.8587,4.8458,4.8251,4.7692,4.7475,4.7381,4.7178,4.6998,4.6998,4.6998,4.6998,4.707,4.7381,4.7675,4.8024,4.8466,4.9375,4.9989,5.0656,5.1694,5.2623,5.3014,5.3367,5.3738,5.3738,5.3775,5.3775,5.3717,5.3697,5.3598,5.3518,5.3459,5.34,5.3418,5.34,5.3359,5.3359,5.3418,5.3459,5.3499,5.3499,4.4802,4.4802,4.487,4.487,4.487,4.4865,4.4846,4.4796,4.4712,4.4659,4.464,4.4551,4.4524,4.4496,4.4468,4.444,4.444,4.4383,4.4383,4.4383,4.4383,4.4607,4.4859,4.5514,4.6031,4.6506,4.6576,4.6959,4.7527,4.7751,4.8082,4.8846,4.8977,4.9029,4.8986,4.9113,4.9046,4.8855,4.889,4.8943,4.8943,4.8964,4.9336,5.0506,5.1751,5.2568,5.2958,5.346,5.3813,5.3793,5.3794,5.3736,5.3637,5.3518,5.3477,5.3418,5.3418,5.3418,5.3418,5.3418,5.3459,5.3418,5.3336,5.3318,5.3396,5.3332,5.3355,5.3016,5.2284,5.125,5.0341,4.9655,4.9171,4.8874,4.882,4.8714,4.8421,4.8075,4.7728,4.7663,4.732,4.7043,4.7088,4.7088,4.7025,4.7205,4.7536,4.7788,4.8083,4.8449,4.9011,4.951,4.9991,5.1138,5.2324,5.2586,5.2884,5.346,5.3627,5.3701,5.372,5.3794,5.3736,5.3676,5.3637,5.3579,5.3539,5.3521,5.3481,5.3499,5.3499,5.3499,5.3539,5.3579,5.3539,4.4895,4.4895,4.4895,4.4895,4.4895,4.4895,4.4895,4.4895,4.4821,4.4796,4.477,4.4738,4.4712,4.4685,4.4632,4.4578,4.4496,4.4496,4.4496,4.4496,4.4515,4.4768,4.5134,4.5941,4.6824,4.7496,4.7872,4.814,4.8671,4.8709,4.8977,4.9234,4.9415,4.9352,4.934,4.9289,4.9257,4.916,4.9113,4.9046,4.9046,4.8978,4.9336,5.0228,5.1249,5.2104,5.2717,5.3385,5.3775,5.3813,5.3813,5.3774,5.3754,5.3697,5.36,5.3521,5.3499,5.3499,5.3499,5.3499,5.3499,5.3499,5.344,5.344,5.3477,5.3455,5.333,5.275,5.1602,5.0508,5.0153,4.9373,4.8983,4.889,4.889,4.882,4.8623,4.8345,4.8114,4.7893,4.7432,4.7249,4.7267,4.7223,4.716,4.7363,4.7747,4.7974,4.8172,4.8531,4.8936,4.9177,4.9639,5.0379,5.1473,5.1825,5.2289,5.2865,5.3255,5.3348,5.3608,5.3627,5.3738,5.3736,5.3697,5.3697,5.3676,5.3619,5.3637,5.3637,5.3619,5.3658,5.3658,5.3658,5.3658,4.4895,4.4895,4.4895,4.4895,4.4895,4.4895,4.4895,4.4895,4.4895,4.4895,4.4895,4.4895,4.487,4.487,4.477,4.4667,4.4578,4.4578,4.4605,4.4605,4.4605,4.4955,4.5575,4.6422,4.7146,4.7796,4.8614,4.9326,4.9382,4.9352,4.9439,4.9537,4.9537,4.9476,4.9476,4.9476,4.9446,4.9352,4.9289,4.9244,4.9146,4.9083,4.9203,4.9856,5.0711,5.1509,5.2234,5.3032,5.3571,5.3738,5.3813,5.3813,5.3813,5.3813,5.3717,5.36,5.3561,5.3579,5.3579,5.3561,5.36,5.3619,5.3558,5.3539,5.3487,5.3397,5.3065,5.2289,5.11,5.0042,4.9763,4.928,4.8964,4.889,4.889,4.8855,4.8785,4.8623,4.8458,4.8114,4.7585,4.7475,4.7603,4.7554,4.7536,4.7603,4.7974,4.8114,4.8307,4.8623,4.8913,4.9041,4.9338,4.9763,5.0413,5.0933,5.1471,5.2177,5.2456,5.2568,5.3032,5.3423,5.3496,5.3589,5.3774,5.3774,5.3754,5.3754,5.3716,5.3754,5.3793,5.3774,5.3736,5.3736,5.3736,4.4895,4.4895,4.4895,4.4895,4.4895,4.4895,4.4895,4.4895,4.4895,4.4895,4.4895,4.4895,4.4895,4.4895,4.487,4.4846,4.4846,4.4821,4.4815,4.4815,4.4815,4.4871,4.5142,4.5868,4.68,4.7651,4.8453,4.9079,4.9522,4.9644,4.9702,4.9788,4.9788,4.9788,4.9644,4.9644,4.9566,4.9446,4.9402,4.934,4.9211,4.9197,4.9139,4.935,4.9912,5.0692,5.1528,5.2327,5.2977,5.3664,5.3738,5.3775,5.3813,5.3813,5.3813,5.3774,5.3756,5.3774,5.3736,5.3736,5.3717,5.3736,5.3676,5.3716,5.3456,5.2938,5.2364,5.1577,5.0559,4.98,4.9317,4.9002,4.889,4.889,4.889,4.889,4.8874,4.8855,4.8695,4.8714,4.8307,4.8096,4.8056,4.7974,4.7911,4.8014,4.8153,4.8307,4.8458,4.8731,4.889,4.8983,4.9039,4.9427,4.965,5.0114,5.067,5.1413,5.16,5.1788,5.2327,5.2828,5.3218,5.333,5.3534,5.3757,5.3774,5.3774,5.3774,5.3813,5.3813,5.3813,5.3813,5.3813,5.3813,4.4919,4.4895,4.4895,4.4895,4.4895,4.4895,4.4895,4.4895,4.4895,4.4895,4.4895,4.4895,4.4895,4.4895,4.4895,4.4895,4.4895,4.4895,4.4895,4.4895,4.4895,4.4895,4.5141,4.5786,4.6639,4.7397,4.828,4.9124,4.9589,4.9797,4.9843,4.9898,4.9879,4.9871,4.9788,4.9816,4.9769,4.9683,4.9615,4.9476,4.934,4.9244,4.9164,4.9116,4.974,5.0246,5.0766,5.1472,5.2289,5.2958,5.3106,5.3385,5.3683,5.3813,5.3813,5.3813,5.3813,5.3813,5.3813,5.3813,5.3813,5.3794,5.3737,5.355,5.3143,5.2364,5.1564,5.0722,4.9908,4.928,4.9002,4.8909,4.889,4.889,4.8925,4.9012,4.9012,4.9012,4.8959,4.8978,4.903,4.8802,4.8604,4.8495,4.844,4.844,4.8513,4.8605,4.8695,4.882,4.889,4.8909,4.8946,4.9057,4.915,4.941,4.9836,5.0428,5.0635,5.0952,5.1584,5.2085,5.2419,5.2772,5.2958,5.3237,5.3627,5.3813,5.3813,5.3813,5.3813,5.3813,5.3813,5.3813,5.3813,4.501,4.4962,4.4914,4.4895,4.4895,4.4895,4.4895,4.4895,4.4895,4.4895,4.4895,4.4895,4.4895,4.4895,4.4895,4.4895,4.4895,4.4895,4.4895,4.4895,4.4895,4.4895,4.5066,4.5653,4.6259,4.7131,4.7825,4.8678,4.9367,4.9765,4.9879,4.9879,4.9879,4.9898,4.9898,4.9879,4.9852,4.9871,4.9788,4.9644,4.9495,4.9402,4.9308,4.938,4.962,4.9963,5.0261,5.0655,5.1435,5.2141,5.2586,5.2957,5.3347,5.3664,5.3775,5.3813,5.3813,5.3813,5.3813,5.3813,5.3813,5.3738,5.3534,5.3162,5.264,5.177,5.0932,5.0222,4.9464,4.9057,4.889,4.889,4.8925,4.8978,4.9012,4.9113,4.9211,4.9179,4.9197,4.9216,4.93,4.939,4.9206,4.9052,4.8934,4.8903,4.8869,4.8922,4.894,4.8959,4.8959,4.8993,4.8943,4.8962,4.8964,4.9094,4.9389,4.9557,4.9745,5.0135,5.0803,5.1175,5.1454,5.1844,5.2308,5.2791,5.32,5.3515,5.3813,5.3813,5.3813,5.3813,5.3813,5.3813,5.3813,4.5103,4.5061,4.4967,4.4919,4.4895,4.4895,4.4895,4.4895,4.4895,4.4895,4.4895,4.4895,4.4895,4.4895,4.4895,4.4895,4.4895,4.4895,4.4895,4.4895,4.4895,4.4895,4.499,4.516,4.5539,4.6392,4.7302,4.8098,4.8818,4.9671,4.9803,4.9879,4.9879,4.9879,4.9879,4.9879,4.9879,4.9898,4.9852,4.9816,4.9702,4.9634,4.9555,4.9384,4.9388,4.959,5.0266,5.0259,5.0616,5.1453,5.1955,5.2418,5.2678,5.3125,5.3367,5.3385,5.3404,5.3385,5.3404,5.3664,5.3775,5.359,5.3218,5.2679,5.2121,5.099,5.0282,4.9998,4.9294,4.9018,4.8943,4.8925,4.9027,4.9094,4.9179,4.9276,4.934,4.9402,4.939,4.9415,4.9509,4.9623,4.9663,4.9469,4.9327,4.9252,4.9155,4.9174,4.9174,4.9193,4.916,4.9127,4.8993,4.8943,4.8927,4.9039,4.9166,4.9185,4.928,4.9596,5.006,5.0339,5.0506,5.1156,5.1676,5.2234,5.2772,5.3107,5.3423,5.3683,5.3813,5.3813,5.3813,5.3813,5.3813,4.522,4.5106,4.5264,4.5182,4.4943,4.4919,4.4895,4.4895,4.4895,4.4895,4.4895,4.4895,4.4895,4.4895,4.4895,4.4895,4.4895,4.4895,4.4895,4.4895,4.4895,4.4895,4.4895,4.5028,4.5369,4.6184,4.6999,4.7851,4.8723,4.9481,4.9784,4.9879,4.9879,4.9879,4.9879,4.9879,4.9879,4.9879,4.9879,4.9852,4.9816,4.975,4.9663,4.9604,4.9415,4.9452,4.972,4.9627,5.0082,5.061,5.1042,5.1435,5.1862,5.2289,5.2438,5.2475,5.2494,5.2475,5.2679,5.3125,5.359,5.3088,5.2717,5.2197,5.1417,5.0433,4.9856,4.9482,4.925,4.9098,4.9079,4.916,4.9239,4.9289,4.9371,4.9434,4.9495,4.9555,4.9615,4.9623,4.9711,4.9788,4.9816,4.9824,4.9683,4.9615,4.9506,4.9415,4.9415,4.9384,4.9371,4.9308,4.916,4.9101,4.9052,4.898,4.8909,4.889,4.8925,4.9206,4.9522,4.9355,4.9633,5.0339,5.0952,5.1361,5.1881,5.2568,5.3051,5.3423,5.3664,5.3813,5.3813,5.3813,5.3813,4.5417,4.5304,4.5503,4.5379,4.5087,4.5068,4.5068,4.5042,4.5065,4.5042,4.5042,4.5042,4.5042,4.5061,4.4991,4.5019,4.5042,4.5038,4.501,4.501,4.4991,4.4943,4.4919,4.4971,4.5198,4.5994,4.6961,4.7813,4.823,4.9349,4.9784,4.9879,4.9879,4.9879,4.9879,4.9879,4.9879,4.9879,4.9879,4.9879,4.9871,4.9816,4.9759,4.975,4.9585,4.9544,4.9539,4.9471,4.9594,5.0029,5.0393,5.0668,5.1044,5.1323,5.145,5.1433,5.1397,5.1361,5.1714,5.2178,5.2828,5.2308,5.1844,5.1213,5.0527,5.0023,4.9548,4.928,4.923,4.9276,4.9295,4.9321,4.9415,4.9464,4.9495,4.9555,4.9673,4.9759,4.9788,4.9862,4.9898,4.9871,4.9871,4.9898,4.9843,4.9759,4.9712,4.9655,4.9625,4.9615,4.9525,4.9464,4.9352,4.9286,4.9247,4.9187,4.9127,4.9042,4.9042,4.8978,4.9073,4.8943,4.8946,4.9577,5.0098,5.0413,5.0989,5.1695,5.2475,5.3218,5.3497,5.3813,5.3813,5.3813,5.3813,4.5689,4.567,4.5621,4.5466,4.5244,4.5399,4.5437,4.5342,4.5361,4.5361,4.5322,4.5361,4.5361,4.5321,4.5216,4.5218,4.5262,4.5216,4.5192,4.5192,4.5148,4.5061,4.4967,4.4957,4.5009,4.535,4.6373,4.7283,4.7586,4.9003,4.9667,4.9879,4.9879,4.9879,4.9879,4.9879,4.9879,4.9879,4.9879,4.9879,4.9879,4.9871,4.9852,4.9843,4.9759,4.9673,4.9644,4.9506,4.9546,4.9665,5.0102,5.0366,5.0549,5.1024,5.1245,5.1292,5.1245,5.1248,5.136,5.1435,5.1416,5.1433,5.1042,5.0486,5.0228,4.9775,4.9388,4.9259,4.9377,4.9415,4.9415,4.9427,4.9537,4.9615,4.9644,4.9702,4.9816,4.9843,4.9898,4.9898,4.9898,4.9879,4.9879,4.9879,4.9879,4.9879,4.9879,4.9852,4.9797,4.9759,4.9673,4.9615,4.9506,4.9471,4.9433,4.9396,4.934,4.9239,4.9141,4.9113,4.9012,4.8993,4.9052,4.9094,4.9392,4.9856,5.032,5.0822,5.1751,5.2679,5.3478,5.3813,5.3813,5.3813,5.3813,4.5835,4.5711,4.5928,4.5852,4.5669,4.5541,4.5455,4.5419,4.54,4.5419,4.54,4.54,4.54,4.5381,4.5381,4.5381,4.54,4.5381,4.5341,4.5341,4.5258,4.5192,4.5103,4.4991,4.4919,4.5198,4.6108,4.7024,4.7453,4.8777,4.9492,4.9781,4.9959,4.9879,4.9879,4.9879,4.9879,4.9879,4.9879,4.9879,4.9879,4.9879,4.9879,4.9898,4.9843,4.9816,4.9816,4.9655,4.9596,4.9566,4.9969,4.9934,4.9921,5.0297,5.0241,5.0234,5.0104,5.0067,5.0067,5.0104,5.0333,5.0467,5.0508,5.012,4.9777,4.9566,4.9377,4.9426,4.9539,4.9577,4.9585,4.9683,4.9769,4.9797,4.9843,4.9843,4.9898,4.9898,4.9879,4.9898,4.9879,4.9879,4.9879,4.9879,4.9879,4.9879,4.9879,4.9879,4.9852,4.9852,4.9816,4.9788,4.9702,4.9663,4.9574,4.9544,4.9464,4.9384,4.9308,4.9267,4.9183,4.9094,4.9046,4.9105,4.9185,4.9336,4.978,5.0282,5.1267,5.2178,5.294,5.3645,5.3813,5.3813,5.3813,4.5726,4.5906,4.6111,4.6122,4.5964,4.5783,4.5669,4.5626,4.561,4.561,4.5607,4.5626,4.5626,4.561,4.556,4.556,4.558,4.5528,4.5494,4.5456,4.5381,4.5321,4.5258,4.5151,4.5113,4.5312,4.587,4.6706,4.7542,4.8462,4.9306,4.9929,5.0051,5.007,5.0019,4.9959,4.9879,4.9879,4.9879,4.9879,4.9879,4.9879,4.9879,4.9879,4.9879,4.9879,4.9871,4.9816,4.9759,4.9712,4.9646,4.9579,4.9558,4.9529,4.9521,4.951,4.9427,4.9452,4.9496,4.9589,4.9903,5.0115,5.0172,4.9945,4.9604,4.9559,4.9548,4.9627,4.9693,4.9722,4.9759,4.9879,4.9879,4.9898,4.9898,4.9898,4.9898,4.9879,4.9879,4.9879,4.9879,4.9879,4.9879,4.9879,4.9879,4.9879,4.9879,4.9879,4.9879,4.9879,4.9879,4.9852,4.9843,4.9788,4.9721,4.9673,4.9615,4.9506,4.9483,4.9459,4.9345,4.9257,4.916,4.9094,4.9239,4.9351,4.9306,4.9793,5.0689,5.1601,5.2456,5.3088,5.3664,5.3813,5.3813,4.5397,4.6098,4.6196,4.6154,4.6102,4.6075,4.6037,4.5986,4.5986,4.5966,4.5966,4.5944,4.5922,4.5933,4.5854,4.5829,4.5829,4.5728,4.5688,4.5645,4.5594,4.5528,4.5456,4.5381,4.5342,4.5571,4.6027,4.6647,4.7694,4.8804,4.966,5.0169,5.0317,5.0268,5.0169,5.007,4.9986,4.9933,4.9879,4.9879,4.9879,4.9879,4.9879,4.9879,4.9879,4.9879,4.9879,4.9852,4.9852,4.9852,4.9852,4.9879,4.9843,4.9778,4.974,4.9646,4.951,4.9488,4.9506,4.9625,4.9692,4.9841,4.9687,4.9577,4.9645,4.9717,4.9731,4.9768,4.9833,4.9852,4.9879,4.9879,4.9879,4.9879,4.9879,4.9879,4.9879,4.9879,4.9879,4.9879,4.9879,4.9879,4.9879,4.9879,4.9879,4.9879,4.9879,4.9879,4.9879,4.9879,4.9879,4.9879,4.9879,4.9879,4.9843,4.9788,4.9759,4.9655,4.9673,4.9653,4.9525,4.9434,4.9352,4.9321,4.9352,4.9377,4.9356,4.956,5.0001,5.0895,5.1732,5.2494,5.307,5.3683,5.3813,4.5046,4.5319,4.5942,4.6189,4.6181,4.6181,4.6102,4.6007,4.5977,4.5997,4.5977,4.5977,4.6007,4.5977,4.5956,4.5975,4.5944,4.5933,4.591,4.5854,4.5775,4.5713,4.565,4.5607,4.5574,4.5601,4.5896,4.659,4.797,4.9137,5.0063,5.0529,5.0508,5.0445,5.0358,5.0272,5.0144,4.9986,4.9933,4.9933,4.9925,4.9925,4.9925,4.9879,4.9879,4.9879,4.9879,4.9879,4.9879,4.9879,4.9879,4.9879,4.9879,4.9871,4.9833,4.9841,4.9778,4.9769,4.9769,4.9797,4.9843,4.9816,4.9769,4.9788,4.9825,4.9844,4.9843,4.9871,4.9879,4.9879,4.9879,4.9879,4.9879,4.9879,4.9879,4.9879,4.9879,4.9879,4.9879,4.9879,4.9879,4.9879,4.9879,4.9879,4.9879,4.9879,4.9879,4.9879,4.9879,4.9879,4.9879,4.9879,4.9879,4.9879,4.9879,4.9871,4.9871,4.9843,4.9816,4.9778,4.9673,4.9585,4.9506,4.9506,4.9476,4.9446,4.9371,4.9599,4.984,5.0104,5.0869,5.1693,5.2475,5.307,5.3683,4.4598,4.5007,4.5825,4.6196,4.6196,4.6196,4.6146,4.6104,4.6065,4.6084,4.6084,4.6084,4.6084,4.6084,4.6084,4.6056,4.6027,4.6027,4.6007,4.5944,4.5933,4.5879,4.5835,4.5809,4.5783,4.5742,4.5916,4.6568,4.8135,4.9677,5.0698,5.0786,5.068,5.0587,5.0547,5.0486,5.038,5.0174,5.007,5.0038,5.0005,4.9952,4.9906,4.9906,4.9906,4.9906,4.9906,4.9906,4.9925,4.9879,4.9879,4.9879,4.9879,4.9898,4.9898,4.9879,4.9879,4.9852,4.9852,4.9879,4.9879,4.9879,4.9879,4.9898,4.9898,4.9871,4.9898,4.9879,4.9879,4.9879,4.9879,4.9879,4.9879,4.9879,4.9879,4.9879,4.9879,4.9879,4.9879,4.9879,4.9879,4.9879,4.9879,4.9879,4.9879,4.9879,4.9879,4.9879,4.9879,4.9879,4.9879,4.9879,4.9879,4.9879,4.9955,5.0107,5.0107,5.0069,4.9871,4.9843,4.9807,4.9816,4.9844,4.973,4.9566,4.9661,4.986,4.9559,4.9641,5.0043,5.0459,5.1166,5.1937,5.2512,5.3088,4.4072,4.4851,4.5825,4.6196,4.6196,4.6196,4.6215,4.6196,4.6189,4.6196,4.6196,4.6196,4.6189,4.6181,4.6181,4.6146,4.613,4.6102,4.6084,4.6017,4.6027,4.6017,4.6017,4.6007,4.5977,4.5956,4.6162,4.67,4.8372,4.9887,5.0894,5.1004,5.097,5.0883,5.0754,5.0736,5.0625,5.0467,5.0336,5.0259,5.0169,5.0044,4.9933,4.9959,4.9986,4.994,4.9933,4.9906,4.9925,4.9925,4.9879,4.9879,4.9879,4.9879,4.9879,4.9879,4.9879,4.9879,4.9879,4.9879,4.9879,4.9879,4.9879,4.9879,4.9879,4.9879,4.9879,4.9879,4.9879,4.9879,4.9879,4.9879,4.9879,4.9879,4.9879,4.9879,4.9879,4.9879,4.9879,4.9879,4.9879,4.9879,4.9879,4.9879,4.9879,4.9879,5.0126,5.0144,5.0258,5.0258,5.0277,5.0296,5.0523,5.0675,5.0656,5.0732,5.0486,5.0334,5.0277,5.041,5.0733,5.0534,5.0191,5.0448,5.0742,5.0449,5.0421,5.0401,5.0466,5.0495,5.0847,5.0988,5.1484,5.2192,5.2694,4.3714,4.4052,4.5553,4.6196,4.6196,4.6196,4.6196,4.6196,4.6196,4.6196,4.6196,4.6196,4.6196,4.6196,4.6196,4.6189,4.6181,4.6154,4.6174,4.6146,4.6138,4.613,4.6127,4.613,4.6138,4.6138,4.6348,4.7037,4.8538,5.0021,5.1049,5.1081,5.1081,5.1017,5.0932,5.0917,5.0855,5.0735,5.0625,5.0486,5.038,5.0339,5.0272,5.0272,5.0249,5.0174,5.0169,5.0114,5.0038,4.9933,4.9906,4.9879,4.9879,4.9906,4.9906,4.9879,4.9906,4.9906,4.9879,4.9879,4.9879,4.9879,4.9879,4.9879,4.9879,4.9879,4.9879,4.9879,4.9879,4.9879,4.9879,4.9879,4.9879,4.9879,4.9879,4.9879,4.9879,4.9879,4.9879,4.9879,4.9879,4.9879,4.9879,4.9936,4.9879,5.0201,5.0713,5.0978,5.1225,5.13,5.1376,5.1433,5.1698,5.1793,5.1623,5.1452,5.1244,5.1376,5.1471,5.1604,5.1679,5.1508,5.1334,5.1839,5.2094,5.1694,5.1586,5.2005,5.198,5.158,5.144,5.1667,5.1897,5.2454,5.2736,4.4189,4.4364,4.5631,4.6196,4.6196,4.6196,4.6196,4.6196,4.6196,4.6196,4.6196,4.6196,4.6196,4.6196,4.6196,4.6196,4.6196,4.6196,4.6196,4.6196,4.6196,4.6196,4.6196,4.6196,4.6196,4.6247,4.7128,4.8018,4.8847,5.0228,5.1201,5.1169,5.1139,5.1117,5.1056,5.1043,5.1017,5.0947,5.0871,5.0752,5.0587,5.0508,5.0406,5.0385,5.0383,5.0358,5.0336,5.0268,5.0221,5.0133,5.0069,5.0024,5.0038,5.0062,5.0006,4.9967,4.9959,4.9986,4.9933,4.9906,4.9906,4.9906,4.9925,4.9925,4.9879,4.9879,4.9879,4.9879,4.9879,4.9879,4.9879,4.9879,4.9879,4.9879,4.9879,4.9879,4.9879,4.9879,4.9879,4.9879,4.9879,4.9879,5.0031,5.0496,5.0515,5.077,5.1263,5.1717,5.1983,5.2381,5.2438,5.2475,5.2712,5.2513,5.2134,5.2077,5.2096,5.2305,5.2608,5.2408,5.2311,5.2414,5.2563,5.287,5.2968,5.2705,5.2771,5.3127,5.2951,5.2456,5.2379,5.2431,5.2637,5.2883,5.3213,4.4955,4.5183,4.5891,4.6196,4.6196,4.6196,4.6203,4.6203,4.6216,4.6209,4.6209,4.6203,4.6196,4.6196,4.6196,4.6196,4.6196,4.6196,4.6196,4.6196,4.6196,4.6196,4.6196,4.6196,4.6196,4.68,4.7727,4.8273,4.883,5.033,5.1248,5.122,5.1211,5.1171,5.1128,5.1105,5.1093,5.103,5.0976,5.0952,5.0822,5.0644,5.0548,5.0488,5.0467,5.0467,5.0446,5.0425,5.0425,5.0355,5.0245,5.0226,5.0212,5.021,5.014,5.0106,5.0144,5.012,5.0044,5.0025,4.9993,4.9978,4.9952,4.9952,4.9933,4.9925,4.9925,4.9906,4.9906,4.9906,4.9906,4.9879,4.9879,4.9879,4.9879,4.9879,4.9879,4.9898,4.9917,4.9936,5.005,5.005,5.0505,5.0941,5.1216,5.1462,5.185,5.2267,5.2722,5.3252,5.3575,5.3556,5.3585,5.3253,5.2921,5.2921,5.3092,5.3215,5.3404,5.3109,5.3034,5.3467,5.3683,5.3621,5.3654,5.3752,5.3776,5.3993,5.3701,5.3486,5.3396,5.3436,5.3474,5.3711,5.3932,4.5316,4.598,4.6156,4.6212,4.6212,4.6212,4.6215,4.6209,4.6206,4.6197,4.6206,4.6196,4.6196,4.6196,4.6196,4.6196,4.6196,4.6196,4.6196,4.6196,4.6196,4.6196,4.6196,4.6196,4.6196,4.6878,4.7813,4.8631,4.906,5.0424,5.13,5.1284,5.1284,5.1239,5.1201,5.1171,5.115,5.1086,5.1043,5.0995,5.0975,5.0877,5.0841,5.0805,5.0805,5.0736,5.0682,5.0644,5.0567,5.0464,5.0399,5.0358,5.0361,5.0385,5.0323,5.0275,5.0336,5.0313,5.0249,5.0225,5.0197,5.0139,5.0114,5.0063,5.0031,4.9963,4.9971,4.9967,4.9967,4.9933,4.9906,4.9906,4.9879,4.9879,4.9879,4.9879,4.9879,4.9993,5.0069,5.0334,5.0637,5.0903,5.1357,5.1651,5.1765,5.2096,5.2551,5.293,5.3025,5.3783,5.4476,5.4287,5.4125,5.4601,5.4486,5.423,5.4316,5.4353,5.4344,5.4196,5.4327,5.4866,5.4986,5.4703,5.4919,5.517,5.5172,5.4824,5.5036,5.4882,5.461,5.451,5.4495,5.4497,5.4667]},{"header":{"parameterUnit":"m.s-1","parameterCategory":1,"la1":31.0,"la2":29.5877,"lo1":-88.7671,"lo2":-86.6584,"dy":0.0162,"dx":0.0185,"nx":115,"ny":88,"refTime":"2023-10-04T06:00:00:Z","depth":0,"parameterNumber":3,"parameterNumberName":"V-component_of_WINDS"},"data":[0.0,0.0,0.0,0.0,0.0,0.0,0.0,0.0,0.0,0.0,0.0,0.0,0.0,0.0,0.0,0.0,0.0,0.0,0.0,0.0,0.0,0.0,0.0,0.0,0.0,0.0,0.0,0.0,0.0,0.0,0.0,0.0,0.0,0.0,0.0,0.0,0.0,0.0,0.0,0.0,0.0,0.0,0.0,0.0,0.0,0.0,0.0,0.0,0.0,0.0,0.0,0.0,0.0,0.0,0.0,0.0,0.0,0.0,0.0,0.0,0.0,0.0,0.0,0.0,0.0,0.0,0.0,0.0,0.0,0.0,0.0,0.0,0.0,0.0,0.0,0.0,0.0,0.0,0.0,0.0,0.0,0.0,0.0,0.0,0.0,0.0,0.0,0.0,0.0,0.0,0.0,0.0,0.0,0.0,0.0,0.0,0.0,0.0,0.0,0.0,0.0,0.0,0.0,0.0,0.0,0.0,0.0,0.0,0.0,0.0,0.0,0.0,0.0,0.0,0.0,0.0,0.0,0.0,0.0,0.0,0.0,0.0,0.0,0.0,0.0,0.0,0.0,0.0,0.0,0.0,0.0,0.0,0.0,0.0,0.0,0.0,0.0,0.0,0.0,0.0,0.0,0.0,0.0,0.0,0.0,0.0,0.0,0.0,0.0,0.0,0.0,0.0,0.0,0.0,0.0,0.0,0.0,0.0,0.0,0.0,0.0,0.0,0.0,0.0,0.0,0.0,0.0,0.0,0.0,0.0,0.0,0.0,0.0,0.0,0.0,0.0,0.0,0.0,0.0,0.0,0.0,0.0,0.0,0.0,0.0,0.0,0.0,0.0,0.0,0.0,0.0,0.0,0.0,0.0,0.0,0.0,0.0,0.0,0.0,0.0,0.0,0.0,0.0,0.0,0.0,0.0,0.0,0.0,0.0,0.0,0.0,0.0,0.0,0.0,0.0,0.0,0.0,0.0,0.0,0.0,0.0,0.0,0.0,0.0,0.0,0.0,0.0,0.0,0.0,0.0,0.0,0.0,0.0,0.0,0.0,0.0,0.0,0.0,0.0,0.0,0.0,0.0,0.0,0.0,0.0,0.0,0.0,0.0,0.0,0.0,0.0,0.0,0.0,0.0,0.0,0.0,0.0,0.0,0.0,0.0,0.0,0.0,0.0,0.0,0.0,0.0,0.0,0.0,0.0,0.0,0.0,0.0,0.0,0.0,0.0,0.0,0.0,0.0,0.0,0.0,0.0,0.0,0.0,0.0,0.0,0.0,0.0,0.0,0.0,0.0,0.0,0.0,0.0,0.0,0.0,0.0,0.0,0.0,0.0,0.0,0.0,0.0,0.0,0.0,0.0,0.0,0.0,0.0,0.0,0.0,0.0,0.0,0.0,0.0,0.0,0.0,0.0,0.0,0.0,0.0,0.0,0.0,0.0,0.0,0.0,0.0,0.0,0.0,0.0,0.0,0.0,0.0,0.0,0.0,0.0,0.0,0.0,0.0,0.0,0.0,0.0,0.0,0.0,0.0,0.0,0.0,0.0,0.0,0.0,0.0,0.0,0.0,0.0,0.0,0.0,0.0,0.0,0.0,0.0,0.0,0.0,0.0,0.0,0.0,0.0,0.0,0.0,0.0,0.0,0.0,0.0,0.0,0.0,0.0,0.0,0.0,0.0,0.0,0.0,0.0,0.0,0.0,0.0,0.0,0.0,0.0,0.0,0.0,0.0,0.0,0.0,0.0,0.0,0.0,0.0,0.0,0.0,0.0,0.0,0.0,0.0,0.0,0.0,0.0,0.0,0.0,0.0,0.0,0.0,0.0,0.0,0.0,0.0,0.0,0.0,0.0,0.0,0.0,0.0,0.0,0.0,0.0,0.0,0.0,0.0,0.0,0.0,0.0,0.0,0.0,0.0,0.0,0.0,0.0,0.0,0.0,0.0,0.0,0.0,0.0,0.0,0.0,0.0,0.0,0.0,0.0,0.0,0.0,0.0,0.0,0.0,0.0,0.0,0.0,0.0,0.0,0.0,0.0,0.0,0.0,0.0,0.0,0.0,0.0,0.0,0.0,0.0,0.0,0.0,0.0,0.0,0.0,0.0,0.0,0.0,0.0,0.0,0.0,0.0,0.0,0.0,0.0,0.0,0.0,0.0,0.0,0.0,0.0,0.0,0.0,0.0,0.0,0.0,0.0,0.0,0.0,0.0,0.0,0.0,0.0,0.0,0.0,0.0,0.0,0.0,0.0,0.0,0.0,0.0,0.0,0.0,0.0,0.0,0.0,0.0,0.0,0.0,0.0,0.0,0.0,0.0,0.0,0.0,0.0,0.0,0.0,0.0,0.0,0.0,0.0,0.0,0.0,0.0,0.0,0.0,0.0,0.0,0.0,0.0,0.0,0.0,0.0,0.0,0.0,0.0,0.0,0.0,0.0,0.0,0.0,0.0,0.0,0.0,0.0,0.0,0.0,0.0,0.0,0.0,0.0,0.0,0.0,0.0,0.0,0.0,0.0,0.0,0.0,0.0,0.0,0.0,0.0,0.0,0.0,0.0,0.0,0.0,0.0,0.0,0.0,0.0,0.0,0.0,0.0,0.0,0.0,0.0,0.0,0.0,0.0,0.0,0.0,0.0,0.0,0.0,0.0,0.0,0.0,0.0,0.0,0.0,0.0,0.0,0.0,0.0,0.0,0.0,0.0,0.0,0.0,0.0,0.0,0.0,0.0,0.0,0.0,0.0,0.0,0.0,0.0,0.0,0.0,0.0,0.0,0.0,0.0,0.0,0.0,0.0,0.0,0.0,0.0,0.0,0.0,0.0,0.0,0.0,0.0,0.0,0.0,0.0,0.0,0.0,0.0,0.0,0.0,0.0,0.0,0.0,0.0,0.0,0.0,0.0,0.0,0.0,0.0,0.0,0.0,0.0,0.0,0.0,0.0,0.0,0.0,0.0,0.0,0.0,0.0,0.0,0.0,0.0,0.0,0.0,0.0,0.0,0.0,0.0,0.0,0.0,0.0,0.0,0.0,0.0,0.0,0.0,0.0,0.0,0.0,0.0,0.0,0.0,0.0,0.0,0.0,0.0,0.0,0.0,0.0,0.0,0.0,0.0,0.0,0.0,0.0,0.0,0.0,0.0,0.0,0.0,0.0,0.0,0.0,0.0,0.0,0.0,0.0,0.0,0.0,0.0,0.0,0.0,0.0,0.0,0.0,0.0,0.0,0.0,0.0,0.0,0.0,0.0,0.0,0.0,0.0,0.0,0.0,0.0,0.0,0.0,0.0,0.0,0.0,0.0,0.0,0.0,0.0,0.0,0.0,0.0,0.0,0.0,0.0,0.0,0.0,0.0,0.0,0.0,0.0,0.0,0.0,0.0,0.0,0.0,0.0,0.0,0.0,0.0,0.0,0.0,0.0,0.0,0.0,0.0,0.0,0.0,0.0,0.0,0.0,0.0,0.0,0.0,0.0,0.0,0.0,0.0,0.0,0.0,0.0,0.0,0.0,0.0,0.0,0.0,0.0,0.0,0.0,0.0,0.0,0.0,0.0,0.0,0.0,0.0,0.0,0.0,0.0,0.0,0.0,0.0,0.0,0.0,0.0,0.0,0.0,0.0,0.0,0.0,0.0,0.0,0.0,0.0,0.0,0.0,0.0,0.0,0.0,0.0,0.0,0.0,0.0,0.0,0.0,0.0,0.0,0.0,0.0,0.0,0.0,0.0,0.0,0.0,0.0,0.0,0.0,0.0,0.0,0.0,0.0,0.0,0.0,0.0,0.0,0.0,0.0,0.0,0.0,0.0,0.0,0.0,0.0,0.0,0.0,0.0,0.0,0.0,0.0,0.0,0.0,0.0,0.0,0.0,0.0,0.0,0.0,0.0,0.0,0.0,0.0,0.0,0.0,0.0,0.0,0.0,0.0,0.0,0.0,0.0,0.0,0.0,0.0,0.0,0.0,0.0,0.0,0.0,0.0,0.0,0.0,0.0,0.0,0.0,0.0,0.0,0.0,0.0,0.0,0.0,0.0,0.0,0.0,0.0,0.0,0.0,0.0,0.0,0.0,0.0,0.0,0.0,0.0,0.0,0.0,0.0,0.0,0.0,0.0,0.0,0.0,0.0,0.0,0.0,0.0,0.0,0.0,0.0,0.0,0.0,0.0,0.0,0.0,0.0,0.0,0.0,0.0,0.0,0.0,0.0,0.0,0.0,0.0,0.0,0.0,0.0,0.0,0.0,0.0,0.0,0.0,0.0,0.0,0.0,0.0,0.0,0.0,0.0,0.0,-0.7604,0.0,0.0,0.0,0.0,0.0,0.0,0.0,0.0,0.0,0.0,0.0,0.0,0.0,0.0,0.0,0.0,0.0,0.0,0.0,0.0,0.0,0.0,0.0,0.0,0.0,0.0,0.0,0.0,0.0,0.0,0.0,0.0,0.0,0.0,0.0,0.0,0.0,0.0,0.0,0.0,0.0,0.0,0.0,0.0,0.0,0.0,0.0,0.0,0.0,0.0,0.0,0.0,0.0,0.0,0.0,0.0,0.0,0.0,0.0,0.0,0.0,0.0,0.0,0.0,0.0,0.0,0.0,0.0,0.0,0.0,0.0,0.0,0.0,0.0,0.0,0.0,0.0,0.0,0.0,0.0,0.0,0.0,0.0,0.0,0.0,0.0,0.0,0.0,0.0,0.0,0.0,0.0,0.0,0.0,0.0,0.0,0.0,0.0,0.0,0.0,0.0,0.0,0.0,0.0,0.0,0.0,0.0,0.0,0.0,0.0,-0.6721,-0.6074,-0.6121,-0.6423,-0.6961,0.0,0.0,0.0,0.0,0.0,0.0,0.0,0.0,0.0,0.0,0.0,0.0,0.0,0.0,0.0,0.0,0.0,0.0,0.0,0.0,0.0,0.0,0.0,0.0,0.0,0.0,0.0,0.0,0.0,0.0,0.0,0.0,0.0,0.0,0.0,0.0,0.0,0.0,0.0,0.0,0.0,0.0,0.0,0.0,0.0,0.0,0.0,0.0,0.0,0.0,0.0,0.0,0.0,0.0,0.0,0.0,0.0,0.0,0.0,0.0,0.0,0.0,0.0,0.0,0.0,0.0,0.0,0.0,0.0,0.0,0.0,0.0,0.0,0.0,0.0,0.0,0.0,0.0,0.0,0.0,0.0,0.0,0.0,0.0,0.0,0.0,0.0,0.0,0.0,0.0,0.0,0.0,0.0,0.0,0.0,0.0,0.0,0.0,0.0,0.0,0.0,0.0,0.0,0.0,0.0,0.0,0.0,0.0,0.0,0.0,0.0,0.0,-0.4824,-0.5327,-0.6334,0.0,0.0,0.0,0.0,0.0,0.0,0.0,0.0,0.0,0.0,0.0,0.0,0.0,0.0,0.0,0.0,0.0,0.0,0.0,0.0,0.0,0.0,0.0,0.0,0.0,0.0,0.0,0.0,0.0,0.0,0.0,0.0,0.0,0.0,0.0,0.0,0.0,0.0,0.0,0.0,0.0,0.0,0.0,0.0,0.0,0.0,0.0,0.0,0.0,0.0,0.0,0.0,0.0,0.0,0.0,0.0,0.0,0.0,0.0,0.0,0.0,0.0,0.0,0.0,0.0,0.0,0.0,0.0,0.0,0.0,0.0,0.0,0.0,0.0,0.0,0.0,0.0,0.0,0.0,0.0,0.0,0.0,0.0,0.0,0.0,0.0,0.0,0.0,0.0,0.0,0.0,0.0,0.0,0.0,0.0,0.0,0.0,0.0,0.0,0.0,0.0,0.0,0.0,0.0,0.0,0.0,0.0,0.0,0.0,0.0,-0.4924,-0.4824,-0.4824,0.0,-0.6337,0.0,0.0,0.0,0.0,0.0,0.0,0.0,0.0,0.0,0.0,0.0,0.0,0.0,0.0,0.0,0.0,0.0,0.0,0.0,0.0,0.0,0.0,0.0,0.0,0.0,0.0,0.0,0.0,0.0,0.0,0.0,0.0,0.0,0.0,0.0,0.0,0.0,0.0,0.0,0.0,0.0,0.0,0.0,0.0,0.0,0.0,0.0,0.0,0.0,0.0,0.0,0.0,0.0,0.0,0.0,0.0,0.0,0.0,0.0,0.0,0.0,0.0,0.0,0.0,0.0,0.0,0.0,0.0,0.0,0.0,0.0,0.0,0.0,0.0,0.0,0.0,0.0,0.0,0.0,0.0,0.0,0.0,0.0,0.0,0.0,0.0,0.0,0.0,0.0,0.0,0.0,0.0,0.0,0.0,0.0,0.0,0.0,0.0,0.0,0.0,0.0,0.0,0.0,0.0,0.0,0.0,0.0,0.0,0.0,0.0,-0.3524,-0.2923,-0.3524,-0.4325,0.0,0.0,0.0,0.0,0.0,0.0,0.0,0.0,0.0,0.0,0.0,0.0,0.0,0.0,0.0,0.0,0.0,0.0,0.0,0.0,0.0,0.0,0.0,0.0,0.0,0.0,0.0,0.0,0.0,0.0,0.0,0.0,0.0,0.0,0.0,0.0,0.0,0.0,0.0,0.0,0.0,0.0,0.0,0.0,0.0,0.0,0.0,0.0,0.0,0.0,0.0,0.0,0.0,0.0,0.0,0.0,0.0,0.0,0.0,0.0,0.0,0.0,0.0,0.0,0.0,0.0,0.0,0.0,0.0,0.0,0.0,0.0,0.0,0.0,0.0,0.0,0.0,0.0,0.0,0.0,0.0,0.0,0.0,0.0,0.0,0.0,0.0,0.0,0.0,0.0,0.0,0.0,0.0,0.0,0.0,0.0,0.0,0.0,0.0,0.0,0.0,0.0,0.0,0.0,0.0,0.0,0.0,0.0,0.0,0.0,-0.2722,-0.2422,-0.1718,-0.232,-0.3224,-0.4325,0.0,0.0,0.0,0.0,0.0,0.0,0.0,0.0,0.0,0.0,0.0,0.0,0.0,0.0,0.0,0.0,0.0,0.0,0.0,0.0,0.0,0.0,0.0,0.0,0.0,0.0,0.0,0.0,0.0,0.0,0.0,0.0,0.0,0.0,0.0,0.0,0.0,0.0,0.0,0.0,0.0,0.0,0.0,0.0,0.0,0.0,0.0,0.0,0.0,0.0,0.0,0.0,0.0,0.0,0.0,0.0,0.0,0.0,0.0,0.0,0.0,0.0,0.0,0.0,0.0,0.0,0.0,0.0,0.0,0.0,0.0,0.0,0.0,0.0,0.0,0.0,0.0,0.0,0.0,0.0,0.0,0.0,0.0,0.0,0.0,0.0,0.0,0.0,0.0,0.0,0.0,0.0,0.0,0.0,0.0,0.0,0.0,0.0,0.0,0.0,0.0,0.0,0.0,0.0,0.0,0.0,0.0,0.0,-0.1717,-0.1717,-0.1616,-0.1617,-0.1617,-0.2119,0.0,0.0,0.0,0.0,0.0,0.0,0.0,0.0,0.0,0.0,0.0,0.0,0.0,0.0,0.0,0.0,0.0,0.0,0.0,0.0,0.0,0.0,0.0,0.0,0.0,0.0,0.0,0.0,0.0,0.0,0.0,0.0,0.0,0.0,0.0,0.0,0.0,0.0,0.0,0.0,0.0,0.0,0.0,0.0,0.0,0.0,0.0,0.0,0.0,0.0,0.0,0.0,0.0,0.0,0.0,0.0,0.0,0.0,0.0,0.0,0.0,0.0,0.0,0.0,0.0,0.0,0.0,0.0,0.0,0.0,0.0,0.0,0.0,0.0,0.0,0.0,0.0,0.0,0.0,0.0,0.0,0.0,0.0,0.0,0.0,0.0,0.0,0.0,0.0,0.0,0.0,0.0,0.0,0.0,0.0,0.0,0.0,0.0,0.0,0.0,0.0,0.0,0.0,0.0,0.0,0.0,0.0,0.0,0.0,-0.1617,-0.1617,-0.1617,-0.1617,-0.1617,-0.212,0.0,0.0,0.0,0.0,0.0,0.0,0.0,0.0,0.0,0.0,0.0,0.0,0.0,0.0,0.0,0.0,0.0,0.0,0.0,0.0,0.0,0.0,0.0,0.0,0.0,0.0,0.0,0.0,0.0,0.0,0.0,0.0,0.0,0.0,0.0,0.0,0.0,0.0,0.0,0.0,0.0,0.0,0.0,0.0,0.0,0.0,0.0,0.0,0.0,0.0,0.0,0.0,0.0,0.0,0.0,0.0,0.0,0.0,0.0,0.0,0.0,0.0,0.0,0.0,0.0,0.0,0.0,0.0,0.0,0.0,0.0,0.0,0.0,0.0,0.0,0.0,0.0,0.0,0.0,0.0,0.0,0.0,0.0,0.0,0.0,0.0,0.0,0.0,0.0,0.0,0.0,0.0,0.0,0.0,0.0,0.0,0.0,0.0,0.0,0.0,0.0,0.0,0.0,0.0,0.0,0.0,0.0,0.0,0.0,-0.1617,0.0,-0.1918,-0.1617,-0.1617,-0.1919,0.0,0.0,0.0,0.0,0.0,0.0,0.0,0.0,0.0,0.0,0.0,0.0,0.0,0.0,0.0,0.0,0.0,0.0,0.0,0.0,0.0,0.0,0.0,0.0,0.0,0.0,0.0,0.0,0.0,0.0,0.0,0.0,0.0,0.0,0.0,0.0,0.0,0.0,0.0,0.0,0.0,0.0,0.0,0.0,0.0,0.0,0.0,0.0,0.0,0.0,0.0,0.0,0.0,0.0,0.0,0.0,0.0,0.0,0.0,0.0,0.0,0.0,0.0,0.0,0.0,0.0,0.0,0.0,0.0,0.0,0.0,0.0,0.0,0.0,0.0,0.0,0.0,0.0,0.0,0.0,0.0,0.0,0.0,0.0,0.0,0.0,0.0,0.0,0.0,0.0,0.0,0.0,0.0,0.0,0.0,0.0,0.0,0.0,0.0,0.0,0.0,0.0,0.0,0.0,0.0,0.0,0.0,0.0,-0.2722,-0.1717,-0.2622,-0.2622,-0.1616,-0.1617,-0.1617,0.0,0.0,0.0,0.0,0.0,0.0,0.0,0.0,0.0,0.0,0.0,0.0,0.0,0.0,0.0,0.0,0.0,0.0,0.0,0.0,0.0,0.0,0.0,0.0,0.0,0.0,0.0,0.0,0.0,0.0,0.0,0.0,0.0,0.0,0.0,0.0,0.0,0.0,0.0,0.0,0.0,0.0,0.0,0.0,0.0,0.0,0.0,0.0,0.0,0.0,0.0,0.0,0.0,0.0,0.0,0.0,0.0,0.0,0.0,0.0,0.0,0.0,0.0,0.0,0.0,0.0,0.0,0.0,0.0,0.0,0.0,0.0,0.0,0.0,0.0,0.0,0.0,0.0,0.0,0.0,0.0,0.0,0.0,0.0,0.0,0.0,0.0,0.0,0.0,0.0,0.0,0.0,0.0,0.0,0.0,0.0,0.0,0.0,0.0,0.0,0.0,0.0,0.0,0.0,0.0,0.0,0.0,0.0,0.0,-0.1718,-0.2621,-0.2723,-0.1617,-0.1617,-0.1617,0.0,0.0,0.0,0.0,0.0,0.0,0.0,0.0,0.0,0.0,0.0,0.0,0.0,0.0,0.0,0.0,0.0,0.0,0.0,0.0,0.0,0.0,0.0,0.0,0.0,0.0,0.0,0.0,0.0,0.0,0.0,0.0,0.0,0.0,0.0,0.0,0.0,0.0,0.0,0.0,0.0,0.0,0.0,0.0,0.0,0.0,0.0,0.0,0.0,0.0,0.0,0.0,0.0,0.0,0.0,0.0,0.0,0.0,0.0,0.0,0.0,0.0,0.0,0.0,0.0,0.0,0.0,0.0,0.0,0.0,0.0,0.0,0.0,0.0,0.0,0.0,0.0,0.0,0.0,0.0,0.0,0.0,0.0,0.0,0.0,0.0,0.0,0.0,0.0,0.0,0.0,0.0,0.0,0.0,0.0,0.0,0.0,0.0,0.0,0.0,0.0,0.0,0.0,0.0,0.0,0.0,0.0,0.0,0.0,-0.2321,-0.3224,-0.3124,-0.1617,-0.1617,-0.1617,-0.1617,0.0,0.0,0.0,0.0,0.0,0.0,0.0,0.0,0.0,0.0,0.0,0.0,0.0,0.0,0.0,0.0,0.0,0.0,0.0,0.0,0.0,0.0,0.0,0.0,0.0,0.0,0.0,0.0,0.0,0.0,0.0,0.0,0.0,0.0,0.0,0.0,0.0,0.0,0.0,0.0,0.0,0.0,0.0,0.0,0.0,0.0,0.0,0.0,0.0,0.0,0.0,0.0,0.0,0.0,0.0,0.0,0.0,0.0,0.0,0.0,0.0,0.0,0.0,0.0,0.0,0.0,0.0,0.0,0.0,0.0,0.0,0.0,0.0,0.0,0.0,0.0,0.0,0.0,0.0,0.0,0.0,0.0,0.0,0.0,0.0,0.0,0.0,0.0,0.0,0.0,0.0,0.0,0.0,0.0,0.0,0.0,0.0,0.0,0.0,0.0,0.0,0.0,0.0,0.0,0.0,0.0,0.0,0.0,-0.3224,-0.4225,-0.3823,-0.1819,-0.1617,-0.1617,0.0,0.0,0.0,0.0,0.0,0.0,0.0,0.0,0.0,0.0,0.0,0.0,0.0,0.0,0.0,0.0,0.0,0.0,0.0,0.0,0.0,0.0,0.0,0.0,0.0,0.0,0.0,0.0,0.0,0.0,0.0,0.0,0.0,0.0,0.0,0.0,0.0,0.0,0.0,0.0,0.0,0.0,0.0,0.0,0.0,0.0,0.0,0.0,0.0,0.0,0.0,0.0,0.0,0.0,0.0,0.0,0.0,0.0,0.0,0.0,0.0,0.0,0.0,0.0,0.0,0.0,0.0,0.0,0.0,0.0,0.0,0.0,0.0,0.0,0.0,0.0,0.0,0.0,0.0,0.0,0.0,0.0,0.0,0.0,0.0,0.0,0.0,0.0,0.0,0.0,0.0,0.0,0.0,0.0,0.0,0.0,0.0,0.0,0.0,0.0,0.0,0.0,0.0,0.0,0.0,0.0,0.0,0.0,0.0,-0.3324,-0.4225,-0.4124,-0.2822,-0.2019,-0.2019,0.0,0.0,0.0,0.0,0.0,0.0,0.0,0.0,0.0,0.0,0.0,0.0,0.0,0.0,0.0,0.0,0.0,0.0,0.0,0.0,0.0,0.0,0.0,0.0,0.0,0.0,0.0,0.0,0.0,0.0,0.0,0.0,0.0,0.0,0.0,0.0,0.0,0.0,0.0,0.0,0.0,0.0,0.0,0.0,0.0,0.0,0.0,0.0,0.0,0.0,0.0,0.0,0.0,0.0,0.0,0.0,0.0,0.0,0.0,0.0,0.0,0.0,0.0,0.0,0.0,0.0,0.0,0.0,0.0,0.0,0.0,0.0,0.0,0.0,0.0,0.0,0.0,0.0,0.0,0.0,0.0,0.0,0.0,0.0,0.0,0.0,0.0,0.0,0.0,0.0,0.0,0.0,0.0,0.0,0.0,0.0,0.0,0.0,0.0,0.0,0.0,0.0,0.0,0.0,0.0,0.0,0.0,0.0,-0.4926,-0.3924,-0.4524,-0.4524,-0.3924,-0.2822,-0.2521,0.0,0.0,0.0,0.0,0.0,0.0,0.0,0.0,0.0,0.0,0.0,0.0,0.0,0.0,0.0,0.0,0.0,0.0,0.0,0.0,0.0,0.0,0.0,0.0,0.0,0.0,0.0,0.0,0.0,0.0,0.0,0.0,0.0,0.0,0.0,0.0,0.0,0.0,0.0,0.0,0.0,0.0,0.0,0.0,0.0,0.0,0.0,0.0,0.0,0.0,0.0,0.0,0.0,0.0,0.0,0.0,0.0,0.0,0.0,0.0,0.0,0.0,0.0,0.0,0.0,0.0,0.0,0.0,0.0,0.0,0.0,0.0,0.0,0.0,0.0,0.0,0.0,0.0,0.0,0.0,0.0,0.0,0.0,0.0,0.0,0.0,0.0,0.0,0.0,0.0,0.0,0.0,0.0,0.0,0.0,0.0,0.0,0.0,0.0,0.0,0.0,0.0,0.0,0.0,0.0,0.0,0.0,0.0,-0.5832,-0.4824,-0.4824,-0.4724,-0.4624,-0.3725,-0.3224,0.0,0.0,0.0,0.0,0.0,0.0,0.0,0.0,0.0,0.0,0.0,0.0,0.0,0.0,0.0,0.0,0.0,0.0,0.0,0.0,0.0,0.0,0.0,0.0,0.0,0.0,0.0,0.0,0.0,0.0,0.0,0.0,0.0,0.0,0.0,0.0,0.0,0.0,0.0,0.0,0.0,0.0,0.0,0.0,0.0,0.0,0.0,0.0,0.0,0.0,0.0,0.0,0.0,0.0,0.0,0.0,0.0,0.0,0.0,0.0,0.0,0.0,0.0,0.0,0.0,0.0,0.0,0.0,0.0,0.0,0.0,0.0,0.0,0.0,0.0,0.0,0.0,0.0,0.0,0.0,0.0,0.0,0.0,0.0,0.0,0.0,0.0,0.0,0.0,0.0,0.0,0.0,0.0,0.0,0.0,0.0,0.0,0.0,0.0,0.0,0.0,0.0,0.0,0.0,0.0,0.0,0.0,0.0,-0.5832,-0.4824,-0.4824,-0.4425,-0.3522,-0.3324,-0.3624,0.0,0.0,0.0,0.0,0.0,0.0,0.0,0.0,0.0,0.0,0.0,0.0,0.0,0.0,0.0,0.0,0.0,0.0,0.0,0.0,0.0,0.0,0.0,0.0,0.0,0.0,0.0,0.0,0.0,0.0,0.0,0.0,0.0,0.0,0.0,0.0,0.0,0.0,0.0,0.0,0.0,0.0,0.0,0.0,0.0,0.0,0.0,0.0,-1.1649,0.0,0.0,0.0,0.0,0.0,0.0,0.0,0.0,0.0,0.0,0.0,0.0,0.0,0.0,0.0,0.0,0.0,0.0,0.0,0.0,0.0,0.0,0.0,0.0,0.0,0.0,0.0,0.0,0.0,0.0,0.0,0.0,0.0,0.0,0.0,0.0,0.0,0.0,0.0,0.0,0.0,0.0,0.0,0.0,0.0,0.0,0.0,0.0,0.0,0.0,0.0,0.0,0.0,0.0,0.0,0.0,0.0,0.0,0.0,-0.6132,-0.5529,-0.5527,-0.5229,-0.4728,-0.4728,-0.4528,0.0,0.0,0.0,0.0,0.0,0.0,0.0,0.0,0.0,0.0,0.0,0.0,0.0,0.0,0.0,0.0,0.0,0.0,0.0,0.0,0.0,0.0,0.0,0.0,0.0,0.0,0.0,0.0,0.0,0.0,0.0,0.0,0.0,0.0,0.0,0.0,0.0,0.0,0.0,0.0,0.0,0.0,0.0,0.0,0.0,0.0,0.0,0.0,0.0,0.0,0.0,0.0,0.0,0.0,0.0,0.0,0.0,0.0,0.0,0.0,0.0,0.0,0.0,0.0,0.0,0.0,0.0,0.0,0.0,0.0,0.0,0.0,0.0,0.0,0.0,0.0,0.0,0.0,0.0,0.0,0.0,0.0,0.0,0.0,0.0,0.0,0.0,0.0,0.0,0.0,0.0,0.0,0.0,0.0,0.0,0.0,0.0,0.0,0.0,0.0,0.0,0.0,0.0,0.0,0.0,0.0,0.0,-0.6936,-0.6437,-0.6437,-0.6234,-0.6132,-0.6134,-0.6337,-0.5432,-0.3324,0.0,0.0,0.0,0.0,0.0,0.0,0.0,0.0,0.0,0.0,0.0,0.0,0.0,0.0,0.0,0.0,0.0,0.0,0.0,0.0,0.0,0.0,0.0,0.0,0.0,0.0,0.0,0.0,0.0,0.0,0.0,0.0,0.0,0.0,0.0,0.0,0.0,0.0,-1.4394,-1.4298,0.0,0.0,0.0,0.0,0.0,0.0,0.0,0.0,-1.1068,0.0,0.0,0.0,0.0,0.0,0.0,0.0,0.0,0.0,0.0,0.0,0.0,0.0,0.0,0.0,0.0,0.0,0.0,0.0,0.0,0.0,0.0,0.0,0.0,0.0,0.0,0.0,0.0,0.0,0.0,0.0,0.0,0.0,0.0,0.0,0.0,0.0,0.0,0.0,0.0,0.0,0.0,0.0,0.0,0.0,0.0,0.0,0.0,0.0,0.0,0.0,0.0,0.0,0.0,0.0,0.0,-0.8038,-0.6939,-0.6437,-0.6437,-0.5529,-0.5024,-0.5127,-0.5932,-0.5432,-0.3425,0.0,0.0,0.0,0.0,0.0,0.0,0.0,0.0,0.0,0.0,0.0,0.0,0.0,0.0,0.0,0.0,0.0,0.0,0.0,0.0,0.0,0.0,0.0,0.0,0.0,0.0,0.0,0.0,0.0,0.0,0.0,0.0,0.0,0.0,0.0,0.0,0.0,0.0,0.0,-1.4394,-1.3695,0.0,0.0,0.0,0.0,0.0,0.0,0.0,0.0,-1.0202,0.0,0.0,0.0,0.0,0.0,0.0,0.0,0.0,0.0,0.0,0.0,0.0,0.0,0.0,0.0,0.0,0.0,0.0,0.0,0.0,0.0,0.0,0.0,0.0,0.0,0.0,0.0,0.0,0.0,0.0,0.0,0.0,0.0,0.0,0.0,0.0,0.0,0.0,0.0,0.0,0.0,0.0,0.0,0.0,0.0,0.0,0.0,0.0,0.0,0.0,0.0,0.0,0.0,0.0,0.0,-0.7939,-0.7537,-0.6528,-0.5118,-0.5924,-0.6229,-0.5629,-0.6634,-0.6232,0.0,0.0,0.0,0.0,0.0,0.0,0.0,0.0,0.0,0.0,0.0,0.0,0.0,0.0,0.0,0.0,0.0,0.0,0.0,0.0,0.0,0.0,0.0,0.0,0.0,0.0,0.0,0.0,0.0,0.0,0.0,0.0,0.0,0.0,0.0,0.0,0.0,0.0,0.0,0.0,-1.449,-1.3903,-1.2686,0.0,0.0,0.0,0.0,0.0,0.0,-0.9995,-0.97,0.0,0.0,0.0,0.0,0.0,0.0,0.0,0.0,0.0,0.0,0.0,0.0,0.0,0.0,0.0,0.0,0.0,0.0,0.0,0.0,0.0,0.0,0.0,0.0,0.0,0.0,0.0,0.0,0.0,0.0,0.0,0.0,0.0,0.0,0.0,0.0,0.0,0.0,0.0,0.0,0.0,0.0,0.0,0.0,0.0,0.0,0.0,0.0,0.0,0.0,0.0,0.0,0.0,0.0,0.0,-0.8038,-0.7739,-0.6725,-0.481,-0.6625,-0.7338,-0.6739,-0.7537,-0.7033,0.0,0.0,0.0,0.0,0.0,0.0,0.0,0.0,0.0,0.0,0.0,0.0,0.0,0.0,0.0,0.0,0.0,0.0,0.0,0.0,0.0,0.0,0.0,0.0,0.0,0.0,0.0,0.0,0.0,0.0,0.0,0.0,0.0,0.0,0.0,0.0,0.0,0.0,0.0,0.0,0.0,-1.4023,-1.3237,-1.1926,0.0,0.0,0.0,0.0,-1.0537,-0.9875,0.0,0.0,0.0,0.0,0.0,0.0,0.0,0.0,0.0,0.0,0.0,0.0,0.0,0.0,0.0,0.0,0.0,0.0,0.0,0.0,0.0,0.0,0.0,0.0,0.0,0.0,0.0,0.0,0.0,0.0,0.0,0.0,0.0,0.0,0.0,0.0,0.0,0.0,0.0,0.0,0.0,0.0,0.0,0.0,0.0,0.0,0.0,0.0,0.0,0.0,0.0,0.0,0.0,0.0,0.0,0.0,-0.7939,-0.7036,-0.6933,-0.7431,-0.6933,-0.6936,-0.7736,-0.7939,-0.7033,0.0,0.0,0.0,0.0,0.0,0.0,0.0,0.0,0.0,0.0,0.0,0.0,0.0,0.0,0.0,0.0,0.0,0.0,0.0,0.0,0.0,0.0,0.0,0.0,0.0,0.0,0.0,0.0,0.0,0.0,0.0,0.0,0.0,0.0,0.0,0.0,0.0,0.0,0.0,0.0,0.0,-1.389,-1.2887,-1.1944,-1.1328,0.0,0.0,-1.0334,-1.1645,-1.0997,0.0,0.0,0.0,0.0,0.0,0.0,0.0,0.0,0.0,0.0,0.0,0.0,0.0,0.0,0.0,0.0,0.0,0.0,0.0,0.0,0.0,0.0,0.0,0.0,0.0,0.0,0.0,0.0,0.0,0.0,0.0,0.0,0.0,0.0,0.0,0.0,0.0,0.0,0.0,0.0,0.0,0.0,0.0,0.0,0.0,0.0,0.0,0.0,0.0,0.0,0.0,0.0,0.0,0.0,0.0,-0.8038,-0.7939,-0.7537,-0.7543,-0.7955,-0.7543,-0.7238,-0.7138,-0.764,-0.7235,0.0,0.0,0.0,0.0,0.0,0.0,0.0,0.0,0.0,0.0,0.0,0.0,0.0,0.0,0.0,0.0,0.0,0.0,0.0,0.0,0.0,0.0,0.0,0.0,0.0,0.0,0.0,0.0,0.0,0.0,0.0,0.0,0.0,0.0,0.0,0.0,0.0,0.0,0.0,0.0,0.0,0.0,-1.3125,-1.2164,0.0,0.0,0.0,-0.9923,-1.1357,0.0,0.0,0.0,0.0,0.0,0.0,0.0,0.0,0.0,0.0,0.0,0.0,0.0,0.0,0.0,0.0,0.0,0.0,0.0,0.0,0.0,0.0,0.0,0.0,0.0,0.0,0.0,0.0,0.0,0.0,0.0,0.0,0.0,0.0,0.0,0.0,0.0,0.0,0.0,0.0,0.0,0.0,0.0,0.0,0.0,0.0,0.0,0.0,0.0,0.0,0.0,0.0,0.0,0.0,0.0,0.0,0.0,-0.8038,-0.8038,-0.7949,-0.7965,-0.7949,-0.764,-0.6836,-0.754,0.0,0.0,0.0,0.0,0.0,0.0,0.0,0.0,0.0,0.0,0.0,0.0,0.0,0.0,0.0,0.0,0.0,0.0,0.0,0.0,0.0,0.0,0.0,0.0,0.0,0.0,0.0,-1.4353,0.0,0.0,0.0,0.0,0.0,0.0,0.0,0.0,0.0,0.0,0.0,0.0,0.0,0.0,-1.2926,-1.3709,-1.2829,-1.2635,0.0,0.0,-1.0043,-1.1341,-1.0369,-0.9466,0.0,0.0,0.0,0.0,0.0,0.0,0.0,0.0,0.0,0.0,0.0,0.0,0.0,0.0,0.0,0.0,0.0,0.0,0.0,0.0,0.0,0.0,0.0,0.0,0.0,0.0,0.0,0.0,0.0,0.0,0.0,0.0,0.0,0.0,0.0,0.0,0.0,0.0,0.0,0.0,0.0,0.0,0.0,0.0,0.0,0.0,0.0,0.0,0.0,0.0,0.0,0.0,0.0,0.0,0.0,-0.8038,-0.8038,-0.8041,-0.8041,-0.8038,-0.7939,-0.7939,-0.7939,-0.7601,0.0,0.0,0.0,0.0,0.0,0.0,0.0,0.0,0.0,0.0,0.0,0.0,0.0,0.0,0.0,0.0,0.0,0.0,0.0,0.0,0.0,0.0,0.0,0.0,0.0,0.0,0.0,0.0,0.0,0.0,0.0,0.0,0.0,0.0,0.0,0.0,0.0,0.0,0.0,0.0,0.0,-1.3119,-1.4394,-1.3908,-1.38,0.0,0.0,-1.1448,-1.2431,-1.0877,-0.9612,-0.9624,0.0,0.0,0.0,0.0,0.0,0.0,0.0,0.0,0.0,0.0,0.0,0.0,0.0,0.0,0.0,0.0,0.0,0.0,0.0,0.0,0.0,0.0,0.0,0.0,0.0,0.0,0.0,0.0,0.0,0.0,0.0,0.0,0.0,0.0,0.0,0.0,0.0,0.0,0.0,0.0,0.0,0.0,0.0,0.0,0.0,0.0,0.0,0.0,0.0,0.0,0.0,0.0,0.0,-0.8038,-0.8038,-0.8038,-0.8085,-0.8177,-0.818,-0.8221,-0.8313,-0.8309,-0.813,0.0,0.0,0.0,0.0,0.0,0.0,0.0,0.0,0.0,0.0,0.0,0.0,0.0,0.0,0.0,0.0,0.0,0.0,0.0,0.0,0.0,0.0,0.0,0.0,0.0,0.0,0.0,0.0,-1.4867,-1.4771,-1.4382,0.0,0.0,0.0,0.0,0.0,0.0,0.0,0.0,0.0,0.0,-1.2926,-1.3607,-1.3033,0.0,0.0,-1.2052,-1.0596,-1.1658,-1.0591,-0.9646,-0.9644,-0.9614,0.0,0.0,0.0,0.0,0.0,0.0,0.0,0.0,0.0,0.0,0.0,0.0,0.0,0.0,0.0,0.0,0.0,0.0,0.0,0.0,0.0,0.0,0.0,0.0,0.0,0.0,0.0,0.0,0.0,0.0,0.0,0.0,0.0,0.0,0.0,0.0,0.0,0.0,0.0,0.0,0.0,0.0,0.0,0.0,0.0,0.0,0.0,0.0,0.0,0.0,0.0,0.0,-0.8062,-0.8106,-0.8109,-0.818,-0.8433,-0.8336,-0.8381,-0.8476,-0.8482,-0.8503,0.0,0.0,0.0,0.0,0.0,0.0,0.0,0.0,0.0,0.0,0.0,0.0,0.0,0.0,0.0,0.0,0.0,0.0,0.0,0.0,0.0,0.0,0.0,0.0,0.0,0.0,0.0,0.0,-1.4298,-1.41,-1.3516,0.0,0.0,0.0,0.0,0.0,0.0,0.0,0.0,0.0,0.0,-1.2926,-1.3516,-1.2899,-1.2753,-1.3825,-1.1816,-1.0371,-1.1264,-1.0373,-0.9587,-0.973,0.0,0.0,0.0,0.0,0.0,0.0,0.0,0.0,0.0,0.0,0.0,0.0,0.0,0.0,0.0,0.0,0.0,0.0,0.0,0.0,0.0,0.0,0.0,0.0,0.0,0.0,0.0,0.0,0.0,0.0,0.0,0.0,0.0,0.0,0.0,0.0,0.0,0.0,0.0,0.0,0.0,0.0,0.0,0.0,0.0,0.0,0.0,0.0,0.0,0.0,0.0,0.0,0.0,0.0,-0.8361,-0.8364,-0.844,-0.8685,-0.8584,-0.8479,-0.8492,-0.8486,-0.8557,-0.8699,0.0,0.0,0.0,0.0,0.0,0.0,0.0,0.0,0.0,0.0,0.0,0.0,0.0,0.0,0.0,0.0,0.0,0.0,0.0,0.0,0.0,0.0,0.0,0.0,0.0,0.0,-1.41,-1.4298,-1.41,0.0,0.0,0.0,0.0,0.0,0.0,0.0,0.0,0.0,0.0,-1.342,-1.3227,-1.4508,-1.3831,-1.348,-1.4074,-1.2552,-1.1362,-1.1681,-1.0543,-0.9661,0.0,0.0,0.0,0.0,0.0,0.0,0.0,0.0,0.0,0.0,0.0,0.0,0.0,0.0,0.0,0.0,0.0,0.0,0.0,0.0,0.0,0.0,0.0,0.0,0.0,0.0,0.0,-1.3398,-1.3398,0.0,0.0,0.0,0.0,0.0,0.0,0.0,0.0,0.0,0.0,0.0,-1.411,-1.4196,0.0,0.0,0.0,0.0,0.0,0.0,0.0,0.0,0.0,0.0,0.0,0.0,-0.9412,-0.9478,-1.0301,-1.0867,-1.094,-1.0221,-0.985,-0.9954,-0.9211,-0.8917,-0.9187,0.0,0.0,0.0,0.0,0.0,0.0,0.0,0.0,0.0,0.0,0.0,0.0,0.0,0.0,0.0,0.0,0.0,0.0,0.0,0.0,0.0,0.0,0.0,0.0,0.0,-1.2145,0.0,0.0,0.0,0.0,0.0,0.0,0.0,0.0,0.0,0.0,0.0,-1.4678,-1.4817,-1.453,-1.443,-1.4935,-1.4395,-1.4133,0.0,0.0,0.0,0.0,0.0,0.0,0.0,0.0,0.0,0.0,0.0,0.0,0.0,0.0,-0.9908,-0.9673,-0.9579,-0.9535,-0.9535,0.0,0.0,0.0,0.0,0.0,0.0,0.0,0.0,0.0,0.0,0.0,0.0,0.0,0.0,0.0,0.0,-1.3568,0.0,0.0,0.0,0.0,0.0,0.0,0.0,0.0,-1.3972,-1.4216,-1.4669,-1.4669,-1.483,0.0,-1.5117,-1.4787,0.0,0.0,0.0,0.0,0.0,0.0,0.0,0.0,-1.0641,-1.0771,-1.1624,-1.2111,-1.22,-1.1576,-1.1203,-1.1319,-1.0245,-0.9702,-0.9706,-0.9926,-1.0147,0.0,0.0,0.0,0.0,0.0,0.0,0.0,0.0,0.0,0.0,0.0,0.0,0.0,0.0,0.0,0.0,0.0,0.0,0.0,0.0,0.0,0.0,0.0,-1.2183,0.0,0.0,0.0,0.0,0.0,0.0,0.0,0.0,0.0,-1.3333,-1.4242,-1.5026,-1.5083,-1.5113,-1.5005,-1.4587,0.0,0.0,0.0,0.0,0.0,0.0,0.0,-1.0301,-1.0278,-1.0355,-1.0375,-1.0193,-1.016,-1.016,-1.016,0.0,0.0,-0.9855,-0.9811,-0.9811,-0.9815,-1.0012,-1.0457,-1.1269,-1.109,-1.0936,0.0,0.0,0.0,0.0,0.0,0.0,0.0,0.0,-1.4082,-1.4088,0.0,-1.3822,0.0,0.0,0.0,0.0,0.0,0.0,0.0,0.0,-1.4529,-1.4689,-1.506,-1.5066,-1.5221,-1.5398,-1.5411,-1.5545,-1.569,-1.5258,0.0,0.0,0.0,0.0,0.0,0.0,-1.1904,-1.2183,-1.2317,-1.2418,-1.2512,-1.2521,-1.2417,-1.2413,-1.1542,-1.0895,-1.0472,-1.0472,-1.0582,-1.0798,-1.0794,0.0,0.0,0.0,0.0,0.0,0.0,0.0,0.0,0.0,0.0,0.0,0.0,0.0,0.0,0.0,0.0,0.0,0.0,0.0,0.0,-1.2828,0.0,0.0,0.0,0.0,0.0,0.0,0.0,0.0,0.0,0.0,-1.368,-1.4616,-1.5352,-1.5143,0.0,0.0,0.0,0.0,-1.2336,-1.1584,-1.0895,-1.0684,-1.0794,-1.0798,-1.0744,-1.0469,0.0,0.0,-1.0322,-1.018,-1.0188,-1.018,-1.0197,-1.0176,-1.018,-1.0156,-1.0144,-1.0144,-1.085,-1.1596,-1.17,-1.226,-1.2874,-1.6116,0.0,0.0,0.0,0.0,-1.4985,-1.4664,-1.4088,-1.4088,-1.4088,-1.4088,-1.4004,0.0,0.0,0.0,0.0,0.0,0.0,-1.4831,-1.5082,-1.5089,-1.5335,-1.5819,-1.5812,-1.5886,-1.5994,-1.5994,-1.5947,-1.5825,-1.5644,-1.5266,-1.4765,0.0,0.0,0.0,0.0,-1.3346,-1.3483,-1.4389,-1.4837,-1.4911,-1.4159,-1.3393,-1.2724,-1.2398,-1.2398,-1.2733,-1.2733,-1.2842,-1.3058,-1.1611,0.0,0.0,0.0,0.0,0.0,0.0,0.0,0.0,0.0,0.0,0.0,0.0,0.0,0.0,0.0,0.0,0.0,0.0,0.0,-1.1704,-1.273,-1.3448,0.0,0.0,0.0,0.0,0.0,0.0,0.0,0.0,0.0,-1.4367,-1.4972,-1.5567,0.0,0.0,-1.5662,-1.5446,-1.5499,-1.5435,-1.5111,0.0,0.0,0.0,-1.3108,-1.2569,-1.0849,-1.0619,-1.0711,-1.055,-1.0542,-1.0542,-1.0538,-1.0538,-1.0542,-1.053,-1.0331,-1.0176,-1.0264,-1.0473,-1.0884,-1.1502,-1.1394,-1.1291,-1.7747,-1.7755,-1.6527,-1.5869,-1.5553,-1.5801,-1.5394,-1.4587,-1.4704,-1.4753,-1.4767,-1.4554,-1.4436,-1.4442,-1.4697,0.0,0.0,0.0,-1.5369,-1.5659,-1.5659,-1.5917,-1.6302,-1.6309,-1.622,-1.6218,-1.6224,-1.6028,-1.5825,-1.5945,-1.5909,-1.582,0.0,0.0,-1.4393,-1.4493,-1.4594,-1.469,-1.5488,-1.5885,-1.5885,-1.5351,-1.4589,-1.3701,-1.3804,-1.3809,-1.3809,-1.3809,-1.3917,-1.4024,-1.2798,-1.2365,0.0,0.0,0.0,0.0,0.0,0.0,0.0,0.0,0.0,0.0,0.0,-1.1833,0.0,0.0,0.0,0.0,-1.164,-1.1746,-1.257,-1.2885,0.0,0.0,0.0,0.0,0.0,0.0,0.0,-1.3832,-1.4818,-1.5441,-1.5334,-1.5529,-1.581,-1.6199,-1.6105,-1.5785,-1.5672,0.0,-1.5867,-1.5441,-1.5215,-1.4888,-1.4239,-1.3398,-1.2214,-1.0911,-1.0692,-1.0692,-1.0692,-1.0692,-1.0692,-1.0692,-1.0692,-1.0692,-1.0692,-1.0513,-1.0371,-1.0371,-1.0371,-1.0584,-1.1217,-1.0797,-1.0584,-1.9145,-1.9659,-1.8074,-1.6828,-1.6064,-1.6648,-1.635,-1.5573,-1.5782,-1.5827,-1.567,-1.5185,-1.5066,-1.5087,-1.5246,0.0,-1.5452,-1.5645,-1.5896,-1.6162,-1.626,-1.6408,-1.6676,-1.6676,-1.6494,-1.6224,-1.6245,-1.6157,-1.5879,-1.6166,-1.6417,-1.6437,-1.5947,-1.5821,-1.5896,-1.5732,-1.565,-1.5885,-1.5885,-1.5885,-1.5885,-1.6217,-1.5885,-1.512,-1.5441,-1.5227,-1.446,-1.4347,-1.4347,-1.4347,-1.4352,-1.4358,-1.4245,0.0,0.0,0.0,0.0,0.0,0.0,0.0,0.0,0.0,0.0,0.0,0.0,0.0,0.0,0.0,-1.2526,0.0,-1.3706,-1.2955,0.0,0.0,0.0,-1.2955,-1.4239,-1.5316,-1.5761,-1.5553,0.0,0.0,-1.643,0.0,-1.608,-1.6324,-1.6111,-1.5672,-1.49,-1.512,-1.4798,-1.4046,-1.4035,-1.4245,-1.4347,-1.269,-1.1389,-1.1223,-1.0907,-1.0907,-1.0907,-1.0692,-1.0692,-1.0911,-1.0802,-1.0907,-1.0907,-1.0891,-1.0798,-1.0672,-1.0676,-1.068,-1.0777,-1.0684,-1.0696,-2.0961,-2.1043,-2.0604,-1.9678,-1.8417,-1.8425,-1.766,-1.6451,-1.6359,-1.5884,-1.5212,-1.5019,-1.5181,-1.5579,-1.5832,-1.6042,-1.6271,-1.6364,-1.65,-1.6764,-1.6771,-1.6901,-1.7138,-1.7145,-1.6958,-1.6501,-1.6731,-1.6553,-1.6179,-1.646,-1.7114,-1.8117,-1.7917,-1.7184,-1.6219,-1.6119,-1.6043,-1.5885,-1.5885,-1.5885,-1.5885,-1.6105,-1.6318,-1.6305,-1.663,-1.6736,-1.6717,-1.6823,-1.6717,-1.6829,-1.6793,-1.6367,-1.5541,-1.6788,0.0,0.0,0.0,0.0,0.0,0.0,0.0,0.0,0.0,-1.2422,-1.145,0.0,-1.4956,0.0,-1.3166,-1.3058,-1.166,-1.2096,0.0,0.0,-1.3063,-1.3599,-1.6393,-1.6287,-1.618,-1.7047,-1.716,-1.7067,-1.6967,-1.6736,-1.6624,-1.6961,-1.6537,-1.6211,-1.6199,-1.6518,-1.6524,-1.5974,-1.5648,-1.5429,-1.5322,-1.4228,-1.3249,-1.327,-1.2635,-1.1987,-1.1987,-1.1232,-1.1017,-1.1769,-1.1982,-1.1982,-1.1982,-1.1982,-1.1664,-1.0907,-1.0692,-1.0692,-1.0692,-1.0802,-1.0899,-2.169,-2.1505,-2.1598,-2.132,-2.068,-2.0154,-1.8922,-1.7383,-1.7451,-1.6914,-1.5875,-1.5748,-1.5814,-1.5971,-1.6337,-1.6621,-1.6777,-1.6871,-1.6958,-1.716,-1.7153,-1.7246,-1.7333,-1.7333,-1.7124,-1.6791,-1.7433,-1.7592,-1.7351,-1.7938,-1.8476,-1.8853,-1.9291,-1.8855,-1.7439,-1.718,-1.6736,-1.6105,-1.5998,-1.5885,-1.5891,-1.6318,-1.6524,-1.673,-1.7166,-1.749,-1.7589,-1.7589,-1.7589,-1.7589,-1.7656,-1.7342,-1.6736,-1.7709,-1.7541,0.0,0.0,0.0,0.0,0.0,0.0,0.0,0.0,0.0,0.0,0.0,-1.4961,0.0,-1.2639,-1.2422,-1.1017,-1.1991,-1.3063,-1.4024,-1.403,-1.4888,-1.7364,-1.7047,-1.6935,-1.7477,-1.7477,-1.7272,-1.7173,-1.7179,-1.7073,-1.7179,-1.6967,-1.6636,-1.6736,-1.6955,-1.7067,-1.673,-1.6723,-1.6636,-1.6674,-1.5672,-1.503,-1.5421,-1.4293,-1.3166,-1.3166,-1.2635,-1.2309,-1.2417,-1.2417,-1.22,-1.1769,-1.1744,-1.1581,-1.1044,-1.0879,-1.0895,-1.0834,-1.0895,-1.0984,-2.1948,-2.1752,-2.1948,-2.2266,-2.2568,-2.1748,-2.0301,-1.851,-1.8991,-1.8417,-1.7197,-1.6836,-1.6501,-1.6319,-1.6791,-1.7073,-1.7066,-1.7246,-1.7333,-1.7333,-1.7333,-1.7333,-1.7333,-1.734,-1.7224,-1.723,-1.8149,-1.8536,-1.8449,-1.966,-1.9822,-1.913,-2.0429,-2.0475,-1.9339,-1.8708,-1.7779,-1.6636,-1.6205,-1.6117,-1.6154,-1.6436,-1.6643,-1.6781,-1.7285,-1.7582,-1.7589,-1.7589,-1.7589,-1.7595,-1.7609,-1.7622,-1.7602,-1.8115,-1.8531,0.0,-1.7986,0.0,0.0,0.0,0.0,0.0,0.0,0.0,0.0,-1.4412,-1.3345,-1.1791,-1.1782,-1.1678,-1.145,-1.2422,-1.3496,-1.4352,-1.5316,-1.6399,-1.7477,-1.7589,-1.7589,-1.7589,-1.7589,-1.7477,-1.7279,-1.7411,-1.7523,-1.7285,-1.7279,-1.706,-1.6842,-1.6955,-1.7067,-1.673,-1.7153,-1.7503,-1.7457,-1.6768,-1.6455,-1.7135,-1.5749,-1.4352,-1.4347,-1.4132,-1.3814,-1.3058,-1.2847,-1.2427,-1.1472,-1.1629,-1.1522,-1.1426,-1.1545,-1.1376,-1.1155,-1.1041,-1.1086,-2.2814,-2.2804,-2.2891,-2.2949,-2.3008,-2.2843,-2.1992,-2.0722,-2.0632,-1.9579,-1.7772,-1.7217,-1.6885,-1.6885,-1.7153,-1.7239,-1.7239,-1.7333,-1.7333,-1.7333,-1.7333,-1.7333,-1.7333,-1.7312,-1.7662,-1.8296,-1.7963,-1.8039,-1.8765,-1.9184,-1.9758,-2.0484,-2.1667,-2.2013,-2.181,0.0,0.0,0.0,-1.7358,-1.7051,-1.7277,-1.665,-1.6643,-1.6965,-1.719,0.0,-1.7582,-1.7589,-1.7589,-1.7589,-1.7635,0.0,0.0,0.0,0.0,0.0,0.0,0.0,0.0,0.0,0.0,0.0,-1.5825,-1.5097,-1.5204,-1.4153,-1.3093,-1.2351,-1.2654,-1.297,-1.2856,-1.3922,-1.499,-1.5749,-1.608,-1.6617,-1.7477,-1.7589,-1.7589,-1.7589,-1.7589,-1.7582,-1.7589,-1.7589,-1.7589,-1.7483,-1.7477,-1.7265,-1.673,-1.6955,-1.7067,-1.6842,-1.7265,-1.7589,-1.7609,-1.7384,-1.7272,-1.7411,-1.6537,-1.5642,-1.5535,-1.4781,-1.4567,-1.4894,-1.446,-1.4207,-1.4926,-1.4576,-1.3679,-1.3218,-1.2871,-1.2465,-1.1413,-1.1293,-1.1411,-2.3144,0.0,-2.3144,-2.3144,0.0,-2.3144,-2.2775,-2.2129,-2.1587,-2.0141,-1.8141,-1.7426,-1.7066,-1.6979,-1.7239,-1.7333,-1.7333,-1.7333,-1.7333,-1.734,-1.8044,-1.83,-1.8308,-1.8909,-1.9447,-1.9933,-1.9952,-2.0129,-2.0615,-2.1298,-2.1692,-2.17,-2.2837,-2.3038,-2.2526,-2.2316,-2.0767,-1.7891,-1.7358,-1.7013,-1.6725,-1.6499,-1.6454,-1.6932,0.0,0.0,0.0,0.0,0.0,0.0,0.0,0.0,0.0,0.0,0.0,-1.937,-1.9055,-1.8663,-1.8104,-1.7869,-1.8109,-1.8653,-1.7853,-1.6717,-1.5267,-1.4283,-1.3413,-1.2446,-1.2659,-1.3078,-1.3506,-1.4465,-1.5535,-1.6187,-1.6836,-1.7259,-1.7582,-1.7589,-1.7589,-1.7589,-1.7589,-1.7589,-1.7589,-1.7324,-1.7317,-1.7542,-1.7455,-1.7219,-1.681,-1.6961,-1.7173,-1.6955,-1.7272,-1.7589,-1.7589,-1.7589,-1.7589,-1.7477,-1.7147,-1.6829,-1.6717,-1.6287,-1.5861,-1.5974,-1.5415,-1.5338,-1.5355,-1.5116,-1.4761,-1.3954,-1.3611,-1.3002,-1.1841,-1.15,-1.1533,-2.3047,-2.3144,-2.3057,-2.3057,-2.3144,-2.3144,-2.3144,-2.3047,0.0,0.0,0.0,-1.7606,-1.7246,-1.7073,-1.7419,-1.7598,-1.7606,-1.7845,-1.7968,-1.7976,-1.9233,-1.9771,-1.9787,-2.0808,-2.1337,-2.1427,-2.1987,-2.2391,-2.2518,-2.3438,-2.3438,-2.2728,-2.3637,-2.361,-2.2633,-2.2933,-2.1249,-1.7832,-1.7718,-1.7378,-1.6693,-1.6606,-1.6737,-1.7014,-1.7457,-1.7786,-1.8125,-1.8373,-1.8497,-1.8497,-1.8084,-1.7735,-1.7766,-1.8874,-1.9745,-2.0266,-2.0281,-2.0237,-2.023,-1.9989,-1.985,-1.9842,-1.9601,-1.8365,-1.5893,-1.5075,-1.4056,-1.2526,-1.2635,-1.3181,-1.4046,-1.5334,-1.6187,-1.6617,-1.7477,-1.7911,-1.7687,-1.7589,-1.7589,-1.7582,-1.764,-1.7502,-1.7482,-1.7074,-1.6995,-1.7415,-1.7368,-1.712,-1.6836,-1.6993,-1.706,-1.7067,-1.7378,-1.7589,-1.7589,-1.7589,-1.7589,-1.7589,-1.7635,-1.7662,-1.7662,-1.7702,-1.741,-1.6599,-1.641,-1.6113,-1.5526,-1.5609,-1.5451,-1.4945,-1.4621,-1.4013,-1.2813,-1.235,-1.2192,-2.2969,-2.3047,-2.2882,-2.2969,-2.3144,-2.3144,-2.3144,-2.296,-2.123,-1.9778,-1.8703,-1.7692,-1.7333,-1.7333,-1.8156,-1.8611,-1.8719,-1.9835,-2.045,0.0,-2.0908,-2.1094,-2.0937,-2.1795,-2.2205,-2.2256,-2.2158,-2.2255,-2.2509,-2.2728,-2.2627,-2.2619,-2.3646,-2.3673,-2.277,-2.2342,-2.1172,-1.9117,-1.9671,-1.9896,-1.9553,-1.8178,-1.7777,-1.8384,-1.7857,-1.7883,-1.8373,-1.8497,-1.8497,-1.8497,-1.8537,-1.8537,-1.8373,-1.9327,-2.0156,-2.0891,-2.0545,-2.0237,-2.0245,-2.0194,-2.0172,-2.0164,-2.012,-1.9708,-1.8759,-1.7377,-1.5458,-1.2783,-1.3633,-1.4725,-1.5636,-1.7351,-1.8422,-1.8108,-1.8206,-1.8108,-1.7687,-1.7569,-1.7569,-1.7562,-1.759,-1.7331,-1.6962,-1.7154,-1.7367,-1.7338,-1.7408,-1.7417,-1.7079,-1.6889,-1.6749,-1.6842,-1.7265,-1.7582,-1.7649,-1.7595,-1.7642,-1.7589,-1.7829,-1.7969,-1.7963,-1.8136,-1.8167,-1.8117,-1.7363,-1.7254,-1.7785,-1.7464,-1.7407,-1.7817,-1.7443,-1.6368,-1.5258,-1.4898,-1.4222,-2.2608,-2.2696,-2.2618,-2.2618,-2.2706,-2.2882,-2.2325,-2.1329,-2.043,-1.9877,-1.9422,-1.7684,-1.6965,-1.7167,-1.7596,-1.8142,-1.8816,-1.9534,-2.0268,-2.0864,-2.1787,-2.2162,-2.2109,-2.3116,-2.351,-2.3564,-2.3277,-2.3267,-2.342,-2.3125,-2.3019,-2.3108,-2.3408,-2.3208,-2.2853,-2.2346,-2.1567,-2.0442,-1.9758,-1.9162,-1.84,-1.7669,-1.7425,-1.7892,-1.7817,-1.8013,-1.8382,-1.8731,-1.8971,-1.8965,-1.9092,-1.9092,-1.9078,-1.9772,-2.0499,-2.1151,-2.0943,-2.0772,-2.0764,-2.0596,-2.042,-2.0259,-2.0237,-2.0142,-1.9808,-1.8265,-1.6435,-1.4539,-1.4601,-1.5252,-1.6605,-1.7786,-1.8429,-1.8646,-1.8541,-1.8213,-1.7877,-1.7539,-1.7466,-1.7556,-1.7558,-1.7252,-1.6335,-1.6685,-1.7204,-1.7141,-1.7318,-1.7238,-1.7169,-1.72,-1.7194,-1.72,-1.7744,-1.8076,-1.8063,-1.8076,-1.8076,-1.8076,-1.819,-1.8277,-1.8277,-1.8424,-1.8484,-1.851,-1.8151,-1.8188,-1.8811,-1.8709,-1.8764,-1.8907,-1.8323,-1.7467,-1.7409,-1.6695,-1.4976,-2.2353,-2.2441,-2.2353,-2.2353,-2.2344,-2.2157,-2.1347,-2.0158,-1.9613,-1.9662,-1.9804,-1.7984,-1.7348,-1.766,-1.8052,-1.8667,-1.9495,-1.999,-2.0743,-2.1559,-2.2691,-2.3268,-2.3295,-2.4095,-2.444,-2.4421,-2.4159,-2.4015,-2.3978,-2.3611,-2.3313,-2.3181,-2.2908,-2.2614,-2.2438,-2.1949,-2.1527,-2.0881,-1.9403,-1.8218,-1.7647,-1.7424,-1.7418,-1.7477,-1.7842,-1.8205,-1.8525,-1.9127,-1.9366,-1.9366,-1.9366,-1.9366,-1.9482,-2.0183,-2.0672,-2.1183,-2.1247,-2.1211,-2.1196,-2.0976,-2.072,-2.0479,-2.0457,-2.0435,-2.0347,-1.9206,-1.7921,-1.6775,-1.626,-1.6443,-1.7378,-1.7905,-1.8192,-1.8679,-1.8547,-1.8164,-1.7798,-1.7394,-1.7163,-1.7367,-1.7358,-1.6973,-1.6347,-1.6373,-1.6894,-1.7251,-1.7281,-1.7264,-1.7366,-1.7563,-1.769,-1.7853,-1.8138,-1.8464,-1.8497,-1.847,-1.8457,-1.8497,-1.8544,-1.8577,-1.8597,-1.8631,-1.8698,-1.8758,-1.8878,-1.8897,-1.9045,-1.9192,-1.9359,-1.9329,-1.8693,-1.8342,-1.8946,-1.7563,-1.5693,-2.2264,-2.2353,-2.2185,-2.2274,-2.2167,-2.0619,-2.0249,-2.0503,-1.878,-1.8792,-1.9788,-1.8996,-1.8989,-1.9964,-2.107,-2.1631,-2.1856,-2.3204,-2.3771,-2.3914,-2.4491,-2.4571,-2.423,-2.4402,-2.444,-2.4177,-2.3767,-2.3602,-2.3584,-2.3103,-2.2722,-2.2325,-2.228,-2.1878,-2.1121,-2.0619,-2.0187,-1.9754,-1.8658,-1.8503,-1.9184,-1.878,-1.8591,-1.8665,-1.8481,-1.85,-1.8765,-1.9243,-1.9366,-1.9366,-1.9366,-1.9366,-1.9482,-1.9938,-2.0543,-2.1191,-2.1254,-2.1211,-2.1211,-2.1181,-2.113,-2.1123,-2.1086,-2.1104,-2.11,-2.0922,-2.0317,-1.9203,-1.9198,-1.8686,-1.784,-1.8415,-1.8815,-1.8468,-1.8221,-1.7803,-1.7285,-1.6867,-1.6747,-1.6747,-1.6857,-1.6742,-1.654,-1.6633,-1.7074,-1.7669,-1.7644,-1.762,-1.7692,-1.7919,-1.804,-1.8269,-1.8405,-1.8564,-1.8551,-1.8504,-1.8571,-1.8564,-1.8731,-1.8851,-1.8918,-1.9072,-1.9272,-1.9125,-1.9239,-1.9272,-1.9292,-1.9359,-1.9359,-1.9392,-1.9263,-1.9256,-1.9283,-1.8311,-1.6985,-2.1919,-2.2008,-2.1919,-2.2008,-2.1989,-2.0701,-2.0059,-1.9679,-1.8326,-1.8153,-1.8758,-1.9255,-1.9726,-2.0309,-2.0865,-2.1519,-2.2136,-2.2912,-2.3592,-2.4217,-2.4375,-2.4319,-2.3901,-2.3883,-2.3772,-2.3455,-2.3272,-2.3198,-2.303,-2.2514,-2.191,-2.1494,-2.1208,-2.0853,-2.0523,-2.0054,-1.9795,-1.9563,-1.9083,-1.9071,-1.9354,-1.849,-1.7929,-1.8052,-1.8248,-1.8415,-1.8655,-1.9127,-1.9366,-1.9366,-1.9366,-1.9366,-1.9366,-1.9938,-2.0536,-2.1191,-2.1247,-2.1211,-2.1211,-2.1211,-2.1211,-2.1211,-2.1211,-2.1152,-2.1171,-2.1156,-2.0972,-2.0457,-1.9932,-1.922,-1.8695,-1.8697,-1.8556,-1.8182,-1.7701,-1.7358,-1.7141,-1.6765,-1.6506,-1.6647,-1.6348,-1.6163,-1.634,-1.6784,-1.7324,-1.778,-1.7759,-1.7887,-1.7767,-1.7911,-1.8062,-1.8364,-1.8551,-1.8797,-1.8991,-1.9005,-1.8998,-1.9025,-1.9105,-1.9185,-1.9199,-1.9259,-1.9366,-1.9366,-1.9366,-1.9366,-1.9352,-1.9366,-1.9366,-1.9366,-1.9366,-1.9366,-1.9366,-1.9004,-1.8415,-2.1642,-2.1553,-2.1544,-2.1731,-2.182,-2.061,-1.9687,-1.9047,-1.8326,-1.8112,-1.8527,-1.9733,-2.054,-2.1039,-2.1288,-2.1892,-2.2635,-2.2898,-2.3375,-2.3996,-2.3987,-2.3767,-2.3419,-2.3382,-2.314,-2.2875,-2.2841,-2.2628,-2.2324,-2.1776,-2.1198,-2.0671,-2.0283,-2.0019,-1.9837,-1.9554,-1.9363,-1.9396,-1.9177,-1.929,-1.9605,-1.8297,-1.755,-1.7855,-1.8188,-1.8421,-1.8421,-1.901,-1.9366,-1.9366,-1.9366,-1.9366,-1.9482,-1.9931,-2.0413,-2.1039,-2.1118,-2.1089,-2.1211,-2.1211,-2.1211,-2.1211,-2.1211,-2.1211,-2.1211,-2.1211,-2.1237,-2.1121,-2.0347,-1.9793,-1.9459,-1.9042,-1.8525,-1.8232,-1.7615,-1.7223,-1.712,-1.6704,-1.6381,-1.6421,-1.6308,-1.6203,-1.6583,-1.7226,-1.7747,-1.7851,-1.8049,-1.8008,-1.7784,-1.783,-1.8077,-1.8305,-1.8648,-1.8874,-1.9366,-1.9319,-1.9366,-1.9366,-1.9345,-1.9339,-1.9366,-1.9366,-1.9366,-1.9366,-1.9366,-1.9366,-1.9366,-1.9366,-1.9366,-1.9366,-1.9366,-1.9366,-1.9366,-1.9366,-1.9366,-2.1463,-2.1087,-2.0997,-2.1275,-2.1553,-1.9712,-1.888,-1.8788,-1.8696,-1.9075,-1.9652,-2.0699,-2.1595,-2.2306,-2.3132,-2.3908,-2.4016,-2.4035,-2.3843,-2.3629,-2.3602,-2.3363,-2.2997,-2.2893,-2.2866,-2.2823,-2.2511,-2.1907,-2.1212,-2.1059,-2.0564,-1.9729,-1.9637,-1.9371,-1.9012,-1.892,-1.8827,-1.8859,-1.854,-1.9034,-2.0339,-1.8545,-1.7896,-1.8667,-1.8532,-1.8421,-1.8421,-1.901,-1.9366,-1.9366,-1.9366,-1.9366,-1.9482,-1.9707,-2.004,-2.0615,-2.0723,-2.0845,-2.1089,-2.1203,-2.1211,-2.1211,-2.1211,-2.1211,-2.1211,-2.1211,-2.1189,-2.1174,-2.0979,-2.0656,-2.0106,-1.9456,-1.8935,-1.8643,-1.799,-1.7408,-1.7148,-1.678,-1.6454,-1.616,-1.638,-1.7144,-1.8157,-1.8198,-1.8444,-1.8413,-1.8416,-1.826,-1.8137,-1.8064,-1.8077,-1.8305,-1.8421,-1.8655,-1.9249,-1.9366,-1.9366,-1.9366,-1.9366,-1.9366,-1.9366,-1.9366,-1.9366,-1.9366,-1.9366,-1.9366,-1.9366,-1.9366,-1.9366,-1.9366,-1.9366,-1.9366,-1.9366,-1.9366,-1.9366,-2.0736,-2.0555,-2.0555,-2.0826,-2.0997,-1.9155,-1.8511,-1.8703,-1.7404,-1.7294,-1.8007,-1.8965,-1.9828,-2.0451,-2.2045,-2.2892,-2.312,-2.3845,-2.3932,-2.3574,-2.345,-2.3198,-2.2593,-2.2547,-2.2401,-2.2171,-2.1934,-2.1608,-2.1015,-2.0357,-1.9911,-1.9646,-1.9288,-1.9012,-1.8827,-1.8827,-1.8827,-1.879,-1.909,-1.9696,-2.0269,-1.922,-1.8965,-1.9639,-1.8655,-1.8194,-1.8421,-1.8881,-1.912,-1.9366,-1.9366,-1.9366,-1.9366,-1.9455,-1.9795,-2.0378,-2.0493,-2.0615,-2.0845,-2.0838,-2.0967,-2.1203,-2.1211,-2.1211,-2.1211,-2.1203,-2.1074,-2.0687,-2.0623,-2.048,-2.0145,-1.9368,-1.859,-1.8074,-1.7469,-1.7076,-1.6841,-1.6707,-1.6553,-1.6488,-1.6932,-1.7964,-1.9422,-1.9989,-2.0113,-2.0081,-1.9482,-1.8958,-1.8532,-1.8071,-1.7843,-1.8077,-1.82,-1.8311,-1.8661,-1.9004,-1.912,-1.9366,-1.9366,-1.9366,-1.9366,-1.9366,-1.9366,-1.9366,-1.9366,-1.9366,-1.9366,-1.9366,-1.9366,-1.9366,-1.9366,-1.9366,-1.9366,-1.9366,-1.9366,-2.011,-2.0292,-2.0102,-2.0374,-2.0546,-1.9063,-1.8326,-1.8334,-1.7037,-1.658,-1.7078,-1.7731,-1.8323,-1.892,-2.0082,-2.0694,-2.1129,-2.2652,-2.3344,-2.2894,-2.2867,-2.242,-2.1861,-2.1944,-2.1907,-2.15,-2.1454,-2.1186,-2.0546,-1.9911,-1.9554,-1.9279,-1.892,-1.8827,-1.8827,-1.8827,-1.8827,-1.8939,-1.9415,-2.0075,-2.0546,-1.9655,-1.9424,-1.9922,-1.8655,-1.8077,-1.8421,-1.8765,-1.9004,-1.9366,-1.9366,-1.9366,-1.9366,-1.9455,-1.9564,-2.004,-2.0162,-2.027,-2.0493,-2.0608,-2.073,-2.0852,-2.0859,-2.0974,-2.1118,-2.124,-2.0867,-2.0472,-2.0085,-1.9977,-1.9974,-1.932,-1.8552,-1.803,-1.7418,-1.7094,-1.7007,-1.6994,-1.7292,-1.7627,-1.7544,-1.8812,-2.0932,-2.1965,-2.1963,-2.1473,-2.0359,-1.9666,-1.8991,-1.8409,-1.7837,-1.7966,-1.7966,-1.8077,-1.8311,-1.8538,-1.8771,-1.901,-1.9366,-1.9366,-1.9366,-1.9366,-1.9366,-1.9366,-1.9366,-1.9366,-1.9366,-1.9366,-1.9366,-1.9366,-1.9366,-1.9366,-1.9366,-1.9366,-1.9366,-1.9828,-2.011,-1.9828,-1.9828,-2.0102,-1.908,-1.8334,-1.7785,-1.7591,-1.7319,-1.7147,-1.7341,-1.7554,-1.7966,-1.8185,-1.8072,-1.8496,-2.0724,-2.181,-2.1631,-2.1605,-2.12,-2.0534,-2.1257,-2.1428,-2.0997,-2.0997,-2.0546,-1.9729,-1.9546,-1.9279,-1.892,-1.8827,-1.8827,-1.8827,-1.8827,-1.8835,-1.8862,-1.928,-2.0183,-2.1485,-1.9773,-1.9264,-1.9929,-1.8409,-1.7837,-1.8305,-1.8648,-1.9004,-1.9359,-1.9366,-1.9366,-1.9366,-1.9366,-1.9475,-1.97,-1.9809,-1.9931,-2.0277,-2.0277,-2.027,-2.0385,-2.0392,-2.0529,-2.0917,-2.1054,-2.0802,-2.027,-1.9747,-1.9503,-1.9761,-1.9494,-1.9138,-1.8919,-1.8171,-1.7782,-1.7589,-1.7542,-1.8101,-1.9117,-1.8839,-1.9457,-2.2331,-2.3676,-2.3485,-2.2081,-2.1123,-2.0256,-1.9339,-1.8874,-1.8538,-1.8083,-1.7732,-1.7837,-1.7954,-1.8188,-1.8421,-1.8771,-1.9127,-1.9366,-1.9359,-1.9359,-1.9366,-1.9366,-1.9366,-1.9366,-1.9366,-1.9366,-1.9366,-1.9366,-1.9366,-1.9366,-1.9366,-1.9366,-1.9366,-1.9096,-1.9279,-1.9096,-1.9371,-1.9646,-1.8719,-1.8071,-1.7598,-1.7037,-1.6457,-1.6122,-1.6064,-1.6334,-1.6686,-1.7064,-1.7246,-1.7336,-1.8381,-1.9365,-2.0143,-2.0364,-2.0357,-2.0352,-2.0564,-2.0654,-2.0473,-2.0184,-1.9911,-1.9546,-1.9279,-1.892,-1.8827,-1.8827,-1.8827,-1.8827,-1.8835,-1.8814,-1.8879,-1.9415,-1.9912,-2.0121,-1.9449,-1.9202,-1.9137,-1.8175,-1.7719,-1.8077,-1.8421,-1.8648,-1.9004,-1.9249,-1.9366,-1.9366,-1.9366,-1.9488,-1.9475,-1.9475,-1.9591,-1.9931,-1.9924,-2.0046,-2.0277,-2.027,-2.027,-2.0392,-2.0536,-2.0291,-1.9788,-1.953,-1.9428,-1.9441,-1.9401,-1.9232,-1.8642,-1.8223,-1.7936,-1.7635,-1.7705,-1.822,-1.945,-2.1003,-2.2306,-2.2611,-2.3436,-2.3469,-2.2949,-2.1925,-2.0923,-2.0033,-1.9339,-1.8532,-1.7843,-1.7602,-1.7596,-1.7719,-1.796,-1.8077,-1.8421,-1.8771,-1.912,-1.912,-1.9243,-1.9366,-1.9366,-1.9366,-1.9366,-1.9366,-1.9366,-1.9366,-1.9366,-1.9366,-1.9366,-1.9366,-1.9366,-1.9366,-1.8827,-1.8827,-1.8827,-1.9004,-1.9279,-1.8635,-1.8079,-1.7598,-1.6763,-1.6027,-1.5699,-1.5337,-1.5335,-1.5541,-1.5972,-1.6086,-1.6046,-1.6157,-1.6935,-1.815,-1.9036,-1.9475,-1.9662,-1.9637,-1.9828,-1.992,-1.9455,-1.918,-1.9279,-1.9012,-1.8827,-1.8827,-1.8827,-1.8827,-1.8759,-1.859,-1.8565,-1.8845,-1.9303,-1.9381,-1.9067,-1.9066,-1.9013,-1.8659,-1.7892,-1.7602,-1.7843,-1.8083,-1.8421,-1.8887,-1.9243,-1.9366,-1.9366,-1.9366,-1.9366,-1.9366,-1.9366,-1.9482,-1.9591,-1.9707,-1.9707,-1.9931,-1.9931,-1.9931,-1.9802,-1.9931,-1.9809,-1.9448,-1.9441,-1.9455,-1.9366,-1.9366,-1.9098,-1.8551,-1.8337,-1.8029,-1.7788,-1.8081,-1.8786,-2.0135,-2.1852,-2.2996,-2.3178,-2.2603,-2.302,-2.3143,-2.2545,-2.142,-2.0673,-2.0148,-1.91,-1.8292,-1.8064,-1.783,-1.7602,-1.7608,-1.7843,-1.8077,-1.8538,-1.8765,-1.8991,-1.9243,-1.9366,-1.9366,-1.9366,-1.9366,-1.9366,-1.9366,-1.9366,-1.9366,-1.9366,-1.9366,-1.9366,-1.9366,-1.9366,-1.8735,-1.8827,-1.8727,-1.8735,-1.8827,-1.8735,-1.835,-1.7692,-1.7044,-1.6312,-1.575,-1.5108,-1.4815,-1.4712,-1.4833,-1.4821,-1.4394,-1.4598,-1.5064,-1.6028,-1.7261,-1.8365,-1.8827,-1.8711,-1.8804,-1.9171,-1.8711,-1.8535,-1.8727,-1.8635,-1.8735,-1.8635,-1.8635,-1.8759,-1.866,-1.8335,-1.8281,-1.8512,-1.8934,-1.8862,-1.8352,-1.8975,-1.8931,-1.8363,-1.7811,-1.7485,-1.7602,-1.796,-1.8311,-1.8881,-1.9243,-1.9366,-1.9366,-1.9366,-1.9366,-1.9366,-1.9366,-1.9366,-1.9366,-1.9482,-1.9482,-1.9482,-1.9482,-1.9366,-1.9482,-1.9482,-1.9482,-1.9475,-1.9359,-1.9366,-1.9366,-1.9319,-1.9032,-1.8571,-1.8323,-1.8063,-1.7768,-1.8822,-1.9743,-2.0633,-2.1853,-2.2854,-2.3399,-2.2411,-2.247,-2.2681,-2.2606,-2.1696,-2.0665,-2.0158,-1.9862,-1.908,-1.8175,-1.7948,-1.7602,-1.7485,-1.7608,-1.7837,-1.8188,-1.8532,-1.8874,-1.912,-1.9366,-1.9366,-1.9366,-1.9366,-1.9366,-1.9366,-1.9366,-1.9366,-1.9366,-1.9366,-1.9366,-1.9366,-1.9366,-1.7699,-1.8473,-1.7699,-1.7971,-1.8735,-1.8827,-1.835,-1.7692,-1.7505,-1.6567,-1.5724,-1.535,-1.4873,-1.4388,-1.4394,-1.4394,-1.4298,-1.4298,-1.4675,-1.5343,-1.5812,-1.7217,-1.835,-1.8156,-1.7963,-1.8149,-1.7971,-1.7878,-1.7971,-1.8071,-1.7986,-1.7978,-1.8102,-1.8123,-1.8233,-1.8177,-1.7797,-1.7669,-1.8569,-1.8274,-1.7429,-1.8503,-1.8591,-1.7538,-1.745,-1.7467,-1.7602,-1.7954,-1.8421,-1.8881,-1.9243,-1.9366,-1.9366,-1.9366,-1.9366,-1.9366,-1.9366,-1.9366,-1.9366,-1.9366,-1.9366,-1.9366,-1.9366,-1.9366,-1.9366,-1.9366,-1.9366,-1.9366,-1.9366,-1.9366,-1.9339,-1.9172,-1.8778,-1.8263,-1.8016,-1.7802,-1.7833,-1.8837,-1.9933,-2.0459,-2.2249,-2.2941,-2.2511,-2.208,-2.1885,-2.1948,-2.1973,-2.1674,-2.0601,-2.0097,-1.9897,-1.8584,-1.7713,-1.7596,-1.7602,-1.7485,-1.7485,-1.7602,-1.7837,-1.8194,-1.8655,-1.9004,-1.9243,-1.9366,-1.9366,-1.9366,-1.9366,-1.9366,-1.9366,-1.9366,-1.9366,-1.9366,-1.9366,-1.9366,-1.9366,-1.7037,-1.7606,-1.6546,-1.664,-1.7498,-1.7498,-1.7404,-1.7225,-1.6842,-1.6278,-1.5432,-1.5057,-1.4682,-1.4292,-1.4298,-1.4298,-1.4298,-1.4298,-1.4586,-1.4867,-1.5248,-1.6379,-1.7326,-1.7131,-1.6943,-1.7131,-1.685,-1.6943,-1.7225,-1.7505,-1.7579,-1.7516,-1.7712,-1.7985,-1.8282,-1.7668,-1.7285,-1.7089,-1.7851,-1.7566,-1.6429,-1.7751,-1.7857,-1.7144,-1.7183,-1.7352,-1.7572,-1.7954,-1.8421,-1.8881,-1.9236,-1.9366,-1.9366,-1.9366,-1.9366,-1.9366,-1.9366,-1.9366,-1.9366,-1.9366,-1.9366,-1.9366,-1.9366,-1.9366,-1.9366,-1.9366,-1.9366,-1.9366,-1.9366,-1.9366,-1.9299,-1.8884,-1.8328,-1.7906,-1.7769,-1.7707,-1.7483,-1.9384,-2.0192,-2.0562,-2.164,-2.2915,-2.1725,-2.1615,-2.1474,-2.1441,-2.164,-2.1156,-2.0428,-2.0233,-1.9617,-1.8308,-1.7781,-1.7923,-1.7707,-1.7485,-1.7485,-1.7485,-1.7719,-1.8077,-1.8428,-1.8887,-1.9127,-1.9359,-1.9366,-1.9366,-1.9366,-1.9366,-1.9366,-1.9366,-1.9366,-1.9366,-1.9366,-1.9366,-1.9366,-1.6264,-1.6271,-1.5305,-1.5114,-1.5697,-1.5798,-1.6082,-1.6197,-1.5906,-1.552,-1.5242,-1.4682,-1.449,-1.4298,-1.4298,-1.4298,-1.4298,-1.4298,-1.4298,-1.458,-1.4956,-1.5724,-1.6197,-1.5906,-1.6008,-1.6298,-1.5724,-1.5953,-1.6462,-1.7116,-1.7275,-1.7098,-1.7466,-1.8028,-1.7903,-1.7171,-1.6836,-1.6959,-1.7231,-1.697,-1.6318,-1.7137,-1.7353,-1.6973,-1.708,-1.7298,-1.7554,-1.7843,-1.82,-1.8758,-1.9243,-1.9366,-1.9366,-1.9366,-1.9366,-1.9366,-1.9366,-1.9366,-1.9366,-1.9366,-1.9366,-1.9366,-1.9366,-1.9366,-1.9366,-1.9366,-1.9366,-1.9366,-1.9359,-1.919,-1.9004,-1.84,-1.7883,-1.7652,-1.7709,-1.7826,-1.7905,-1.9849,-2.1073,-1.9945,-2.0885,-2.1623,-2.1522,-2.124,-2.1036,-2.1211,-2.1168,-2.0476,-2.0069,-1.9807,-1.9138,-1.8141,-1.7962,-1.8358,-1.7923,-1.7485,-1.7485,-1.7485,-1.7719,-1.796,-1.8311,-1.8771,-1.9004,-1.912,-1.912,-1.9243,-1.9366,-1.9366,-1.9366,-1.9366,-1.9366,-1.9366,-1.9366,-1.9366,-1.9366,-1.4166,-1.4937,-1.3884,-1.4166,-1.5114,-1.5203,-1.521,-1.5311,-1.5609,-1.5229,-1.4949,-1.4956,-1.4771,-1.4298,-1.4202,-1.4298,-1.4298,-1.4298,-1.4298,-1.4298,-1.4388,-1.4586,-1.4975,-1.5178,-1.5547,-1.5648,-1.554,-1.5658,-1.5996,-1.6179,-1.6299,-1.6447,-1.6607,-1.6841,-1.7116,-1.6916,-1.6736,-1.7075,-1.7213,-1.6704,-1.6217,-1.687,-1.7283,-1.6812,-1.7129,-1.7388,-1.7578,-1.7849,-1.8089,-1.8323,-1.8914,-1.9256,-1.9366,-1.9366,-1.9366,-1.9366,-1.9366,-1.9366,-1.9366,-1.9366,-1.9366,-1.9366,-1.9366,-1.9366,-1.9366,-1.9366,-1.9366,-1.9359,-1.8978,-1.8577,-1.8094,-1.7702,-1.7277,-1.7135,-1.7629,-1.7989,-1.7989,-1.965,-2.057,-2.0483,-2.1019,-2.175,-2.113,-2.1019,-2.098,-2.0941,-2.0493,-1.9844,-1.9604,-1.9499,-1.8644,-1.7785,-1.7729,-1.8008,-1.7726,-1.743,-1.7485,-1.7485,-1.7602,-1.7726,-1.8188,-1.8421,-1.8538,-1.8765,-1.8991,-1.912,-1.9243,-1.9249,-1.9249,-1.9366,-1.9366,-1.9249,-1.9243,-1.9249,-1.9249,-1.3113,-1.359,-1.2635,-1.2732,-1.3499,-1.3596,-1.3692,-1.3986,-1.428,-1.4184,-1.3902,-1.41,-1.3913,-1.363,-1.3823,-1.3919,-1.401,-1.4202,-1.4298,-1.4298,-1.4304,-1.437,-1.4491,-1.488,-1.5074,-1.5067,-1.5074,-1.5218,-1.5505,-1.5793,-1.6002,-1.596,-1.619,-1.6651,-1.6775,-1.6501,-1.6584,-1.6996,-1.6723,-1.6305,-1.6141,-1.6454,-1.6867,-1.6782,-1.7086,-1.7346,-1.7473,-1.7608,-1.7843,-1.8083,-1.8317,-1.8777,-1.9133,-1.9249,-1.9379,-1.9372,-1.9366,-1.9366,-1.9366,-1.9366,-1.9366,-1.9366,-1.9366,-1.9366,-1.9372,-1.9379,-1.9256,-1.912,-1.8706,-1.8173,-1.7658,-1.723,-1.694,-1.6706,-1.7252,-1.7674,-1.7884,-1.9332,-2.0483,-2.0292,-2.0822,-2.113,-2.1027,-2.0925,-2.0933,-2.0885,-2.0258,-1.9613,-1.9371,-1.9042,-1.8367,-1.7604,-1.7453,-1.7433,-1.7456,-1.7364,-1.7473,-1.7485,-1.7485,-1.7602,-1.7713,-1.7954,-1.8071,-1.8421,-1.8648,-1.8881,-1.9004,-1.901,-1.901,-1.901,-1.9004,-1.9004,-1.8894,-1.8894,-1.8771,-1.2441,-1.2446,-1.158,-1.1492,-1.1883,-1.1878,-1.217,-1.2565,-1.2662,-1.2856,-1.2764,-1.2759,-1.305,-1.2958,-1.3249,-1.3346,-1.3534,-1.3727,-1.3913,-1.3913,-1.3913,-1.4007,-1.4154,-1.4329,-1.4418,-1.457,-1.4775,-1.492,-1.5196,-1.5574,-1.5487,-1.5401,-1.586,-1.6162,-1.6461,-1.6199,-1.608,-1.673,-1.6311,-1.5992,-1.5891,-1.6028,-1.6271,-1.6555,-1.696,-1.7201,-1.7364,-1.756,-1.7602,-1.7849,-1.7707,-1.7935,-1.8532,-1.9023,-1.9269,-1.9249,-1.9127,-1.9127,-1.9127,-1.9127,-1.9133,-1.9249,-1.9249,-1.9249,-1.9256,-1.9263,-1.9146,-1.8835,-1.8397,-1.79,-1.7464,-1.6904,-1.6559,-1.6386,-1.673,-1.7041,-1.7562,-1.9027,-1.9665,-1.999,-2.0514,-2.0925,-2.0925,-2.0925,-2.0925,-2.0712,-1.999,-1.9383,-1.9038,-1.8604,-1.7727,-1.7457,-1.7319,-1.7422,-1.7352,-1.7225,-1.734,-1.7461,-1.7461,-1.7473,-1.7473,-1.7713,-1.7837,-1.8194,-1.8428,-1.8538,-1.8648,-1.8655,-1.8648,-1.8765,-1.8765,-1.8655,-1.8538,-1.8421,-1.8421,-1.1482,-1.1482,-1.1292,-1.1292,-1.1292,-1.1394,-1.1389,-1.1585,-1.198,-1.2175,-1.217,-1.2565,-1.2662,-1.2759,-1.2856,-1.2953,-1.2953,-1.3147,-1.3147,-1.3147,-1.3147,-1.3213,-1.3394,-1.359,-1.3635,-1.3886,-1.4462,-1.4806,-1.4758,-1.4827,-1.4815,-1.4585,-1.4624,-1.499,-1.5328,-1.525,-1.5464,-1.5992,-1.5885,-1.5785,-1.5785,-1.591,-1.603,-1.641,-1.6815,-1.708,-1.7207,-1.737,-1.7485,-1.7608,-1.7479,-1.7719,-1.8077,-1.8428,-1.8544,-1.8655,-1.8655,-1.8655,-1.8655,-1.8655,-1.8538,-1.8655,-1.8887,-1.8881,-1.8777,-1.9017,-1.8894,-1.8384,-1.7748,-1.7148,-1.66,-1.6374,-1.6095,-1.5998,-1.6099,-1.6418,-1.7147,-1.8094,-1.9042,-1.9257,-2.0086,-2.0822,-2.0719,-2.0719,-2.0814,-2.0403,-1.9569,-1.8945,-1.8457,-1.7874,-1.7116,-1.7048,-1.7091,-1.7359,-1.7507,-1.7213,-1.7183,-1.737,-1.7424,-1.7449,-1.7455,-1.7479,-1.7719,-1.796,-1.8077,-1.8188,-1.8305,-1.8298,-1.8415,-1.8421,-1.8421,-1.8421,-1.8305,-1.8188,-1.8305,-1.1194,-1.1194,-1.1194,-1.1194,-1.1194,-1.1194,-1.1194,-1.1194,-1.1487,-1.1585,-1.1683,-1.1883,-1.198,-1.2078,-1.2273,-1.2467,-1.2759,-1.2759,-1.2759,-1.2759,-1.2764,-1.2943,-1.2942,-1.3173,-1.3427,-1.3844,-1.4294,-1.4489,-1.4417,-1.4428,-1.4276,-1.4234,-1.4169,-1.4385,-1.4498,-1.46,-1.4708,-1.503,-1.525,-1.5464,-1.5464,-1.5678,-1.603,-1.632,-1.6652,-1.693,-1.7129,-1.7346,-1.7473,-1.7485,-1.7485,-1.7602,-1.7726,-1.7837,-1.8064,-1.8298,-1.8421,-1.8421,-1.8421,-1.8421,-1.8421,-1.8421,-1.8532,-1.8532,-1.8544,-1.8667,-1.8493,-1.765,-1.7141,-1.6655,-1.6296,-1.6042,-1.5916,-1.5885,-1.5885,-1.6099,-1.6624,-1.7358,-1.7989,-1.8624,-1.9768,-2.03,-2.0308,-2.0411,-2.0506,-1.9983,-1.9049,-1.8415,-1.7891,-1.7186,-1.6493,-1.6574,-1.6609,-1.6735,-1.6973,-1.6964,-1.6864,-1.7177,-1.7304,-1.7334,-1.7418,-1.7424,-1.7461,-1.7719,-1.7837,-1.7837,-1.796,-1.8071,-1.8077,-1.8077,-1.8071,-1.7954,-1.7954,-1.7954,-1.7954,-1.1194,-1.1194,-1.1194,-1.1194,-1.1194,-1.1194,-1.1194,-1.1194,-1.1194,-1.1194,-1.1194,-1.1194,-1.1292,-1.1292,-1.1683,-1.2073,-1.2467,-1.2467,-1.237,-1.237,-1.237,-1.2573,-1.2746,-1.2983,-1.3075,-1.3143,-1.3482,-1.3911,-1.3927,-1.4035,-1.3943,-1.3738,-1.3738,-1.3954,-1.3954,-1.3954,-1.4062,-1.4385,-1.46,-1.4821,-1.5143,-1.5476,-1.5869,-1.6199,-1.6477,-1.6736,-1.6972,-1.7231,-1.7406,-1.7461,-1.7485,-1.7485,-1.7485,-1.7485,-1.7713,-1.8064,-1.8181,-1.8188,-1.8188,-1.8181,-1.8064,-1.8071,-1.8311,-1.8305,-1.8156,-1.7996,-1.7755,-1.6738,-1.648,-1.626,-1.6169,-1.6012,-1.591,-1.5885,-1.5885,-1.5992,-1.6205,-1.6624,-1.7041,-1.7989,-1.9346,-1.9665,-1.9354,-1.9576,-1.9569,-1.9354,-1.8415,-1.7989,-1.7463,-1.6624,-1.6129,-1.6053,-1.615,-1.6169,-1.638,-1.6549,-1.66,-1.6702,-1.6918,-1.708,-1.7231,-1.7358,-1.7511,-1.7541,-1.7602,-1.7602,-1.7726,-1.7726,-1.7843,-1.7726,-1.7608,-1.7602,-1.7719,-1.7719,-1.7719,-1.1194,-1.1194,-1.1194,-1.1194,-1.1194,-1.1194,-1.1194,-1.1194,-1.1194,-1.1194,-1.1194,-1.1194,-1.1194,-1.1194,-1.1292,-1.1389,-1.1389,-1.1487,-1.159,-1.159,-1.159,-1.1605,-1.157,-1.1649,-1.2103,-1.2323,-1.2418,-1.2807,-1.327,-1.3418,-1.3202,-1.2876,-1.2876,-1.2876,-1.3418,-1.3418,-1.363,-1.4062,-1.4283,-1.4498,-1.4928,-1.5041,-1.5493,-1.5797,-1.6217,-1.6471,-1.6742,-1.7002,-1.7213,-1.7436,-1.7461,-1.7473,-1.7485,-1.7485,-1.7485,-1.7602,-1.7596,-1.7602,-1.7719,-1.7719,-1.7713,-1.7719,-1.796,-1.7843,-1.7757,-1.7456,-1.7014,-1.6139,-1.6184,-1.6181,-1.6024,-1.5922,-1.5885,-1.5885,-1.5885,-1.5885,-1.5998,-1.5992,-1.6411,-1.6418,-1.7463,-1.7982,-1.8087,-1.8415,-1.8632,-1.8311,-1.7884,-1.7463,-1.7041,-1.6305,-1.5885,-1.5916,-1.5934,-1.5941,-1.6012,-1.6162,-1.622,-1.6334,-1.6517,-1.6827,-1.7002,-1.7165,-1.7292,-1.7328,-1.7394,-1.7467,-1.7602,-1.7602,-1.7602,-1.7485,-1.7485,-1.7485,-1.7485,-1.7485,-1.7485,-1.1096,-1.1194,-1.1194,-1.1194,-1.1194,-1.1194,-1.1194,-1.1194,-1.1194,-1.1194,-1.1194,-1.1194,-1.1194,-1.1194,-1.1194,-1.1194,-1.1194,-1.1194,-1.1194,-1.1194,-1.1194,-1.1194,-1.1255,-1.1416,-1.1628,-1.1817,-1.2149,-1.2476,-1.2709,-1.2762,-1.2659,-1.2441,-1.2436,-1.255,-1.2876,-1.2767,-1.2871,-1.3197,-1.3527,-1.3954,-1.4498,-1.4821,-1.5148,-1.5369,-1.5922,-1.6326,-1.6495,-1.6724,-1.699,-1.7207,-1.7383,-1.7475,-1.7443,-1.7485,-1.7485,-1.7485,-1.7485,-1.7485,-1.7485,-1.7485,-1.7485,-1.7479,-1.759,-1.7658,-1.7396,-1.714,-1.663,-1.5993,-1.5976,-1.6012,-1.5922,-1.5891,-1.5885,-1.5885,-1.5779,-1.5571,-1.5571,-1.5571,-1.5672,-1.5678,-1.5577,-1.6092,-1.6499,-1.6817,-1.7035,-1.7035,-1.6823,-1.6617,-1.6411,-1.6099,-1.5885,-1.5891,-1.5903,-1.594,-1.597,-1.6054,-1.6072,-1.6142,-1.633,-1.6555,-1.6761,-1.6923,-1.7032,-1.7147,-1.7207,-1.7298,-1.7424,-1.7485,-1.7485,-1.7485,-1.7485,-1.7485,-1.7485,-1.7485,-1.7485,-1.0806,-1.1002,-1.1198,-1.1194,-1.1194,-1.1194,-1.1194,-1.1194,-1.1194,-1.1194,-1.1194,-1.1194,-1.1194,-1.1194,-1.1194,-1.1194,-1.1194,-1.1194,-1.1194,-1.1194,-1.1194,-1.1194,-1.1236,-1.1383,-1.1534,-1.1751,-1.2035,-1.225,-1.2309,-1.2408,-1.2436,-1.2436,-1.2436,-1.2441,-1.2441,-1.2436,-1.2545,-1.255,-1.2876,-1.3418,-1.3959,-1.4283,-1.4606,-1.4979,-1.5526,-1.5993,-1.6089,-1.6459,-1.6712,-1.6942,-1.734,-1.7463,-1.7462,-1.7436,-1.7473,-1.7485,-1.7485,-1.7485,-1.7485,-1.7485,-1.7485,-1.7461,-1.7394,-1.7402,-1.7486,-1.6946,-1.6426,-1.5955,-1.5953,-1.594,-1.5885,-1.5885,-1.5779,-1.5678,-1.5571,-1.525,-1.4928,-1.5035,-1.5041,-1.5047,-1.4838,-1.4396,-1.4809,-1.5114,-1.5429,-1.5654,-1.5761,-1.566,-1.5666,-1.5672,-1.5672,-1.5565,-1.5785,-1.5791,-1.591,-1.5952,-1.5929,-1.5982,-1.6163,-1.629,-1.6507,-1.6628,-1.6718,-1.6845,-1.6996,-1.7153,-1.7286,-1.7388,-1.7485,-1.7485,-1.7485,-1.7485,-1.7485,-1.7485,-1.7485,-1.0413,-1.0507,-1.09,-1.1096,-1.1194,-1.1194,-1.1194,-1.1194,-1.1194,-1.1194,-1.1194,-1.1194,-1.1194,-1.1194,-1.1194,-1.1194,-1.1194,-1.1194,-1.1194,-1.1194,-1.1194,-1.1194,-1.1217,-1.126,-1.1354,-1.1567,-1.1794,-1.1992,-1.2172,-1.2384,-1.2417,-1.2436,-1.2436,-1.2436,-1.2436,-1.2436,-1.2436,-1.2441,-1.2545,-1.2767,-1.3202,-1.3532,-1.3743,-1.4277,-1.4747,-1.5161,-1.5488,-1.5967,-1.6324,-1.6594,-1.7007,-1.7412,-1.7498,-1.7389,-1.734,-1.7346,-1.7352,-1.7346,-1.7352,-1.7436,-1.7473,-1.7412,-1.7292,-1.7244,-1.7313,-1.6691,-1.6216,-1.5884,-1.5779,-1.5809,-1.5785,-1.5779,-1.5458,-1.5244,-1.5035,-1.4713,-1.4498,-1.4283,-1.4396,-1.452,-1.4196,-1.3645,-1.3423,-1.3835,-1.4261,-1.4589,-1.4911,-1.4917,-1.4917,-1.4922,-1.503,-1.5137,-1.5565,-1.5785,-1.5897,-1.5934,-1.5857,-1.5863,-1.6012,-1.6115,-1.6266,-1.6356,-1.641,-1.6622,-1.6791,-1.6972,-1.7147,-1.7255,-1.7358,-1.7443,-1.7485,-1.7485,-1.7485,-1.7485,-1.7485,-0.9612,-1.031,-0.9209,-0.9604,-1.0998,-1.1096,-1.1194,-1.1194,-1.1194,-1.1194,-1.1194,-1.1194,-1.1194,-1.1194,-1.1194,-1.1194,-1.1194,-1.1194,-1.1194,-1.1194,-1.1194,-1.1194,-1.1194,-1.1227,-1.1312,-1.1515,-1.1718,-1.1931,-1.2148,-1.2337,-1.2413,-1.2436,-1.2436,-1.2436,-1.2436,-1.2436,-1.2436,-1.2436,-1.2436,-1.2545,-1.2767,-1.3098,-1.3423,-1.364,-1.4169,-1.4531,-1.4728,-1.5172,-1.5551,-1.5957,-1.6339,-1.6837,-1.7227,-1.7116,-1.7038,-1.705,-1.7056,-1.705,-1.7117,-1.7261,-1.7412,-1.7249,-1.7129,-1.7086,-1.7079,-1.6508,-1.6199,-1.5959,-1.5529,-1.5363,-1.5357,-1.503,-1.4702,-1.46,-1.439,-1.4175,-1.3959,-1.3743,-1.3527,-1.3645,-1.332,-1.2876,-1.2767,-1.2654,-1.3197,-1.3527,-1.3846,-1.4169,-1.4169,-1.4277,-1.439,-1.4606,-1.503,-1.5482,-1.5702,-1.5797,-1.5891,-1.5885,-1.5779,-1.5988,-1.6091,-1.6036,-1.6127,-1.6356,-1.6555,-1.6688,-1.6857,-1.708,-1.7237,-1.7358,-1.7436,-1.7485,-1.7485,-1.7485,-1.7485,-0.8315,-0.9011,-0.7717,-0.8411,-1.0306,-1.0301,-1.0301,-1.0502,-1.0404,-1.0502,-1.0502,-1.0502,-1.0502,-1.0507,-1.0801,-1.06,-1.0502,-1.0605,-1.0806,-1.0806,-1.0801,-1.0998,-1.1096,-1.1212,-1.1269,-1.1468,-1.1709,-1.1921,-1.2025,-1.2304,-1.2413,-1.2436,-1.2436,-1.2436,-1.2436,-1.2436,-1.2436,-1.2436,-1.2436,-1.2436,-1.255,-1.2767,-1.2985,-1.3098,-1.3635,-1.3856,-1.4088,-1.4537,-1.4808,-1.5057,-1.5407,-1.6097,-1.6462,-1.6676,-1.6346,-1.6464,-1.6576,-1.6688,-1.6803,-1.6954,-1.7165,-1.6996,-1.6845,-1.6764,-1.6661,-1.6254,-1.5623,-1.5302,-1.4934,-1.4713,-1.4719,-1.4493,-1.4169,-1.4067,-1.3959,-1.3743,-1.331,-1.2985,-1.2876,-1.2663,-1.2441,-1.255,-1.255,-1.2441,-1.2659,-1.2985,-1.3088,-1.3305,-1.3413,-1.3527,-1.3851,-1.4067,-1.4385,-1.4951,-1.5409,-1.5273,-1.5137,-1.5345,-1.5345,-1.5678,-1.5827,-1.5785,-1.5903,-1.6109,-1.6278,-1.638,-1.6567,-1.6797,-1.705,-1.7292,-1.7382,-1.7485,-1.7485,-1.7485,-1.7485,-0.6523,-0.652,-0.6716,-0.7813,-0.9308,-0.8517,-0.8421,-0.9019,-0.9023,-0.9023,-0.9118,-0.9023,-0.9023,-0.9221,-0.9817,-0.9715,-0.9414,-0.9817,-1.0019,-1.0019,-1.0216,-1.0507,-1.09,-1.1105,-1.1222,-1.1307,-1.1562,-1.1789,-1.1865,-1.1991,-1.2154,-1.2436,-1.2436,-1.2436,-1.2436,-1.2436,-1.2436,-1.2436,-1.2436,-1.2436,-1.2436,-1.255,-1.2545,-1.2659,-1.2985,-1.331,-1.3418,-1.3846,-1.4207,-1.4359,-1.4604,-1.5158,-1.5696,-1.5478,-1.5423,-1.5804,-1.6281,-1.6528,-1.6564,-1.6712,-1.6582,-1.6464,-1.6339,-1.6282,-1.632,-1.5813,-1.4747,-1.4358,-1.4159,-1.4169,-1.4169,-1.4056,-1.3738,-1.3527,-1.3418,-1.3202,-1.2767,-1.2659,-1.2441,-1.2441,-1.2441,-1.2436,-1.2436,-1.2436,-1.2436,-1.2436,-1.2436,-1.2545,-1.2762,-1.2985,-1.331,-1.3527,-1.3846,-1.4186,-1.4526,-1.4515,-1.4498,-1.4702,-1.5024,-1.525,-1.5571,-1.5565,-1.5702,-1.5952,-1.6048,-1.6199,-1.635,-1.6513,-1.6815,-1.7117,-1.7376,-1.7485,-1.7485,-1.7485,-1.7485,-0.5729,-0.6221,-0.4929,-0.5427,-0.6927,-0.7723,-0.8322,-0.8726,-0.8825,-0.8726,-0.8825,-0.8825,-0.8825,-0.8924,-0.8924,-0.8924,-0.8825,-0.8924,-0.9225,-0.9225,-0.962,-1.0019,-1.0413,-1.0801,-1.1096,-1.1269,-1.1496,-1.1616,-1.1831,-1.1598,-1.1882,-1.2181,-1.211,-1.2436,-1.2436,-1.2436,-1.2436,-1.2436,-1.2436,-1.2436,-1.2436,-1.2436,-1.2436,-1.2441,-1.2659,-1.2767,-1.2767,-1.3305,-1.3521,-1.363,-1.3858,-1.4201,-1.4669,-1.4422,-1.4406,-1.4642,-1.508,-1.5068,-1.5068,-1.508,-1.5268,-1.5429,-1.5562,-1.5563,-1.5934,-1.5036,-1.4159,-1.3475,-1.3506,-1.3516,-1.3635,-1.3197,-1.2871,-1.2762,-1.2659,-1.2659,-1.2441,-1.2441,-1.2436,-1.2441,-1.2436,-1.2436,-1.2436,-1.2436,-1.2436,-1.2436,-1.2436,-1.2436,-1.2545,-1.2545,-1.2767,-1.2876,-1.3202,-1.3423,-1.3748,-1.3856,-1.4067,-1.4277,-1.4606,-1.4945,-1.5154,-1.5244,-1.5464,-1.5601,-1.5863,-1.603,-1.6054,-1.6216,-1.6534,-1.6828,-1.7201,-1.743,-1.7485,-1.7485,-1.7485,-0.4604,-0.5129,-0.3831,-0.3934,-0.5135,-0.6129,-0.6927,-0.7329,-0.7428,-0.7428,-0.7325,-0.7329,-0.7329,-0.7428,-0.7726,-0.7726,-0.773,-0.8028,-0.8329,-0.8425,-0.8821,-0.9221,-0.962,-1.0113,-1.0105,-1.0461,-1.0907,-1.1105,-1.1304,-1.0966,-1.1044,-1.1298,-1.1555,-1.1559,-1.1778,-1.211,-1.2436,-1.2436,-1.2436,-1.2436,-1.2436,-1.2436,-1.2436,-1.2436,-1.2436,-1.2436,-1.255,-1.2767,-1.2985,-1.3088,-1.3186,-1.3285,-1.3511,-1.3619,-1.3501,-1.3614,-1.4056,-1.418,-1.431,-1.3986,-1.4309,-1.4489,-1.4505,-1.4794,-1.5047,-1.4445,-1.3624,-1.295,-1.2852,-1.2975,-1.2985,-1.2436,-1.2436,-1.2441,-1.2441,-1.2441,-1.2441,-1.2436,-1.2436,-1.2436,-1.2436,-1.2436,-1.2436,-1.2436,-1.2436,-1.2436,-1.2436,-1.2436,-1.2436,-1.2436,-1.2436,-1.2545,-1.2659,-1.2876,-1.3207,-1.331,-1.3527,-1.3846,-1.4072,-1.4299,-1.4617,-1.4708,-1.503,-1.5244,-1.5171,-1.5206,-1.5546,-1.5819,-1.6226,-1.6642,-1.7171,-1.7377,-1.7436,-1.7485,-1.7485,-0.3174,-0.3224,-0.323,-0.3531,-0.3932,-0.4234,-0.4433,-0.4935,-0.4935,-0.4933,-0.4933,-0.5133,-0.5334,-0.5233,-0.5732,-0.5932,-0.5932,-0.6528,-0.693,-0.7332,-0.7528,-0.8028,-0.8425,-0.8718,-0.8916,-0.9168,-0.9574,-1.0128,-1.0464,-1.0596,-1.0329,-0.9979,-1.0237,-1.057,-1.1122,-1.1559,-1.2001,-1.2219,-1.2436,-1.2436,-1.2436,-1.2436,-1.2436,-1.2436,-1.2436,-1.2436,-1.2436,-1.2545,-1.2545,-1.2545,-1.2545,-1.2436,-1.2659,-1.2989,-1.2748,-1.2955,-1.3614,-1.384,-1.3846,-1.3413,-1.3315,-1.3588,-1.3779,-1.4099,-1.4001,-1.3671,-1.3093,-1.2639,-1.254,-1.2545,-1.2436,-1.2436,-1.2436,-1.2436,-1.2436,-1.2436,-1.2436,-1.2436,-1.2436,-1.2436,-1.2436,-1.2436,-1.2436,-1.2436,-1.2436,-1.2436,-1.2436,-1.2436,-1.2436,-1.2436,-1.2436,-1.2436,-1.2436,-1.2436,-1.2659,-1.2876,-1.2985,-1.3305,-1.331,-1.3537,-1.3851,-1.4175,-1.4385,-1.4493,-1.4385,-1.4509,-1.4854,-1.5389,-1.6005,-1.6414,-1.6684,-1.7183,-1.7243,-1.7443,-1.7485,-0.315,-0.3169,-0.3213,-0.3331,-0.3432,-0.3432,-0.3932,-0.4734,-0.4832,-0.4834,-0.4832,-0.4832,-0.4734,-0.4832,-0.5033,-0.5035,-0.5133,-0.5233,-0.5434,-0.5732,-0.6331,-0.6628,-0.6924,-0.7325,-0.7524,-0.7836,-0.8299,-0.8845,-0.9216,-0.9663,-0.9505,-0.9023,-0.9247,-0.9691,-1.0131,-1.0457,-1.1232,-1.2001,-1.2219,-1.2219,-1.2332,-1.2332,-1.2332,-1.2436,-1.2436,-1.2436,-1.2436,-1.2436,-1.2436,-1.2436,-1.2436,-1.2436,-1.2436,-1.255,-1.254,-1.2427,-1.2758,-1.2871,-1.2871,-1.2762,-1.2659,-1.2767,-1.2871,-1.2876,-1.2886,-1.2891,-1.2659,-1.255,-1.2436,-1.2436,-1.2436,-1.2436,-1.2436,-1.2436,-1.2436,-1.2436,-1.2436,-1.2436,-1.2436,-1.2436,-1.2436,-1.2436,-1.2436,-1.2436,-1.2436,-1.2436,-1.2436,-1.2436,-1.2436,-1.2436,-1.2436,-1.2436,-1.2436,-1.2436,-1.2436,-1.255,-1.255,-1.2659,-1.2767,-1.2989,-1.331,-1.3635,-1.3846,-1.3846,-1.3954,-1.4062,-1.439,-1.4928,-1.5476,-1.5678,-1.5917,-1.6547,-1.705,-1.7243,-1.7443,-0.3119,-0.3147,-0.3204,-0.323,-0.323,-0.323,-0.3632,-0.4135,-0.4131,-0.4133,-0.4133,-0.4133,-0.4133,-0.4133,-0.4133,-0.4232,-0.4533,-0.4533,-0.4734,-0.5133,-0.5233,-0.5532,-0.5729,-0.5929,-0.6129,-0.6429,-0.6862,-0.7376,-0.7839,-0.809,-0.8143,-0.7703,-0.8254,-0.8806,-0.914,-0.9471,-1.0021,-1.1008,-1.1559,-1.1782,-1.2005,-1.2223,-1.2327,-1.2327,-1.2327,-1.2327,-1.2327,-1.2327,-1.2332,-1.2436,-1.2436,-1.2436,-1.2436,-1.2441,-1.2441,-1.2436,-1.2436,-1.2545,-1.2545,-1.2436,-1.2436,-1.2436,-1.2436,-1.2441,-1.2441,-1.255,-1.2441,-1.2436,-1.2436,-1.2436,-1.2436,-1.2436,-1.2436,-1.2436,-1.2436,-1.2436,-1.2436,-1.2436,-1.2436,-1.2436,-1.2436,-1.2436,-1.2436,-1.2436,-1.2436,-1.2436,-1.2436,-1.2436,-1.2436,-1.2436,-1.2436,-1.2436,-1.2436,-1.2436,-1.2455,-1.2493,-1.2493,-1.2484,-1.255,-1.2659,-1.2881,-1.2999,-1.3123,-1.3325,-1.363,-1.3655,-1.3593,-1.4445,-1.5058,-1.4942,-1.4707,-1.4793,-1.5631,-1.6809,-1.7122,-0.3082,-0.3136,-0.3204,-0.323,-0.323,-0.323,-0.3232,-0.323,-0.3331,-0.323,-0.323,-0.323,-0.3331,-0.3432,-0.3432,-0.3632,-0.3833,-0.3932,-0.4133,-0.4634,-0.4533,-0.4634,-0.4634,-0.4734,-0.4832,-0.5033,-0.5464,-0.6045,-0.6368,-0.6678,-0.6813,-0.6262,-0.6371,-0.7038,-0.8039,-0.8149,-0.8699,-0.9467,-1.0241,-1.0798,-1.1122,-1.1669,-1.2219,-1.211,-1.2001,-1.2105,-1.2219,-1.2327,-1.2332,-1.2332,-1.2436,-1.2436,-1.2436,-1.2436,-1.2436,-1.2436,-1.2436,-1.2436,-1.2436,-1.2436,-1.2436,-1.2436,-1.2436,-1.2436,-1.2436,-1.2436,-1.2436,-1.2436,-1.2436,-1.2436,-1.2436,-1.2436,-1.2436,-1.2436,-1.2436,-1.2436,-1.2436,-1.2436,-1.2436,-1.2436,-1.2436,-1.2436,-1.2436,-1.2436,-1.2436,-1.2436,-1.2498,-1.2502,-1.2531,-1.2531,-1.2535,-1.254,-1.2597,-1.2635,-1.263,-1.2649,-1.2587,-1.255,-1.2535,-1.2569,-1.2885,-1.2717,-1.2398,-1.2578,-1.2769,-1.2812,-1.2922,-1.3387,-1.3522,-1.3412,-1.315,-1.2831,-1.3795,-1.546,-1.6362,-0.3153,-0.308,-0.3185,-0.323,-0.323,-0.323,-0.323,-0.323,-0.323,-0.323,-0.323,-0.323,-0.323,-0.323,-0.323,-0.3331,-0.3432,-0.3531,-0.3533,-0.3632,-0.3732,-0.3833,-0.363,-0.3833,-0.3732,-0.3732,-0.4259,-0.484,-0.5316,-0.5589,-0.5704,-0.5594,-0.5594,-0.6151,-0.6818,-0.693,-0.7374,-0.8036,-0.8699,-0.9471,-1.0021,-1.0127,-1.0457,-1.0457,-1.0566,-1.1008,-1.1122,-1.1455,-1.1782,-1.2219,-1.2327,-1.2436,-1.2436,-1.2327,-1.2327,-1.2436,-1.2327,-1.2327,-1.2436,-1.2436,-1.2436,-1.2436,-1.2436,-1.2436,-1.2436,-1.2436,-1.2436,-1.2436,-1.2436,-1.2436,-1.2436,-1.2436,-1.2436,-1.2436,-1.2436,-1.2436,-1.2436,-1.2436,-1.2436,-1.2436,-1.2436,-1.2436,-1.2436,-1.245,-1.2436,-1.2517,-1.2644,-1.271,-1.2772,-1.2791,-1.281,-1.2824,-1.289,-1.2913,-1.2871,-1.2828,-1.2776,-1.281,-1.2833,-1.2866,-1.2885,-1.2604,-1.2324,-1.1968,-1.1907,-1.1816,-1.1673,-1.141,-1.1524,-1.179,-1.1522,-1.1218,-1.1981,-1.3565,-1.4625,-0.309,-0.3102,-0.3191,-0.323,-0.323,-0.323,-0.323,-0.323,-0.323,-0.323,-0.323,-0.323,-0.323,-0.323,-0.323,-0.323,-0.323,-0.323,-0.323,-0.323,-0.323,-0.323,-0.323,-0.323,-0.323,-0.3335,-0.3606,-0.399,-0.4381,-0.4505,-0.4592,-0.4927,-0.5037,-0.526,-0.5817,-0.5929,-0.6151,-0.6707,-0.7263,-0.7925,-0.8806,-0.9247,-0.9684,-0.9794,-0.9908,-1.0131,-1.0241,-1.057,-1.0789,-1.1459,-1.1905,-1.201,-1.1782,-1.1328,-1.166,-1.1996,-1.211,-1.2001,-1.2219,-1.2327,-1.2327,-1.2327,-1.2332,-1.2332,-1.2436,-1.2436,-1.2436,-1.2436,-1.2436,-1.2436,-1.2436,-1.2436,-1.2436,-1.2436,-1.2436,-1.2436,-1.2436,-1.2436,-1.2436,-1.2436,-1.2436,-1.2436,-1.2474,-1.2707,-1.2712,-1.2658,-1.2781,-1.2895,-1.2961,-1.306,-1.3074,-1.3084,-1.3021,-1.3093,-1.2999,-1.2984,-1.2989,-1.3041,-1.3117,-1.2703,-1.2438,-1.2342,-1.2135,-1.1479,-1.1017,-1.0843,-1.0616,-1.0327,-1.0412,-1.0792,-1.0181,-0.9481,-1.059,-1.1603,-1.253,-0.275,-0.2862,-0.2807,-0.2927,-0.2927,-0.2927,-0.2826,-0.2826,-0.2928,-0.3029,-0.3029,-0.313,-0.323,-0.323,-0.323,-0.323,-0.323,-0.323,-0.323,-0.323,-0.323,-0.323,-0.323,-0.323,-0.323,-0.3273,-0.3442,-0.3481,-0.3629,-0.374,-0.4033,-0.4369,-0.448,-0.4702,-0.5148,-0.5371,-0.5483,-0.604,-0.6485,-0.6821,-0.7595,-0.8589,-0.9027,-0.9357,-0.9467,-0.9467,-0.9578,-0.9688,-0.9688,-1.0245,-1.1139,-1.1135,-1.1017,-1.0558,-1.0887,-1.1223,-1.1232,-1.1341,-1.1669,-1.1664,-1.1887,-1.2114,-1.2223,-1.2223,-1.2219,-1.2332,-1.2332,-1.2327,-1.2327,-1.2327,-1.2327,-1.2436,-1.2436,-1.2436,-1.2436,-1.2436,-1.2436,-1.2441,-1.2446,-1.245,-1.2479,-1.2479,-1.2592,-1.2937,-1.2888,-1.295,-1.2928,-1.3032,-1.3145,-1.3277,-1.3358,-1.3105,-1.2988,-1.3031,-1.3072,-1.3072,-1.3114,-1.3268,-1.3315,-1.2628,-1.2,-1.1853,-1.1411,-1.0544,-1.0065,-0.9962,-0.9724,-0.9399,-0.959,-0.9792,-0.9295,-0.8703,-0.9189,-1.0076,-1.0483,-0.1187,-0.1204,-0.1209,-0.1311,-0.1311,-0.1311,-0.121,-0.1412,-0.2017,-0.2219,-0.2422,-0.2927,-0.323,-0.323,-0.323,-0.323,-0.323,-0.323,-0.323,-0.323,-0.323,-0.323,-0.323,-0.323,-0.323,-0.3278,-0.3343,-0.3401,-0.3431,-0.3526,-0.3587,-0.3811,-0.3811,-0.4145,-0.4592,-0.4702,-0.4925,-0.5369,-0.5929,-0.6487,-0.6937,-0.749,-0.7598,-0.7706,-0.7706,-0.8149,-0.8481,-0.8702,-0.9144,-0.9695,-1.0025,-1.0131,-1.0017,-0.9794,-1.001,-1.0343,-1.0241,-1.0351,-1.0566,-1.0676,-1.0899,-1.1345,-1.1455,-1.1673,-1.1896,-1.2341,-1.2228,-1.1996,-1.1996,-1.2219,-1.2327,-1.2327,-1.2436,-1.2436,-1.2436,-1.2436,-1.2436,-1.2465,-1.2484,-1.255,-1.2625,-1.2691,-1.2805,-1.2998,-1.3026,-1.2989,-1.3102,-1.3197,-1.3221,-1.341,-1.3456,-1.3159,-1.2745,-1.3108,-1.3333,-1.3145,-1.304,-1.33,-1.3172,-1.2263,-1.1671,-1.1287,-1.0688,-0.9646,-0.9313,-0.9232,-0.8862,-0.8683,-0.8594,-0.8692,-0.8283,-0.8025,-0.8388,-0.8753,-0.9394]}]]